Date StartTime U_cm/s V_cm/s W_cm/s Ustd_cm/s Vstd_cm/s Wstd_cm/s Uvar_(cm/s)^2 Vvar_(cm/s)^2 Wvar_(cm/s)^2 KE_(m/s)^2 TurbulentKE_(m/s)^2 HorizWindSpeed_cm/s FrictionSpeec_cm/s DragCoef SpeedOfSound_m/s SonicTemperature_C Pressure_mb 
10/29/2013  00:00:00      -52.155       63.959      -14.439       36.678       53.590       24.016     1345.281     2871.916      576.753        0.591        0.240       82.528       29.401        0.127      334.864        5.118      852.822
10/29/2013  00:01:00      -76.628       20.437       -2.120       42.933       51.092       27.330     1843.204     2610.359      746.937        0.575        0.260       79.306       24.474        0.095      334.886        5.155      852.827
10/29/2013  00:02:00     -116.787      -14.024       15.229       89.846       49.756       43.635     8072.217     2475.638     1903.982        1.326        0.623      117.626       42.551        0.131      334.857        5.106      852.817
10/29/2013  00:03:00      -19.357       72.450        0.851       45.552       69.275       30.457     2074.992     4799.035      927.607        0.671        0.390       74.992       35.085        0.219      334.891        5.162      852.808
10/29/2013  00:04:00      -62.792       88.068      -11.991       37.284       43.807       25.916     1390.127     1919.024      671.627        0.791        0.199      108.161       22.094        0.042      334.886        5.155      852.797
10/29/2013  00:05:00      -85.855      151.004      -21.618       55.623      109.843       32.582     3093.955    12065.556     1061.572        2.343        0.811      173.705       33.010        0.036      334.831        5.061      852.809
10/29/2013  00:06:00     -162.321      151.359      -43.470       58.756       56.554       35.915     3452.319     3198.347     1289.857        2.954        0.397      221.940       30.544        0.019      334.815        5.032      852.833
10/29/2013  00:07:00     -115.983      101.628      -19.490       48.082       53.300       31.268     2311.903     2840.900      977.712        1.514        0.307      154.208       22.155        0.021      334.826        5.053      852.848
10/29/2013  00:08:00      -82.171      138.556      -22.571       53.084       64.468       36.432     2817.906     4156.096     1327.294        1.738        0.415      161.090       26.440        0.027      334.777        4.973      852.837
10/29/2013  00:09:00      -89.483       88.648      -13.780       67.650       62.993       35.722     4576.552     3968.112     1276.033        1.294        0.491      125.959       25.292        0.040      334.853        5.098      852.818
10/29/2013  00:10:00     -104.827       69.641       -6.240       66.191       48.129       34.840     4381.250     2316.448     1213.798        1.189        0.396      125.851       18.069        0.021      334.869        5.126      852.838
10/29/2013  00:11:00     -134.096      157.000      -42.095       92.952       80.667       46.058     8640.026     6507.118     2121.374        3.083        0.863      206.472       53.798        0.068      334.792        4.995      852.856
10/29/2013  00:12:00      -40.905      255.987      -20.311       68.757      110.208       47.419     4727.575    12145.842     2248.525        4.337        0.956      259.234       53.051        0.042      334.870        5.124      852.854
10/29/2013  00:13:00     -121.740      172.380      -22.770       75.537       74.607       49.382     5705.791     5566.168     2438.628        2.938        0.686      211.035       37.130        0.031      334.855        5.099      852.880
10/29/2013  00:14:00     -118.005      150.629      -21.989       47.656       76.311       38.249     2271.049     5823.414     1462.959        2.333        0.478      191.348       30.049        0.025      334.833        5.064      852.898
10/29/2013  00:15:00      -87.655      121.724      -18.069       48.466       63.644       38.888     2348.907     4050.530     1512.314        1.537        0.396      150.000       34.001        0.051      334.843        5.082      852.898
10/29/2013  00:16:00      -88.070      122.532      -13.088       68.129       77.235       36.959     4641.615     5965.179     1365.974        1.746        0.599      150.899       30.959        0.042      334.865        5.118      852.889
10/29/2013  00:17:00      -91.323      102.476      -20.393       64.671       59.165       39.286     4182.372     3500.492     1543.425        1.424        0.461      137.263       30.180        0.048      334.833        5.066      852.881
10/29/2013  00:18:00      -47.614       75.725        0.293       59.226       47.982       37.320     3507.749     2302.232     1392.778        0.760        0.360       89.451       35.434        0.157      334.878        5.143      852.869
10/29/2013  00:19:00     -118.224       93.731      -12.714       58.432       54.070       33.459     3414.282     2923.553     1119.474        1.519        0.373      150.872       26.871        0.032      334.800        5.011      852.871
10/29/2013  00:20:00     -125.054       86.037      -25.022       41.178       43.241       27.881     1695.648     1869.754      777.342        1.400        0.217      151.792       22.858        0.023      334.813        5.033      852.860
10/29/2013  00:21:00     -139.820       40.856      -22.168       66.508       59.591       33.261     4423.270     3551.078     1106.297        1.539        0.454      145.667       29.581        0.041      334.812        5.031      852.870
10/29/2013  00:22:00     -135.076       70.856      -28.334       42.166       40.272       27.891     1777.943     1621.829      777.922        1.412        0.209      152.532       22.419        0.022      334.800        5.010      852.872
10/29/2013  00:23:00     -227.087      -78.582        0.528      123.683       85.726       43.332    15297.529     7348.935     1877.678        4.113        1.226      240.299       49.378        0.042      334.813        5.030      852.865
10/29/2013  00:24:00     -185.726       -3.184       -9.336       89.964       82.600       50.034     8093.444     6822.801     2503.438        2.600        0.871      185.754       42.945        0.053      334.743        4.914      852.864
10/29/2013  00:25:00     -174.014       69.871      -35.392       65.255       62.690       47.742     4258.276     3930.081     2279.316        2.344        0.523      187.518       25.423        0.018      334.765        4.950      852.849
10/29/2013  00:26:00     -151.862       37.716      -13.019       78.335       79.509       37.883     6136.382     6321.689     1435.093        1.927        0.695      156.475       34.128        0.048      334.748        4.924      852.843
10/29/2013  00:27:00     -149.280      105.086      -20.743       77.048       66.305       42.931     5936.428     4396.406     1843.099        2.296        0.609      182.559       44.048        0.058      334.779        4.973      852.835
10/29/2013  00:28:00     -188.251      204.235      -48.705       53.679       66.699       34.089     2881.426     4448.710     1162.059        4.401        0.425      277.760       28.668        0.011      334.742        4.911      852.822
10/29/2013  00:29:00      -91.079      127.558      -19.523       56.009       66.988       30.478     3136.961     4487.388      928.915        1.675        0.428      156.737       23.879        0.023      334.812        5.031      852.819
10/29/2013  00:30:00     -126.042      131.520      -19.195       61.339       91.447       41.832     3762.519     8362.597     1749.902        2.371        0.694      182.165       33.319        0.033      334.859        5.108      852.823
10/29/2013  00:31:00     -139.383      216.464      -28.794       86.658       75.551       53.096     7509.569     5707.883     2819.232        4.157        0.802      257.457       44.409        0.030      334.894        5.165      852.829
10/29/2013  00:32:00     -174.118       76.875      -22.435      107.003       94.909       48.983    11449.646     9007.767     2399.303        2.979        1.143      190.334       55.515        0.085      334.856        5.104      852.844
10/29/2013  00:33:00     -141.331      113.336      -34.347       55.921       47.804       40.701     3127.197     2285.222     1656.541        2.053        0.353      181.162       11.115        0.004      334.799        5.007      852.869
10/29/2013  00:34:00     -179.025       59.915      -19.351       82.482       56.946       39.539     6803.311     3242.855     1563.304        2.381        0.580      188.785       34.463        0.033      334.786        4.985      852.868
10/29/2013  00:35:00     -178.008       79.524      -31.879       67.854       60.494       32.243     4604.216     3659.548     1039.606        2.416        0.465      194.963       20.211        0.011      334.785        4.983      852.864
10/29/2013  00:36:00     -144.176      -11.574       -3.134       70.834       75.795       45.699     5017.406     5744.916     2088.369        1.689        0.643      144.640       38.528        0.071      334.820        5.042      852.906
10/29/2013  00:37:00     -210.345       52.112      -31.636       73.014      104.699       43.249     5331.027    10961.942     1870.488        3.306        0.908      216.704       46.972        0.047      334.786        4.985      852.915
10/29/2013  00:38:00     -216.756       91.253      -47.808       97.387       61.969       42.496     9484.155     3840.142     1805.938        3.636        0.757      235.181       36.884        0.025      334.784        4.982      852.917
10/29/2013  00:39:00     -177.395       24.900      -28.271       59.630       62.893       34.595     3555.788     3955.583     1196.817        2.080        0.435      179.134       27.042        0.023      334.770        4.960      852.923
10/29/2013  00:40:00     -187.772       14.215      -18.853      112.112      111.366       54.619    12569.143    12402.410     2983.226        3.188        1.398      188.309       56.510        0.090      334.798        5.006      852.955
10/29/2013  00:41:00     -131.091      168.455      -19.835       94.510      127.448       59.040     8932.202    16243.044     3485.756        3.730        1.433      213.453       51.168        0.057      334.818        5.039      852.965
10/29/2013  00:42:00     -195.414      190.697      -39.569      108.440       76.664       63.252    11759.297     5877.431     4000.768        4.887        1.082      273.042       54.944        0.040      334.888        5.155      852.984
10/29/2013  00:43:00     -152.074       65.987      -13.886       84.388       96.062       39.467     7121.348     9227.885     1557.642        2.279        0.895      165.773       36.954        0.050      334.880        5.141      853.009
10/29/2013  00:44:00     -188.262      110.537      -41.763       74.978      122.867       37.846     5621.684    15096.187     1432.323        3.577        1.108      218.314       51.935        0.057      334.840        5.075      853.034
10/29/2013  00:45:00     -151.875      186.527      -23.486       92.951      179.957       54.757     8639.949    32384.346     2998.318        5.121        2.201      240.538       70.094        0.085      334.830        5.059      853.047
10/29/2013  00:46:00     -124.919      101.383      -18.074       74.708       83.957       48.782     5581.338     7048.790     2379.699        2.061        0.750      160.883       49.014        0.093      334.825        5.052      853.041
10/29/2013  00:47:00      -60.792       35.166      -17.107       57.562       61.462       40.890     3313.370     3777.550     1671.979        0.699        0.438       70.231       29.479        0.176      334.894        5.168      853.073
10/29/2013  00:48:00     -109.695      135.185       -6.255      111.595       95.654       59.175    12453.379     9149.717     3501.642        2.772        1.255      174.092       56.142        0.104      334.859        5.107      853.079
10/29/2013  00:49:00      -76.274       89.397       -5.559       66.577       62.403       45.527     4432.507     3894.157     2072.728        1.212        0.520      117.514       44.827        0.146      334.915        5.202      853.082
10/29/2013  00:50:00      -40.195       49.337        5.714       72.293       98.645       53.238     5226.262     9730.926     2834.262        1.093        0.890       63.638       41.514        0.426      334.925        5.218      853.103
10/29/2013  00:51:00      -42.760       30.787       10.288       43.738      105.760       52.249     1913.054    11185.243     2729.942        0.935        0.791       52.690       49.474        0.882      334.903        5.183      853.113
10/29/2013  00:52:00     -172.624      143.033      -21.722      102.192       98.755       48.025    10443.236     9752.469     2306.437        3.661        1.125      224.182       49.729        0.049      334.826        5.052      853.110
10/29/2013  00:53:00      -83.221      177.031      -18.547       77.189       93.719       64.775     5958.214     8783.158     4195.745        2.877        0.947      195.616       50.579        0.067      334.844        5.083      853.095
10/29/2013  00:54:00     -104.349       73.515        1.016       91.575       60.094       49.498     8385.956     3611.347     2450.004        1.537        0.722      127.645       54.189        0.180      334.893        5.166      853.079
10/29/2013  00:55:00      -34.335      170.719        8.653       61.245      105.016       51.904     3750.932    11028.284     2694.045        2.393        0.874      174.137       46.868        0.072      334.918        5.205      853.078
10/29/2013  00:56:00      -60.543      102.781      -18.968       83.315       77.549       34.871     6941.414     6013.779     1215.953        1.438        0.709      119.287       39.356        0.109      334.893        5.165      853.093
10/29/2013  00:57:00      -47.616       39.491      -20.415       41.598       47.463       31.858     1730.416     2252.731     1014.922        0.462        0.250       61.862       25.584        0.171      334.895        5.171      853.114
10/29/2013  00:58:00       -9.838       63.763      -20.492       48.737       80.664       25.049     2375.256     6506.631      627.456        0.704        0.475       64.517       17.705        0.075      334.948        5.258      853.131
10/29/2013  00:59:00     -100.840        2.384       -1.111       96.690       67.665       48.334     9349.036     4578.561     2336.223        1.322        0.813      100.868       50.424        0.250      334.920        5.210      853.149
10/29/2013  01:00:00      -60.769       84.027        5.010       87.357       87.467       54.348     7631.262     7650.523     2953.759        1.450        0.912      103.699       57.970        0.313      334.951        5.261      853.162
10/29/2013  01:01:00      -93.858      -59.389       -4.468       77.340       74.957       43.688     5981.489     5618.494     1908.603        1.293        0.675      111.069       42.243        0.145      334.950        5.260      853.186
10/29/2013  01:02:00     -101.950       -6.203       -0.205      116.661       83.908       52.276    13609.737     7040.626     2732.775        1.690        1.169      102.139       58.381        0.327      335.026        5.387      853.172
10/29/2013  01:03:00     -168.065      133.182      -19.433      106.705       97.129       58.241    11386.050     9433.978     3392.004        3.528        1.211      214.437       57.807        0.073      335.096        5.501      853.156
10/29/2013  01:04:00     -169.575        4.453      -17.793       76.070       86.011       37.580     5786.570     7397.949     1412.289        2.184        0.730      169.633       24.444        0.021      335.153        5.597      853.156
10/29/2013  01:05:00      -40.227       43.690       -0.694       36.557       40.790       31.337     1336.439     1663.853      981.984        0.375        0.199       59.389       20.162        0.115      335.222        5.711      853.195
10/29/2013  01:06:00        6.115       -9.864       -6.523       50.507       35.644       23.649     2550.932     1270.516      559.298        0.228        0.219       11.605       19.281        2.760      335.311        5.860      853.216
10/29/2013  01:07:00     -106.889      -23.783      -10.829       42.177       48.937       20.729     1778.866     2394.805      429.699        0.835        0.230      109.503        7.061        0.004      335.245        5.750      853.251
10/29/2013  01:08:00     -208.412       42.229      -14.622       79.734       53.425       36.064     6357.540     2854.245     1300.640        2.797        0.526      212.647       31.181        0.022      335.210        5.687      853.290
10/29/2013  01:09:00     -160.367       15.033      -16.843       61.942       49.002       36.781     3836.776     2401.217     1352.822        1.691        0.380      161.070       34.813        0.047      335.196        5.668      853.335
10/29/2013  01:10:00      -76.506      -24.074       -7.302       44.687       52.629       33.636     1996.954     2769.840     1131.392        0.619        0.295       80.204       22.540        0.079      335.133        5.565      853.354
10/29/2013  01:11:00     -148.536      -46.620      -14.332       28.639       15.864       20.370      820.206      251.679      414.925        1.296        0.074      155.680       12.659        0.007      335.106        5.520      853.367
10/29/2013  01:12:00      -77.460      -11.387        0.506       53.917       32.061       24.352     2907.087     1027.883      593.021        0.533        0.226       78.293       27.274        0.121      335.119        5.542      853.395
10/29/2013  01:13:00     -122.283      -22.158      -13.042       49.243       32.248       21.630     2424.897     1039.921      467.837        0.977        0.197      124.274       21.766        0.031      335.069        5.460      853.389
10/29/2013  01:14:00      -69.472      -21.511        6.238       53.338       38.795       27.981     2844.961     1505.067      782.921        0.523        0.257       72.726       33.912        0.217      335.096        5.504      853.379
10/29/2013  01:15:00      -75.480      -11.947       -3.246       29.469       34.874       16.369      868.417     1216.186      267.934        0.410        0.118       76.420       14.186        0.034      335.097        5.506      853.373
10/29/2013  01:16:00      -94.711      -45.546       -0.686       50.630       37.369       20.994     2563.418     1396.432      440.768        0.772        0.220      105.093       17.686        0.028      335.116        5.537      853.391
10/29/2013  01:17:00     -197.191      -33.828        2.781       85.667       58.401       37.468     7338.761     3410.658     1403.884        2.609        0.608      200.071       42.450        0.045      334.967        5.288      853.399
10/29/2013  01:18:00     -188.155      -50.460        1.508       73.076       70.606       40.163     5340.084     4985.250     1613.053        2.494        0.597      194.803       41.676        0.046      334.898        5.170      853.426
10/29/2013  01:19:00     -143.731      -50.988       -6.925       52.850       59.333       28.571     2793.091     3520.421      816.310        1.522        0.356      152.507       25.787        0.029      334.879        5.142      853.438
10/29/2013  01:20:00     -166.582      -12.668      -20.104       39.046       51.435       25.561     1524.572     2645.540      653.354        1.657        0.241      167.063       23.185        0.019      334.876        5.137      853.433
10/29/2013  01:21:00     -112.962      -37.237       -8.621       62.232       34.838       27.604     3872.803     1213.696      761.959        1.003        0.292      118.941       29.500        0.062      334.855        5.102      853.427
10/29/2013  01:22:00     -132.304      -45.477       -6.809       45.268       48.663       26.510     2049.227     2368.048      702.760        1.237        0.256      139.902       22.932        0.027      334.872        5.132      853.448
10/29/2013  01:23:00     -191.244      -52.854      -10.499       69.568       51.733       28.042     4839.683     2676.344      786.331        2.389        0.415      198.414       34.401        0.030      334.848        5.088      853.490
10/29/2013  01:24:00     -159.384      -96.386        0.378       63.975       62.287       34.609     4092.767     3879.731     1197.766        2.193        0.459      186.262       35.650        0.037      334.815        5.036      853.513
10/29/2013  01:25:00     -112.120      -52.945       -1.201       46.067       67.492       26.017     2122.161     4555.103      676.866        1.136        0.368      123.992       28.388        0.052      334.816        5.037      853.508
10/29/2013  01:26:00      -92.570        4.770       -2.212       50.154       32.125       20.186     2515.403     1032.014      407.455        0.628        0.198       92.693       16.993        0.034      334.773        4.967      853.502
10/29/2013  01:27:00      -75.761      -29.397       -1.468       31.641       29.912       21.191     1001.159      894.701      449.045        0.448        0.117       81.264       21.013        0.067      334.760        4.947      853.512
10/29/2013  01:28:00     -127.044      -29.923       -4.034       37.774       36.292       26.267     1426.888     1317.075      689.980        1.024        0.172      130.520       25.365        0.038      334.785        4.985      853.549
10/29/2013  01:29:00     -105.695      -32.658       -3.316       57.318       36.841       22.875     3285.384     1357.240      523.249        0.871        0.258      110.626       26.826        0.059      334.812        5.029      853.576
10/29/2013  01:30:00      -11.973      -13.392       10.973       20.339       31.730       14.079      413.677     1006.767      198.224        0.103        0.081       17.964       15.053        0.702      334.893        5.167      853.555
10/29/2013  01:31:00      -14.074       34.260       11.507       31.814       25.647       21.287     1012.144      657.757      453.143        0.181        0.106       37.038       15.108        0.166      334.878        5.142      853.549
10/29/2013  01:32:00      -34.893       19.272        4.185       33.188       19.678       25.276     1101.462      387.217      638.893        0.187        0.106       39.861       21.139        0.281      334.847        5.090      853.554
10/29/2013  01:33:00       77.976        3.621        6.915       56.901       46.252       37.002     3237.728     2139.244     1369.123        0.644        0.337       78.060       29.509        0.143      334.827        5.056      853.563
10/29/2013  01:34:00       -4.731       63.554       41.114      130.951       92.191       72.750    17148.134     8499.119     5292.588        1.834        1.547       63.730       32.011        0.252      334.825        5.051      853.557
10/29/2013  01:35:00     -110.680      180.760        5.339      104.288      176.769       70.157    10876.074    31247.237     4921.976        4.599        2.352      211.953       77.999        0.135      334.704        4.848      853.602
10/29/2013  01:36:00      -81.808      120.309      -10.310       56.912       80.870       43.153     3238.954     6539.987     1862.197        1.646        0.582      145.489       42.395        0.085      334.690        4.827      853.591
10/29/2013  01:37:00      -98.757       67.046       -1.616       98.523       53.340       44.010     9706.840     2845.171     1936.863        1.437        0.724      119.365       42.215        0.125      334.693        4.831      853.614
10/29/2013  01:38:00     -178.115      143.791      -38.555       89.986       56.561       44.086     8097.447     3199.203     1943.590        3.356        0.662      228.912       36.797        0.026      334.613        4.697      853.630
10/29/2013  01:39:00      -34.847      133.943        1.659       56.864       71.744       43.286     3233.526     5147.179     1873.657        1.470        0.513      138.401       43.293        0.098      334.717        4.872      853.640
10/29/2013  01:40:00     -109.110      197.718      -12.107       71.801      108.943       60.451     5155.431    11868.640     3654.310        3.591        1.034      225.826       45.000        0.040      334.659        4.774      853.644
10/29/2013  01:41:00     -119.731      313.272      -35.991      100.071      129.381       59.619    10014.260    16739.440     3554.442        7.203        1.515      335.373       58.412        0.030      334.633        4.729      853.642
10/29/2013  01:42:00     -115.424      210.719      -25.765       95.014      120.054       61.241     9027.569    14412.881     3750.506        4.279        1.360      240.261       51.923        0.047      334.677        4.803      853.629
10/29/2013  01:43:00      -92.357      199.225      -19.085       68.966       99.218       47.917     4756.317     9844.277     2296.058        3.274        0.845      219.592       44.780        0.042      334.677        4.805      853.582
10/29/2013  01:44:00     -123.284      293.997      -26.627      134.231      141.591       79.251    18017.865    20048.051     6280.734        7.334        2.217      318.799       89.929        0.080      334.649        4.756      853.603
10/29/2013  01:45:00     -124.580      231.928      -25.602       94.063      129.171       57.764     8847.806    16685.058     3336.651        4.941        1.443      263.270       54.241        0.042      334.627        4.720      853.643
10/29/2013  01:46:00     -185.919      272.607      -43.616       90.723      122.057       57.636     8230.642    14897.804     3321.950        6.861        1.323      329.971       64.347        0.038      334.607        4.686      853.680
10/29/2013  01:47:00     -121.762      210.172      -24.877       77.742      103.206       54.666     6043.841    10651.418     2988.325        3.965        0.984      242.896       56.141        0.053      334.615        4.698      853.677
10/29/2013  01:48:00     -129.273      203.790      -19.881      102.072      134.709       55.440    10418.730    18146.643     3073.620        4.513        1.582      241.334       49.350        0.042      334.613        4.696      853.684
10/29/2013  01:49:00     -186.976      216.734      -32.550      150.053      135.480       74.090    22515.914    18354.797     5489.331        6.467        2.318      286.241       90.750        0.101      334.540        4.577      853.670
10/29/2013  01:50:00      -46.675      213.402      -18.507       72.966      162.882       52.156     5324.064    26530.422     2720.300        4.131        1.729      218.447       37.125        0.029      334.568        4.624      853.704
10/29/2013  01:51:00      -93.722      279.252      -25.033      148.637      151.395       66.511    22092.962    22920.450     4423.768        6.841        2.472      294.559       79.231        0.072      334.523        4.550      853.704
10/29/2013  01:52:00     -173.430      417.348      -49.338      104.122      146.013       71.751    10841.294    21319.655     5148.182       12.199        1.865      451.949       64.015        0.020      334.441        4.413      853.691
10/29/2013  01:53:00      -97.271      293.909      -21.215       81.657      120.052       63.795     6667.842    14412.547     4069.810        6.072        1.258      309.587       72.440        0.055      334.450        4.427      853.728
10/29/2013  01:54:00     -182.449      278.794      -35.541      120.380      142.746       60.290    14491.257    20376.348     3634.871        7.538        1.925      333.187       72.152        0.047      334.391        4.329      853.730
10/29/2013  01:55:00      -58.273      430.506      -43.209      115.448      164.567       79.010    13328.257    27082.455     6242.566       11.862        2.333      434.432       73.206        0.028      334.201        4.014      853.722
10/29/2013  01:56:00     -127.189      413.151      -37.163      137.035      143.885       69.166    18778.695    20703.032     4783.913       11.625        2.213      432.286       73.703        0.029      334.074        3.803      853.721
10/29/2013  01:57:00     -154.042      293.960      -38.837       99.510       88.977       64.707     9902.324     7916.854     4187.009        6.682        1.100      331.876       63.768        0.037      334.028        3.728      853.721
10/29/2013  01:58:00     -147.365      314.943      -38.695      100.656      116.398       60.695    10131.557    13548.450     3683.936        7.488        1.368      347.714       60.199        0.030      333.965        3.623      853.711
10/29/2013  01:59:00     -147.338      438.037      -45.603      122.919      186.434       68.540    15109.002    34757.702     4697.775       13.511        2.728      462.152       87.262        0.036      333.966        3.625      853.724
10/29/2013  02:00:00     -135.281      340.988      -27.871      144.685      127.629       82.168    20933.779    16289.145     6751.505        8.966        2.199      366.843       85.262        0.054      333.967        3.625      853.697
10/29/2013  02:01:00     -113.483      421.542      -40.929      108.335      135.334       74.319    11736.415    18315.363     5523.309       11.391        1.779      436.550       70.966        0.026      333.915        3.538      853.655
10/29/2013  02:02:00      -84.271      323.701      -34.259      120.801      121.642       68.473    14592.846    14796.688     4688.506        7.356        1.704      334.491       70.555        0.044      333.946        3.590      853.620
10/29/2013  02:03:00     -134.737      361.027      -33.508      108.594      185.400       68.479    11792.635    34373.278     4689.407       10.023        2.543      385.350       72.922        0.036      333.896        3.508      853.657
10/29/2013  02:04:00     -127.633      279.502      -30.467       96.437      165.915       69.111     9300.069    27527.705     4776.292        6.847        2.080      307.265       71.844        0.055      333.899        3.514      853.702
10/29/2013  02:05:00     -162.331      322.370      -43.386       96.726      138.453       65.474     9355.991    19169.363     4286.858        8.248        1.641      360.935       61.793        0.029      333.870        3.466      853.700
10/29/2013  02:06:00      -89.210      295.639      -22.402       79.669      106.541       57.239     6347.174    11350.971     3276.338        5.842        1.049      308.805       61.692        0.040      333.873        3.470      853.687
10/29/2013  02:07:00      -50.544      240.543       -9.742       98.653      191.733       78.563     9732.453    36761.424     6172.112        5.658        2.633      245.796       96.893        0.155      333.911        3.534      853.690
10/29/2013  02:08:00      -80.627      202.000      -21.304       75.467      141.625       51.542     5695.268    20057.643     2656.611        3.808        1.420      217.496       56.899        0.068      333.867        3.461      853.695
10/29/2013  02:09:00     -158.312      209.702      -35.988       94.551       88.198       50.620     8939.892     7778.957     2562.396        4.480        0.964      262.751       56.901        0.047      333.825        3.390      853.688
10/29/2013  02:10:00      -87.472      149.267      -12.145       90.774      115.712       52.405     8239.960    13389.255     2746.311        2.722        1.219      173.008       60.897        0.124      333.866        3.460      853.687
10/29/2013  02:11:00     -157.124      201.676      -33.081      103.438       94.407       54.516    10699.487     8912.662     2972.033        4.452        1.129      255.658       67.744        0.070      333.810        3.365      853.687
10/29/2013  02:12:00     -146.861      184.332      -21.239       91.965       81.200       58.463     8457.560     6593.501     3417.933        3.723        0.923      235.683       45.874        0.038      333.848        3.428      853.707
10/29/2013  02:13:00      -69.554      145.483      -15.705       77.976       78.418       53.314     6080.311     6149.351     2842.395        2.066        0.754      161.255       48.585        0.091      333.856        3.443      853.698
10/29/2013  02:14:00      -85.612      144.197      -20.932       70.283      111.325       45.105     4939.705    12393.339     2034.494        2.396        0.968      167.697       35.537        0.045      333.896        3.511      853.709
10/29/2013  02:15:00     -122.345      311.020      -33.055       86.753      104.400       59.976     7526.085    10899.301     3597.161        6.740        1.101      334.218       58.119        0.030      333.822        3.384      853.698
10/29/2013  02:16:00     -120.409      227.883      -18.144       80.223      159.996       52.729     6435.796    25598.751     2780.364        5.078        1.741      257.738       64.123        0.062      333.835        3.408      853.709
10/29/2013  02:17:00      -61.300      147.173       -9.034       55.398      151.838       47.583     3068.964    23054.684     2264.101        2.694        1.419      159.429       58.375        0.134      333.882        3.486      853.715
10/29/2013  02:18:00     -122.725      230.277      -21.942       84.006      106.668       48.354     7057.087    11378.121     2338.097        4.467        1.039      260.939       44.541        0.029      333.845        3.424      853.693
10/29/2013  02:19:00      -87.363      156.208      -17.078       73.424      106.234       47.012     5391.020    11285.560     2210.150        2.560        0.944      178.978       48.699        0.074      333.829        3.396      853.705
10/29/2013  02:20:00      -80.117      241.164      -26.894       80.974      101.437       55.361     6556.844    10289.562     3064.825        4.260        0.996      254.123       53.253        0.044      333.837        3.409      853.712
10/29/2013  02:21:00     -119.003       87.030      -19.784       84.576       78.281       45.923     7153.125     6127.906     2108.877        1.876        0.769      147.431       42.684        0.084      333.865        3.459      853.738
10/29/2013  02:22:00     -210.157      168.049      -39.353       95.760      106.155       53.046     9169.905    11268.967     2813.830        4.860        1.163      269.084       60.579        0.051      333.806        3.358      853.760
10/29/2013  02:23:00     -145.068      144.440      -13.688      108.687       81.579       62.319    11812.932     6655.134     3883.653        3.222        1.118      204.713       64.587        0.100      333.824        3.390      853.753
10/29/2013  02:24:00     -140.822      176.688      -32.783       84.630       98.742       51.171     7162.233     9750.062     2618.469        3.582        0.977      225.941       43.435        0.037      333.826        3.391      853.736
10/29/2013  02:25:00     -125.155      172.528      -25.288      104.742      107.241       54.640    10970.966    11500.650     2985.556        3.576        1.273      213.143       50.739        0.057      333.851        3.435      853.721
10/29/2013  02:26:00     -160.843      123.986      -40.376       64.956      108.866       41.328     4219.332    11851.900     1708.016        3.032        0.889      203.084       45.031        0.049      333.844        3.422      853.753
10/29/2013  02:27:00     -132.341       79.377      -24.682       63.409       73.214       46.827     4020.752     5360.240     2192.808        1.800        0.579      154.320       41.750        0.073      333.890        3.500      853.771
10/29/2013  02:28:00      -83.666       76.339      -33.319       69.498       96.226       37.755     4830.017     9259.375     1425.406        1.472        0.776      113.259       31.514        0.077      333.860        3.452      853.768
10/29/2013  02:29:00      -85.244      -42.753       15.255       97.802       34.035       36.201     9565.298     1158.372     1310.501        1.068        0.602       95.365       48.988        0.264      333.845        3.428      853.748
10/29/2013  02:30:00     -116.854      -15.249       -5.263       53.902       42.135       27.136     2905.405     1775.331      736.386        0.967        0.271      117.845       24.080        0.042      333.821        3.384      853.804
10/29/2013  02:31:00     -143.755       -6.721       -0.559       76.990       53.467       34.416     5927.456     2858.714     1184.436        1.534        0.499      143.912       33.093        0.053      333.825        3.392      853.841
10/29/2013  02:32:00     -119.195       -8.955      -22.285       51.791       57.730       39.810     2682.308     3332.808     1584.801        1.119        0.380      119.531       18.242        0.023      333.824        3.391      853.858
10/29/2013  02:33:00      -53.879      -21.366       11.221       78.920       60.675       34.311     6228.354     3681.458     1177.220        0.728        0.554       57.960       26.971        0.217      333.826        3.396      853.862
10/29/2013  02:34:00     -120.797      -64.146        2.568       88.701       65.483       39.641     7867.926     4288.085     1571.403        1.622        0.686      136.772       43.076        0.099      333.804        3.358      853.861
10/29/2013  02:35:00      -75.827      -14.597       10.502       60.521       48.937       24.392     3662.821     2394.866      594.954        0.636        0.333       77.219       25.049        0.105      333.831        3.404      853.906
10/29/2013  02:36:00      -98.977       40.243      -14.208       79.199       48.037       34.123     6272.408     2307.524     1164.359        1.068        0.487      106.846       33.310        0.097      333.806        3.360      853.928
10/29/2013  02:37:00      -37.944      221.598      -28.794       63.088       97.579       42.497     3980.149     9521.605     1806.007        3.334        0.765      224.823       42.085        0.035      333.851        3.433      853.891
10/29/2013  02:38:00     -136.602      275.346      -42.007       80.349      100.964       49.395     6455.978    10193.657     2439.831        5.766        0.954      307.369       48.096        0.024      333.843        3.419      853.879
10/29/2013  02:39:00      -71.776       96.974       -5.790       51.463       55.229       29.807     2648.400     3050.266      888.458        1.059        0.329      120.648       25.652        0.045      333.902        3.523      853.880
10/29/2013  02:40:00      -98.973       91.620      -13.158       60.209       49.730       31.202     3625.133     2473.098      973.561        1.272        0.354      134.870       26.748        0.039      333.824        3.389      853.881
10/29/2013  02:41:00     -135.248       72.303      -21.593       55.899       76.063       22.052     3124.657     5785.581      486.291        1.669        0.470      153.362        8.524        0.003      333.855        3.443      853.891
10/29/2013  02:42:00     -166.154      154.278      -33.509       86.977       89.477       47.409     7564.959     8006.126     2247.618        3.517        0.891      226.735       52.547        0.054      333.843        3.421      853.886
10/29/2013  02:43:00     -126.217      172.837      -23.324       76.668       92.608       42.949     5877.928     8576.258     1844.606        3.132        0.815      214.017       38.414        0.032      333.849        3.430      853.896
10/29/2013  02:44:00      -79.720      208.243      -23.773       83.289       74.166       44.253     6937.099     5500.606     1958.337        3.234        0.720      222.981       37.707        0.029      333.875        3.474      853.871
10/29/2013  02:45:00      -69.215      305.554      -29.853       44.421       73.073       31.028     1973.215     5339.613      962.755        5.366        0.414      313.295       29.421        0.009      333.876        3.475      853.831
10/29/2013  02:46:00      -12.877      187.669       -8.211       81.904      130.288       61.092     6708.205    16974.876     3732.194        3.143        1.371      188.110       72.700        0.149      333.856        3.442      853.796
10/29/2013  02:47:00      -42.976      171.291      -23.638       53.212      121.405       40.200     2831.549    14739.241     1616.044        2.546        0.959      176.599       48.710        0.076      333.887        3.495      853.832
10/29/2013  02:48:00      -96.455      273.047      -32.096       62.656      114.846       42.301     3925.770    13189.687     1789.379        5.189        0.945      289.583       45.887        0.025      333.838        3.411      853.836
10/29/2013  02:49:00      -16.417      201.522      -10.871       45.011       83.334       36.598     2026.016     6944.480     1339.399        2.565        0.515      202.190       40.080        0.039      333.859        3.448      853.842
10/29/2013  02:50:00      -68.217      242.015      -11.700       68.591      110.873       43.652     4704.657    12292.738     1905.464        4.113        0.945      251.445       48.728        0.038      333.829        3.397      853.830
10/29/2013  02:51:00      -33.273      226.611      -18.333       41.031       69.076       33.041     1683.539     4771.559     1091.727        3.017        0.377      229.040       32.929        0.021      333.842        3.418      853.801
10/29/2013  02:52:00      -26.402      253.393      -21.532       39.728       60.912       36.992     1578.337     3710.311     1368.373        3.601        0.333      254.765       29.975        0.014      333.797        3.343      853.767
10/29/2013  02:53:00      -87.604      291.043      -33.774       65.118       81.895       36.750     4240.355     6706.717     1350.531        5.291        0.615      303.942       27.219        0.008      333.817        3.375      853.774
10/29/2013  02:54:00      -97.237      236.500      -26.078       63.951      119.116       48.757     4089.706    14188.613     2377.209        4.336        1.033      255.709       54.973        0.046      333.854        3.439      853.809
10/29/2013  02:55:00     -101.385      259.760      -26.171       59.460       66.668       38.797     3535.497     4444.645     1505.176        4.396        0.474      278.845       36.105        0.017      333.855        3.440      853.837
10/29/2013  02:56:00      -33.663      128.684        1.137       43.702       57.947       36.669     1909.845     3357.876     1344.632        1.215        0.331      133.014       30.607        0.053      333.975        3.640      853.825
10/29/2013  02:57:00      -51.710      148.686      -14.424       50.298       80.002       32.645     2529.848     6400.254     1065.712        1.749        0.500      157.421       36.931        0.055      333.985        3.657      853.795
10/29/2013  02:58:00      -90.163      170.766      -16.188       63.603       80.491       41.283     4045.367     6478.755     1704.269        2.489        0.611      193.107       40.023        0.043      333.962        3.618      853.804
10/29/2013  02:59:00     -100.479      139.257      -27.222       48.428       64.953       31.581     2345.299     4218.870      997.370        1.889        0.378      171.723       24.695        0.021      333.971        3.634      853.829
10/29/2013  03:00:00     -101.543      154.320      -24.099       60.455       58.549       34.242     3654.862     3427.997     1172.498        2.148        0.413      184.732       34.096        0.034      334.025        3.723      853.862
10/29/2013  03:01:00      -10.939      159.949      -12.532       38.879       75.717       32.126     1511.538     5733.119     1032.101        1.707        0.414      160.322       36.870        0.053      334.031        3.734      853.834
10/29/2013  03:02:00      -56.082      224.523      -25.215       40.783       98.126       30.011     1663.255     9628.765      900.659        3.319        0.610      231.421       34.122        0.022      333.943        3.585      853.817
10/29/2013  03:03:00      -99.191      293.452      -31.207       75.728       80.949       38.172     5734.659     6552.690     1457.121        5.533        0.687      309.762       26.255        0.007      333.933        3.569      853.815
10/29/2013  03:04:00     -117.213      324.983      -40.863       61.484       88.723       50.219     3780.231     7871.793     2521.971        6.760        0.709      345.475       46.030        0.018      333.919        3.547      853.805
10/29/2013  03:05:00      -39.297      301.109      -36.206       53.729       88.138       35.107     2886.765     7768.391     1232.515        5.270        0.594      303.663       32.086        0.011      333.916        3.541      853.780
10/29/2013  03:06:00      -62.282      295.811      -35.376       77.470      109.004       46.609     6001.551    11881.970     2172.431        5.634        1.003      302.297       51.627        0.029      333.958        3.611      853.762
10/29/2013  03:07:00      -37.270      255.165      -13.679       57.512       97.803       54.503     3307.664     9565.521     2970.549        4.126        0.792      257.873       53.633        0.043      333.931        3.567      853.735
10/29/2013  03:08:00      -78.950      232.669      -18.947       56.678      112.093       40.197     3212.401    12564.866     1615.792        3.906        0.870      245.699       38.427        0.024      334.010        3.697      853.735
10/29/2013  03:09:00     -125.010      127.933      -30.391       65.149       63.566       38.638     4244.413     4040.590     1492.904        2.135        0.489      178.870       38.395        0.046      333.965        3.624      853.757
10/29/2013  03:10:00      -92.720      188.553      -25.164       60.989       85.698       48.710     3719.598     7344.190     2372.633        2.911        0.672      210.117       35.209        0.028      334.000        3.681      853.759
10/29/2013  03:11:00      -91.210      178.317      -22.327       56.485       84.130       41.102     3190.598     7077.793     1689.374        2.628        0.598      200.291       26.509        0.018      334.008        3.693      853.726
10/29/2013  03:12:00      -64.619      260.147      -34.694       61.275       98.672       45.460     3754.603     9736.201     2066.566        4.430        0.778      268.053       52.356        0.038      333.942        3.585      853.643
10/29/2013  03:13:00      -67.323      305.927      -28.666       61.340      113.417       38.115     3762.564    12863.523     1452.717        5.851        0.904      313.247       45.278        0.021      333.928        3.562      853.586
10/29/2013  03:14:00      -78.070      140.066      -13.135       65.251       85.103       37.806     4257.734     7242.590     1429.295        1.941        0.646      160.354       35.536        0.049      333.947        3.594      853.579
10/29/2013  03:15:00      -83.596      142.765      -12.262       55.322       95.332       46.151     3060.572     9088.118     2129.903        2.090        0.714      165.439       50.869        0.095      333.929        3.565      853.578
10/29/2013  03:16:00     -117.636      185.856      -26.745       69.117       85.680       49.840     4777.140     7341.029     2484.053        3.185        0.730      219.956       39.915        0.033      333.980        3.648      853.599
10/29/2013  03:17:00      -44.647      201.542       -8.427       52.309       83.023       42.291     2736.180     6892.901     1788.496        2.705        0.571      206.428       36.535        0.031      334.024        3.721      853.593
10/29/2013  03:18:00      -55.119      109.321       -4.726       35.459       39.718       28.545     1257.331     1577.544      814.790        0.933        0.182      122.430       19.219        0.025      334.042        3.753      853.544
10/29/2013  03:19:00      -28.801      146.403       -4.492       72.564       97.921       54.005     5265.480     9588.580     2916.576        2.002        0.889      149.209       58.375        0.153      334.036        3.742      853.528
10/29/2013  03:20:00      -43.384      198.277      -32.593       80.841       69.386       38.013     6535.212     4814.381     1445.008        2.752        0.640      202.968       39.677        0.038      333.992        3.667      853.501
10/29/2013  03:21:00      -93.170      102.252      -17.666       56.211       48.946       34.965     3159.653     2395.732     1222.569        1.311        0.339      138.334       30.846        0.050      334.061        3.784      853.534
10/29/2013  03:22:00      -89.584       42.493       -4.562       70.733       57.814       35.156     5003.218     3342.493     1235.951        0.972        0.479       99.151       39.146        0.156      334.097        3.844      853.560
10/29/2013  03:23:00     -107.134      184.742      -28.244       55.973       77.091       32.460     3133.015     5943.057     1053.670        2.827        0.506      213.559       28.674        0.018      334.089        3.828      853.534
10/29/2013  03:24:00       -9.362      177.058      -20.774       48.192       95.753       35.433     2322.452     9168.715     1255.523        2.231        0.637      177.305       43.536        0.060      334.147        3.925      853.499
10/29/2013  03:25:00      -19.421      150.514      -32.009       64.038       69.767       30.143     4100.809     4867.373      908.581        1.696        0.494      151.762       19.951        0.017      334.271        4.132      853.496
10/29/2013  03:26:00     -124.249      -16.214      -13.871       38.780       43.677       16.141     1503.850     1907.703      260.521        0.978        0.184      125.303       13.076        0.011      334.212        4.035      853.507
10/29/2013  03:27:00     -104.910      -53.670       -4.978       76.945       51.453       29.766     5920.505     2647.388      886.044        1.168        0.473      117.842       41.104        0.122      334.305        4.190      853.502
10/29/2013  03:28:00      -28.670       37.038      -13.832       28.359       24.314       22.595      804.217      591.193      510.526        0.215        0.095       46.838       17.814        0.145      334.327        4.226      853.427
10/29/2013  03:29:00       12.968       64.593      -13.217       26.498       28.827       18.435      702.122      830.999      339.866        0.319        0.094       65.882       10.561        0.026      334.397        4.345      853.390
10/29/2013  03:30:00      -52.339        4.499        4.130       45.877       38.404       19.399     2104.734     1474.868      376.338        0.337        0.198       52.532       13.750        0.069      334.401        4.351      853.435
10/29/2013  03:31:00      -51.801      -46.285        5.864       55.490       41.757       28.866     3079.085     1743.610      833.224        0.526        0.283       69.467       28.906        0.173      334.447        4.426      853.509
10/29/2013  03:32:00       -9.019      -31.896       -4.317       45.993       22.045       22.678     2115.354      485.962      514.277        0.212        0.156       33.147       22.399        0.457      334.445        4.421      853.514
10/29/2013  03:33:00      -24.242      -63.960        6.546       21.709       59.775       26.632      471.275     3573.033      709.277        0.474        0.238       68.400       18.439        0.073      334.482        4.485      853.484
10/29/2013  03:34:00       36.134       54.985       69.735       74.556       49.060       48.082     5558.545     2406.917     2311.897        0.973        0.514       65.795       43.718        0.442      334.506        4.523      853.410
10/29/2013  03:35:00       44.333      -37.045       19.817       48.833       62.270       39.739     2384.657     3877.583     1579.171        0.578        0.392       57.773       35.728        0.382      334.427        4.392      853.485
10/29/2013  03:36:00      -16.004       -3.150        5.838       59.406       41.256       26.100     3529.107     1702.089      681.209        0.311        0.296       16.311       20.892        1.641      334.536        4.574      853.606
10/29/2013  03:37:00     -119.172      -21.428       -5.789       65.114       55.189       19.561     4239.864     3045.793      382.635        1.118        0.383      121.083       22.577        0.035      334.315        4.205      853.635
10/29/2013  03:38:00      -65.503       -3.800       -8.648       33.678       24.502       20.426     1134.233      600.350      417.202        0.327        0.108       65.613       12.101        0.034      334.254        4.107      853.593
10/29/2013  03:39:00       -5.928      -28.049       12.067       26.330       61.093       37.504      693.287     3732.369     1406.527        0.340        0.292       28.669       41.508        2.096      334.389        4.330      853.606
10/29/2013  03:40:00       29.421      128.521      127.686       68.663       55.996       44.491     4714.607     3135.579     1979.441        2.176        0.491      131.845       44.347        0.113      334.273        4.135      853.505
10/29/2013  03:41:00        7.167      -31.754       62.787       63.902      112.391       79.922     4083.501    12631.720     6387.573        1.405        1.155       32.553       90.957        7.807      334.331        4.232      853.497
10/29/2013  03:42:00      103.147     -103.215      -13.073       50.128       61.765       31.129     2512.802     3814.964      968.990        1.438        0.365      145.920       32.132        0.048      334.146        3.926      853.584
10/29/2013  03:43:00       49.590       44.863       67.227       50.811       37.313       29.986     2581.727     1392.296      899.139        0.693        0.244       66.872       28.978        0.188      334.198        4.011      853.586
10/29/2013  03:44:00       71.153      113.299      105.274       63.649       62.985       51.210     4051.243     3967.071     2622.422        1.981        0.532      133.788       43.059        0.104      334.160        3.948      853.504
10/29/2013  03:45:00       13.053       14.287       40.183       27.427       20.832       19.820      752.215      433.982      392.816        0.178        0.079       19.352       17.725        0.839      334.175        3.974      853.558
10/29/2013  03:46:00       34.587       11.104       11.543       57.642       35.630       27.688     3322.589     1269.475      766.643        0.340        0.268       36.326       16.884        0.216      334.069        3.798      853.619
10/29/2013  03:47:00       54.344       -2.344       19.150       49.960       28.563       27.324     2496.029      815.828      746.575        0.369        0.203       54.395       16.844        0.096      334.078        3.815      853.646
10/29/2013  03:48:00      103.771       66.220       34.966       78.084       49.786       41.114     6097.139     2478.601     1690.327        1.332        0.513      123.099       42.763        0.121      334.060        3.783      853.588
10/29/2013  03:49:00      145.947       71.392       31.068       91.540       57.486       44.954     8379.545     3304.591     2020.886        2.053        0.685      162.473       43.494        0.072      334.104        3.855      853.550
10/29/2013  03:50:00       70.838       37.529        9.889       33.234       34.494       27.208     1104.519     1189.848      740.279        0.478        0.152       80.165       10.088        0.016      334.056        3.778      853.630
10/29/2013  03:51:00       84.709       77.854       26.048       48.419       25.102       44.569     2344.361      630.092     1986.390        0.944        0.248      115.052       41.064        0.127      334.074        3.806      853.603
10/29/2013  03:52:00       55.906      -11.544       17.694       51.161       50.245       32.512     2617.454     2524.548     1057.042        0.488        0.310       57.086       23.115        0.164      334.095        3.841      853.617
10/29/2013  03:53:00       55.979     -104.452        5.494       44.236       78.484       37.776     1956.801     6159.707     1427.030        1.181        0.477      118.507       39.756        0.113      334.145        3.922      853.635
10/29/2013  03:54:00       30.475      -68.754       13.566       59.312       59.718       30.538     3517.972     3566.243      932.593        0.693        0.401       75.205       30.972        0.170      334.244        4.088      853.715
10/29/2013  03:55:00      -40.345       -2.022       13.112       44.235       26.932       22.713     1956.698      725.325      515.866        0.250        0.160       40.396       18.190        0.203      334.252        4.103      853.821
10/29/2013  03:56:00       34.441       36.505       34.116       56.321       42.094       33.130     3172.059     1771.936     1097.587        0.486        0.302       50.188       21.883        0.190      334.197        4.010      853.819
10/29/2013  03:57:00      119.593      118.700       92.621       89.800       34.313       43.668     8064.015     1177.416     1906.897        2.406        0.557      168.500       50.775        0.091      334.094        3.836      853.701
10/29/2013  03:58:00       38.433      108.284      104.814       52.461       49.120       48.473     2752.188     2412.749     2349.619        1.585        0.376      114.902       42.850        0.139      334.069        3.797      853.695
10/29/2013  03:59:00       35.356       50.849       11.115       34.713       24.944       28.545     1204.994      622.195      814.804        0.330        0.132       61.933       22.727        0.135      334.025        3.725      853.786
10/29/2013  04:00:00      -17.401      114.690      -17.484       37.049       55.698       27.985     1372.632     3102.229      783.144        0.951        0.263      116.002       28.759        0.061      334.104        3.857      853.860
10/29/2013  04:01:00       30.653      141.876      -10.609       77.938      100.093       54.918     6074.278    10018.534     3016.010        2.014        0.955      145.150       60.980        0.176      334.159        3.947      853.828
10/29/2013  04:02:00      -40.756      115.841       -8.889       68.381       40.841       35.994     4676.012     1667.968     1295.535        1.140        0.382      122.801       36.675        0.089      334.242        4.084      853.772
10/29/2013  04:03:00        9.642      177.214      -23.212       46.541       65.627       33.237     2166.107     4306.903     1104.728        1.981        0.379      177.476       33.609        0.036      334.183        3.986      853.791
10/29/2013  04:04:00      -32.925      111.440      -17.478       44.574       67.063       31.901     1986.825     4497.481     1017.665        1.065        0.375      116.202       36.066        0.096      334.248        4.096      853.793
10/29/2013  04:05:00      -41.279      255.997      -29.774       38.745       67.247       31.306     1501.155     4522.196      980.036        3.756        0.350      259.304       26.811        0.011      334.214        4.035      853.783
10/29/2013  04:06:00      -45.521      226.594      -25.536       50.867       41.896       34.391     2587.453     1755.239     1182.761        2.980        0.276      231.121       29.568        0.016      334.171        3.963      853.814
10/29/2013  04:07:00      -36.437      189.074      -20.212       38.403       64.307       28.373     1474.775     4135.433      805.012        2.195        0.321      192.553       28.463        0.022      334.278        4.141      853.796
10/29/2013  04:08:00      -44.841      113.498      -14.119       44.054       72.719       28.746     1940.723     5287.989      826.348        1.157        0.403      122.034       34.274        0.079      334.317        4.211      853.808
10/29/2013  04:09:00      -89.128       15.273      -11.409       39.870       69.288       25.291     1589.584     4800.886      639.639        0.767        0.352       90.427       24.920        0.076      334.201        4.017      853.892
10/29/2013  04:10:00     -112.230       55.920      -22.201       38.978       80.043       40.715     1519.268     6406.956     1657.729        1.290        0.479      125.390       37.747        0.091      334.152        3.935      853.903
10/29/2013  04:11:00      -74.027      134.646      -32.966       48.578       72.772       30.108     2359.832     5295.794      906.471        1.663        0.428      153.654       21.925        0.020      334.138        3.911      853.837
10/29/2013  04:12:00     -152.027       64.658      -37.581       82.008       67.870       50.390     6725.333     4606.390     2539.176        2.129        0.694      165.206       34.259        0.043      334.154        3.937      853.874
10/29/2013  04:13:00      -87.263       70.487       -3.705       55.067       60.990       43.908     3032.426     3719.807     1927.893        1.064        0.434      112.175       29.691        0.070      334.181        3.984      853.909
10/29/2013  04:14:00     -239.242      105.075      -31.054       69.301       72.898       40.924     4802.592     5314.137     1674.754        4.051        0.590      261.299       40.833        0.024      334.097        3.841      853.911
10/29/2013  04:15:00     -137.956      100.081      -28.785       65.339       74.160       45.108     4269.153     5499.644     2034.770        2.084        0.590      170.434       33.123        0.038      334.066        3.791      853.853
10/29/2013  04:16:00     -133.691      132.324      -26.724       67.044       67.222       32.252     4494.853     4518.827     1040.170        2.307        0.503      188.104       37.937        0.041      334.100        3.846      853.886
10/29/2013  04:17:00      -87.373      166.078      -23.142       64.356       84.014       35.878     4141.754     7058.434     1287.210        2.412        0.624      187.659       35.048        0.035      334.117        3.875      853.926
10/29/2013  04:18:00      -43.218      139.263        5.953       62.208       69.964       49.634     3869.774     4895.022     2463.553        1.626        0.561      145.815       59.513        0.167      334.173        3.968      853.958
10/29/2013  04:19:00      -41.553      264.925      -27.759       65.393      120.519       53.344     4276.298    14524.930     2845.563        4.716        1.082      268.164       55.769        0.043      334.155        3.937      853.973
10/29/2013  04:20:00      -46.197      196.877      -12.573       85.987      108.311       56.189     7393.836    11731.267     3157.242        3.166        1.114      202.224       52.627        0.068      334.188        3.991      854.018
10/29/2013  04:21:00      -57.117      274.450      -30.928      101.613       88.735       44.410    10325.294     7873.932     1972.235        4.985        1.009      280.330       44.156        0.025      334.217        4.040      854.018
10/29/2013  04:22:00      -27.508      234.739       -8.448       68.733      122.907       50.297     4724.285    15106.127     2529.803        3.914        1.118      236.345       60.520        0.066      334.218        4.041      853.999
10/29/2013  04:23:00       52.205      252.033      -21.464       83.332      114.415       65.326     6944.217    13090.701     4267.502        4.550        1.215      257.383       61.782        0.058      334.149        3.927      854.060
10/29/2013  04:24:00       50.637      245.139       -7.173       96.685      131.334       75.236     9347.944    17248.560     5660.492        4.748        1.613      250.314       76.760        0.094      334.144        3.917      854.067
10/29/2013  04:25:00       76.049       54.171       11.332       70.591       67.344       34.160     4983.065     4535.247     1166.899        0.976        0.534       93.370       21.592        0.053      334.119        3.881      854.065
10/29/2013  04:26:00       -0.351       16.053        6.696       27.416       27.008       23.994      751.640      729.459      575.717        0.118        0.103       16.057       20.166        1.577      334.116        3.876      854.078
10/29/2013  04:27:00        6.703      -43.234       15.182       36.174       55.823       29.331     1308.522     3116.247      860.326        0.371        0.264       43.750       32.508        0.552      334.272        4.137      854.106
10/29/2013  04:28:00       11.528      -23.366       19.393       24.574       59.939       30.265      603.870     3592.687      915.995        0.308        0.256       26.055       31.462        1.458      334.315        4.208      854.145
10/29/2013  04:29:00       22.572        4.029       25.091       30.928       38.251       38.520      956.524     1463.112     1483.804        0.253        0.195       22.929       17.069        0.554      334.241        4.082      854.159
10/29/2013  04:30:00       40.974       23.996       87.556       60.664       71.759       48.224     3680.083     5149.368     2325.522        1.054        0.558       47.484       47.846        1.015      334.019        3.715      854.095
10/29/2013  04:31:00       73.723       24.488       58.688       56.402       49.309       38.757     3181.234     2431.361     1502.136        0.830        0.356       77.683       34.907        0.202      333.983        3.656      854.057
10/29/2013  04:32:00       57.491       23.385       53.544       46.767       57.780       36.035     2187.110     3338.481     1298.510        0.677        0.341       62.066       35.925        0.335      333.977        3.647      854.085
10/29/2013  04:33:00       48.420       -2.191       29.861       43.416       42.808       36.854     1884.960     1832.533     1358.251        0.416        0.254       48.470       33.018        0.464      333.976        3.645      854.058
10/29/2013  04:34:00       74.489       45.407       63.644       67.148       72.569       46.133     4508.889     5266.332     2128.253        1.178        0.595       87.238       38.496        0.195      333.954        3.607      854.041
10/29/2013  04:35:00       97.237       76.056       63.121       94.655       56.967       63.459     8959.658     3245.225     4027.054        1.773        0.812      123.449       59.835        0.235      333.879        3.482      854.023
10/29/2013  04:36:00       80.945       -3.762       17.050       62.541       46.109       33.097     3911.349     2126.044     1095.438        0.699        0.357       81.032       28.426        0.123      333.869        3.467      853.989
10/29/2013  04:37:00       53.545      -39.280        8.529       42.322       40.121       31.557     1791.183     1609.704      995.857        0.444        0.220       66.408       10.370        0.024      333.932        3.572      854.013
10/29/2013  04:38:00       33.329      -73.605       -6.898       26.964       40.500       21.478      727.074     1640.265      461.317        0.470        0.141       80.799       19.962        0.061      334.162        3.954      854.023
10/29/2013  04:39:00       57.984      -11.209       16.555       39.719       68.229       42.086     1577.600     4655.150     1771.242        0.588        0.400       59.057       45.662        0.598      333.993        3.672      853.942
10/29/2013  04:40:00       71.545        0.625       22.370       45.197       42.054       37.115     2042.779     1768.529     1377.526        0.540        0.259       71.548       22.841        0.102      333.799        3.352      853.852
10/29/2013  04:41:00       14.478       -7.264       13.980       37.105       44.051       33.883     1376.811     1940.508     1148.058        0.246        0.223       16.198       19.879        1.506      333.980        3.651      853.823
10/29/2013  04:42:00      -55.928       21.367        3.924       34.085       27.073       25.912     1161.762      732.961      671.435        0.308        0.128       59.871       21.999        0.135      333.978        3.647      853.849
10/29/2013  04:43:00      -19.329       21.892       14.248       40.961       33.234       22.865     1677.773     1104.527      522.813        0.218        0.165       29.204       22.086        0.572      333.895        3.511      853.856
10/29/2013  04:44:00      -11.639       62.471      -11.919       35.806       30.059       17.925     1282.089      903.550      321.319        0.334        0.125       63.546       10.167        0.026      333.823        3.391      853.864
10/29/2013  04:45:00       17.217       58.130       -3.179       34.307       45.711       27.557     1176.976     2089.493      759.377        0.386        0.201       60.626       26.577        0.192      333.816        3.377      853.877
10/29/2013  04:46:00       18.469       10.695        7.540       35.587       24.565       15.403     1266.427      603.424      237.261        0.131        0.105       21.343        5.265        0.061      333.808        3.367      853.924
10/29/2013  04:47:00      102.461       51.824        9.913       34.502       28.433       23.622     1190.414      808.415      557.979        0.792        0.128      114.821       22.784        0.039      333.794        3.340      853.947
10/29/2013  04:48:00       60.464       56.316       38.346       33.162       22.971       30.342     1099.703      527.660      920.618        0.542        0.127       82.627       19.737        0.057      333.824        3.391      853.925
10/29/2013  04:49:00       33.786       61.895       59.112       39.872       34.114       25.449     1589.760     1163.796      647.671        0.593        0.170       70.516       19.103        0.073      333.890        3.501      853.906
10/29/2013  04:50:00       23.152       47.197       70.093       46.850       36.674       29.780     2194.917     1344.969      886.841        0.605        0.221       52.570       24.056        0.209      333.895        3.510      853.887
10/29/2013  04:51:00       19.389       33.353       62.346       36.634       53.759       41.882     1342.030     2889.981     1754.092        0.568        0.299       38.580       40.323        1.092      333.941        3.587      853.907
10/29/2013  04:52:00       32.710        5.462       46.804       36.567       36.844       31.296     1337.114     1357.460      979.427        0.348        0.184       33.163       25.372        0.585      333.992        3.671      853.975
10/29/2013  04:53:00       42.420       44.486       56.830       43.880       53.335       31.026     1925.470     2844.637      962.624        0.637        0.287       61.469       18.076        0.086      333.979        3.648      854.045
10/29/2013  04:54:00       47.558       26.477       51.086       45.482       40.345       35.291     2068.656     1627.742     1245.420        0.526        0.247       54.432       25.344        0.217      333.919        3.551      854.065
10/29/2013  04:55:00       58.390       45.947       42.531       44.712       40.186       33.395     1999.131     1614.893     1115.236        0.603        0.236       74.300       31.036        0.174      333.907        3.531      854.067
10/29/2013  04:56:00       64.522       70.376       55.341       44.569       33.679       38.553     1986.361     1134.243     1486.371        0.839        0.230       95.477       21.652        0.051      333.883        3.490      854.076
10/29/2013  04:57:00       39.764       77.728       79.828       40.493       43.604       26.348     1639.646     1901.337      694.195        0.911        0.212       87.309       23.059        0.070      333.873        3.475      854.072
10/29/2013  04:58:00       -1.564       14.117       29.493       30.924       27.506       24.867      956.268      756.595      618.380        0.170        0.117       14.203       20.987        2.183      333.908        3.532      854.084
10/29/2013  04:59:00       89.341      -73.187       10.360       47.334       59.306       32.035     2240.520     3517.233     1026.210        1.011        0.339      115.491       24.989        0.047      333.877        3.481      854.104
10/29/2013  05:00:00       80.099      -28.045       18.450       55.556       38.098       30.131     3086.429     1451.468      907.867        0.649        0.272       84.866       25.325        0.089      333.876        3.478      854.136
10/29/2013  05:01:00       20.724       79.879       90.185       36.759       58.330       45.843     1351.259     3402.359     2101.551        1.090        0.343       82.523       38.548        0.218      333.913        3.541      854.157
10/29/2013  05:02:00       51.614       53.942       65.655       51.948       44.706       36.338     2698.633     1998.669     1320.416        0.795        0.301       74.657       30.712        0.169      333.900        3.519      854.189
10/29/2013  05:03:00       11.476       45.916       73.834       37.970       56.692       34.746     1441.738     3214.015     1207.260        0.678        0.293       47.329       39.584        0.700      333.913        3.540      854.203
10/29/2013  05:04:00       96.603       52.422       60.737       66.605       39.195       45.202     4436.231     1536.226     2043.182        1.189        0.401      109.910       36.042        0.108      333.833        3.407      854.233
10/29/2013  05:05:00      101.267       61.563       57.449       68.788       58.813       62.643     4731.813     3458.924     3924.203        1.473        0.606      118.512       47.014        0.157      333.790        3.334      854.257
10/29/2013  05:06:00       96.838       72.162       72.187       55.126       51.686       50.940     3038.860     2671.462     2594.878        1.405        0.415      120.768       42.107        0.122      333.797        3.346      854.266
10/29/2013  05:07:00       74.954       30.443       55.543       51.389       42.303       33.221     2640.840     1789.566     1103.614        0.758        0.277       80.900       29.630        0.134      333.809        3.367      854.285
10/29/2013  05:08:00       81.507       63.777       18.495       40.368       37.965       31.538     1629.552     1441.315      994.651        0.756        0.203      103.493       17.001        0.027      333.802        3.357      854.310
10/29/2013  05:09:00       12.026       27.490        0.895       17.213       30.078       18.923      296.275      904.710      358.078        0.123        0.078       30.005       17.957        0.358      333.853        3.439      854.353
10/29/2013  05:10:00       46.546       45.155       12.461       39.773       32.334       21.060     1581.890     1045.459      443.505        0.372        0.154       64.850       14.508        0.050      333.873        3.474      854.399
10/29/2013  05:11:00      113.020       45.249        1.450       41.175       30.480       28.720     1695.377      929.009      824.830        0.914        0.172      121.741       13.365        0.012      333.777        3.313      854.429
10/29/2013  05:12:00       44.347       25.322       42.160       40.042       21.663       22.455     1603.390      469.300      504.213        0.348        0.129       51.067       19.948        0.153      333.846        3.430      854.455
10/29/2013  05:13:00       65.027       37.610       23.987       51.643       25.140       32.905     2666.972      632.010     1082.717        0.530        0.219       75.120       35.698        0.226      333.815        3.377      854.493
10/29/2013  05:14:00      112.425       60.374       19.507       45.112       25.464       36.233     2035.098      648.440     1312.831        1.033        0.200      127.610       24.739        0.038      333.788        3.333      854.481
10/29/2013  05:15:00       92.420       28.381        3.537       31.199       27.666       29.959      973.373      765.413      897.531        0.600        0.132       96.679       12.268        0.016      333.803        3.358      854.503
10/29/2013  05:16:00       87.253       68.755       16.946       40.887       35.104       34.087     1671.727     1232.287     1161.913        0.835        0.203      111.087       24.914        0.050      333.859        3.450      854.509
10/29/2013  05:17:00        3.073       48.035       48.716       37.639       28.304       32.565     1416.710      801.118     1060.490        0.398        0.164       48.133       26.260        0.298      333.904        3.525      854.526
10/29/2013  05:18:00       40.106       42.703       19.041       34.668       23.842       28.169     1201.836      568.441      793.520        0.318        0.128       58.583       22.973        0.154      333.883        3.490      854.583
10/29/2013  05:19:00       61.092       64.796        1.252       39.091       28.964       24.477     1528.081      838.941      599.130        0.545        0.148       89.055       20.602        0.054      333.814        3.376      854.593
10/29/2013  05:20:00      102.875       72.379       12.978       25.800       23.012       28.716      665.664      529.573      824.595        0.900        0.101      125.785       20.136        0.026      333.839        3.417      854.560
10/29/2013  05:21:00        4.524       36.902       71.270       23.871       26.328       14.803      569.831      693.165      219.143        0.397        0.074       37.178       14.040        0.143      333.954        3.609      854.536
10/29/2013  05:22:00        2.159       20.625       34.938       14.453       23.724       16.064      208.898      562.806      258.043        0.134        0.051       20.738        7.523        0.132      334.014        3.709      854.556
10/29/2013  05:23:00       -4.516        4.570        4.744        9.429       10.592       12.725       88.901      112.191      161.929        0.021        0.018        6.425        6.032        0.881      333.935        3.575      854.576
10/29/2013  05:24:00      -28.758       10.264       -9.354       22.785       15.687        8.233      519.149      246.096       67.788        0.093        0.042       30.534        7.721        0.064      333.915        3.544      854.581
10/29/2013  05:25:00      -72.561       -4.452       -0.809       27.097       25.308       12.876      734.242      640.507      165.780        0.341        0.077       72.698       14.301        0.039      333.925        3.561      854.571
10/29/2013  05:26:00      -88.652       17.860       -9.918       18.170       16.369       11.610      330.135      267.940      134.803        0.450        0.037       90.433        9.528        0.011      333.932        3.572      854.557
10/29/2013  05:27:00     -126.488      -42.510      -14.164       25.152       22.635       12.356      632.599      512.342      152.675        0.965        0.065      133.440        8.302        0.004      333.948        3.598      854.542
10/29/2013  05:28:00      -71.692      -61.500       13.729       56.168       30.992       31.544     3154.794      960.482      995.014        0.711        0.256       94.456       28.109        0.089      334.008        3.696      854.545
10/29/2013  05:29:00      -96.224      -43.121       -3.537       33.803       27.568       19.477     1142.629      759.986      379.361        0.671        0.114      105.444       18.234        0.030      333.959        3.617      854.529
10/29/2013  05:30:00     -100.322       17.038       -8.261       25.901       26.281       19.376      670.845      690.679      375.446        0.608        0.087      101.758       13.166        0.017      333.918        3.549      854.517
10/29/2013  05:31:00     -139.676      -19.684      -12.974       38.027       38.702       15.612     1446.053     1497.856      243.736        1.163        0.159      141.056       16.083        0.013      333.866        3.461      854.500
10/29/2013  05:32:00      -12.817      -29.683        1.918       37.051       21.302       21.247     1372.805      453.772      451.429        0.166        0.114       32.332       23.435        0.525      333.983        3.656      854.459
10/29/2013  05:33:00       -9.116       34.234       10.400       30.636       38.382       25.615      938.544     1473.143      656.126        0.222        0.153       35.427       25.789        0.530      334.038        3.747      854.440
10/29/2013  05:34:00      -88.545       98.605      -21.746       31.653       60.746       30.666     1001.882     3690.130      940.405        1.183        0.282      132.526       33.829        0.065      333.931        3.569      854.480
10/29/2013  05:35:00        1.100       74.506        5.220       56.921       73.472       28.190     3240.050     5398.150      794.679        0.750        0.472       74.514       34.142        0.210      334.059        3.783      854.470
10/29/2013  05:36:00       56.249       81.683       -4.755       40.206       42.733       23.968     1616.547     1826.115      574.483        0.694        0.201       99.177        6.622        0.004      334.043        3.754      854.423
10/29/2013  05:37:00       -9.554        7.981      -14.663       47.477       34.164       19.576     2254.112     1167.163      383.210        0.209        0.190       12.449        8.811        0.501      334.090        3.832      854.416
10/29/2013  05:38:00      -73.041       -0.541        2.294       29.302       31.034       19.018      858.600      963.105      361.678        0.376        0.109       73.043       18.066        0.061      334.218        4.048      854.464
10/29/2013  05:39:00      -60.336       11.607      -12.816       34.530       41.698       31.278     1192.322     1738.725      978.297        0.392        0.195       61.443       19.606        0.102      334.089        3.833      854.481
10/29/2013  05:40:00      -36.443       54.884      -11.041       30.952       48.869       23.889      958.017     2388.150      570.694        0.419        0.196       65.881       31.151        0.224      334.120        3.883      854.458
10/29/2013  05:41:00       14.691       50.813        2.086       29.461       46.119       22.414      867.963     2126.955      502.373        0.315        0.175       52.894       27.979        0.280      334.198        4.013      854.457
10/29/2013  05:42:00       20.427      123.225       -6.329       46.793       60.926       35.740     2189.569     3712.015     1277.320        1.141        0.359      124.906       38.928        0.097      334.147        3.925      854.480
10/29/2013  05:43:00       38.757      174.428      -32.923       34.914       41.443       22.773     1219.014     1717.556      518.621        1.823        0.173      178.682       20.877        0.014      334.126        3.889      854.502
10/29/2013  05:44:00        9.687      110.916      -10.371       53.934       42.547       26.173     2908.874     1810.272      685.007        0.895        0.270      111.338       22.306        0.040      334.231        4.066      854.519
10/29/2013  05:45:00      -55.286      199.928      -22.893       57.275       83.370       35.341     3280.454     6950.517     1249.016        2.751        0.574      207.431       36.779        0.031      334.210        4.029      854.544
10/29/2013  05:46:00      -56.434      206.412      -23.928       64.619       70.299       32.177     4175.644     4941.968     1035.352        2.826        0.508      213.988       35.738        0.028      334.138        3.909      854.552
10/29/2013  05:47:00      -58.558      165.803      -18.014       39.410      119.117       35.070     1553.137    14188.945     1229.871        2.411        0.849      175.839       46.579        0.070      334.180        3.982      854.546
10/29/2013  05:48:00      -27.552      106.984      -11.251       38.002       42.159       27.791     1444.181     1777.422      772.321        0.816        0.200      110.475       25.209        0.052      334.309        4.197      854.539
10/29/2013  05:49:00       24.949       91.486      -10.720       39.005       41.019       28.057     1521.387     1682.534      787.216        0.655        0.200       94.827       25.280        0.071      334.110        3.866      854.533
10/29/2013  05:50:00       17.105       88.748      -18.371       22.631       47.438       18.598      512.150     2250.339      345.870        0.581        0.155       90.382       20.752        0.053      334.030        3.733      854.551
10/29/2013  05:51:00       37.955       25.302       16.965       37.516       23.229       22.503     1407.422      539.573      506.396        0.241        0.123       45.615       18.151        0.158      334.119        3.882      854.566
10/29/2013  05:52:00       62.689       69.330        2.965       49.814       38.062       30.637     2481.462     1448.689      938.598        0.681        0.243       93.470       21.114        0.051      334.068        3.795      854.568
10/29/2013  05:53:00        5.871       44.118        0.818       25.016       32.834       20.360      625.813     1078.047      414.541        0.205        0.106       44.507       11.685        0.069      334.040        3.750      854.586
10/29/2013  05:54:00       65.305       16.090       10.942       45.183       23.789       28.717     2041.489      565.898      824.687        0.404        0.172       67.258       22.243        0.109      334.043        3.755      854.619
10/29/2013  05:55:00       79.055       61.138       29.380       36.417       28.851       35.065     1326.210      832.373     1229.585        0.712        0.169       99.938       24.036        0.058      334.062        3.786      854.605
10/29/2013  05:56:00      146.721       63.861       -1.290       45.438       35.142       38.748     2064.587     1234.934     1501.412        1.520        0.240      160.016       21.894        0.019      334.059        3.781      854.578
10/29/2013  05:57:00       82.418       92.178        5.548       57.739       52.796       42.361     3333.821     2787.384     1794.460        1.162        0.396      123.651       30.881        0.062      334.045        3.758      854.588
10/29/2013  05:58:00       66.676       87.758        2.362       54.065       42.743       27.064     2922.989     1826.975      732.452        0.882        0.274      110.214       26.107        0.056      334.026        3.727      854.588
10/29/2013  05:59:00       15.063      125.584      -19.080       31.226       42.115       20.359      975.089     1773.649      414.508        0.976        0.158      126.484       13.927        0.012      334.021        3.719      854.582
10/29/2013  06:00:00      104.172      113.299        4.214       72.101       93.220       49.829     5198.525     8690.045     2482.957        2.004        0.819      153.911       48.161        0.098      334.043        3.755      854.592
10/29/2013  06:01:00       -7.202      103.041       -7.791       32.883       57.655       38.075     1081.260     3324.107     1449.720        0.829        0.293      103.293       23.009        0.050      334.064        3.790      854.586
10/29/2013  06:02:00       65.489       54.714        5.060       40.189       32.922       26.225     1615.152     1083.861      687.745        0.535        0.169       85.337       15.152        0.032      334.060        3.783      854.611
10/29/2013  06:03:00      112.089       79.402       14.803       46.570       31.524       32.493     2168.740      993.737     1055.781        1.165        0.211      137.363       15.166        0.012      334.012        3.702      854.637
10/29/2013  06:04:00      106.130       62.728       10.457       49.159       38.022       32.158     2416.642     1445.688     1034.118        1.010        0.245      123.282       20.274        0.027      334.017        3.712      854.626
10/29/2013  06:05:00       34.309       28.186        7.381       28.860       22.448       20.855      832.916      503.915      434.932        0.190        0.089       44.402       17.146        0.149      334.055        3.774      854.637
10/29/2013  06:06:00       54.735       27.320        5.557       33.001       21.550       16.416     1089.055      464.418      269.470        0.280        0.091       61.174       12.678        0.043      333.986        3.663      854.652
10/29/2013  06:07:00       21.891       33.967       -0.177       36.151       32.652       15.469     1306.899     1066.130      239.287        0.212        0.131       40.410       13.402        0.110      334.011        3.702      854.664
10/29/2013  06:08:00        3.737       59.431        1.270       25.183       49.918       20.884      634.192     2491.843      436.156        0.355        0.178       59.549       23.802        0.160      334.066        3.793      854.664
10/29/2013  06:09:00       50.051       70.692       -1.648       46.631       24.444       30.156     2174.414      597.516      909.399        0.559        0.184       86.617       20.753        0.057      334.053        3.773      854.625
10/29/2013  06:10:00      141.817       63.423        7.739       58.672       43.372       34.122     3442.440     1881.146     1164.287        1.534        0.324      155.353       24.902        0.026      334.094        3.839      854.591
10/29/2013  06:11:00       57.440       26.884       13.985       44.656       30.362       29.170     1994.194      921.873      850.882        0.399        0.188       63.420       18.528        0.085      334.091        3.835      854.583
10/29/2013  06:12:00       75.653       40.178       -5.017       25.379       25.042       19.759      644.112      627.107      390.402        0.451        0.083       85.660       14.342        0.028      334.029        3.731      854.582
10/29/2013  06:13:00       52.489       84.418       -8.654       25.344       37.734       21.717      642.326     1423.847      471.630        0.625        0.127       99.406       21.318        0.046      334.039        3.748      854.594
10/29/2013  06:14:00       81.338       26.006        8.504       39.137       50.378       26.928     1531.744     2537.931      725.094        0.608        0.240       85.394        8.883        0.011      334.062        3.788      854.613
10/29/2013  06:15:00       84.181       84.995        6.472       35.795       60.056       39.094     1281.298     3606.743     1528.321        1.038        0.321      119.627       34.931        0.085      334.055        3.773      854.624
10/29/2013  06:16:00      118.948       76.118       22.213       42.529       30.707       27.790     1808.747      942.948      772.293        1.198        0.176      141.218       21.310        0.023      334.058        3.779      854.632
10/29/2013  06:17:00      102.680       44.966       20.355       40.781       33.550       32.608     1663.066     1125.634     1063.252        0.842        0.193      112.094       24.753        0.049      334.032        3.737      854.631
10/29/2013  06:18:00       70.054       33.788        4.360       60.548       38.019       41.679     3666.006     1445.468     1737.108        0.646        0.342       77.776       22.740        0.085      334.011        3.702      854.602
10/29/2013  06:19:00       32.882       28.522        8.487       23.221       29.797       16.187      539.228      887.846      262.028        0.183        0.084       43.528       17.225        0.157      334.020        3.716      854.582
10/29/2013  06:20:00       39.549      145.462       -1.797       54.870       90.752       37.245     3010.740     8235.949     1387.170        1.768        0.632      150.743       41.831        0.077      334.023        3.720      854.572
10/29/2013  06:21:00        9.498      129.697       -6.189       56.253       63.329       41.380     3164.455     4010.522     1712.345        1.292        0.444      130.044       37.366        0.083      334.057        3.777      854.547
10/29/2013  06:22:00       26.751      141.855      -17.606       38.297       52.703       30.118     1466.629     2777.600      907.119        1.315        0.258      144.355       26.443        0.034      334.034        3.739      854.536
10/29/2013  06:23:00       46.553      171.232      -26.889       43.728       67.612       32.796     1912.120     4571.370     1075.551        1.988        0.378      177.448       25.741        0.021      334.031        3.736      854.513
10/29/2013  06:24:00      -35.546      146.606      -15.713       75.212       82.787       37.257     5656.884     6853.678     1388.091        1.845        0.695      150.854       43.043        0.081      334.097        3.843      854.496
10/29/2013  06:25:00        6.648       82.456       -3.523       68.895       73.140       40.651     4746.519     5349.533     1652.537        0.930        0.587       82.724       44.078        0.284      334.085        3.825      854.499
10/29/2013  06:26:00      -50.969      105.116       -8.160       75.406       70.404       39.929     5686.111     4956.698     1594.286        1.297        0.612      116.821       43.046        0.136      334.117        3.876      854.514
10/29/2013  06:27:00      -57.281      122.349      -24.706       58.479       62.401       32.207     3419.825     3893.899     1037.312        1.360        0.418      135.094       26.785        0.039      334.132        3.904      854.545
10/29/2013  06:28:00      -63.130       96.594      -13.056       56.239       61.103       34.952     3162.859     3733.581     1221.665        1.080        0.406      115.394       32.461        0.079      334.134        3.905      854.554
10/29/2013  06:29:00      -69.260      138.493      -16.921       42.873       38.154       30.672     1838.107     1455.724      940.789        1.425        0.212      154.846       26.236        0.029      334.187        3.993      854.543
10/29/2013  06:30:00      -23.103      122.523       -7.286       35.650       61.355       30.572     1270.894     3764.437      934.676        1.078        0.299      124.682       33.788        0.073      334.247        4.092      854.536
10/29/2013  06:31:00      -31.896       99.188      -11.800       34.265       47.070       24.436     1174.088     2215.605      597.110        0.749        0.199      104.190       16.331        0.025      334.241        4.084      854.546
10/29/2013  06:32:00      -25.682      131.774       -6.828       40.569       77.481       40.518     1645.875     6003.296     1641.700        1.368        0.465      134.253       48.254        0.129      334.183        3.986      854.563
10/29/2013  06:33:00      -26.515      238.427      -27.709       37.328       48.247       25.500     1393.405     2327.736      650.273        3.134        0.219      239.897       12.119        0.003      334.111        3.863      854.597
10/29/2013  06:34:00      -96.454      213.407      -23.149       63.919       63.731       31.306     4085.614     4061.691      980.089        3.225        0.456      234.192       27.040        0.013      334.161        3.947      854.656
10/29/2013  06:35:00     -163.534      184.844      -41.268       48.016       53.914       30.431     2305.560     2906.681      926.056        3.437        0.307      246.800       27.092        0.012      334.072        3.799      854.710
10/29/2013  06:36:00     -124.321      145.964      -35.664       56.635       48.060       30.423     3207.569     2309.728      925.533        2.224        0.322      191.732       33.215        0.030      334.018        3.712      854.736
10/29/2013  06:37:00     -132.807       94.767      -33.756       58.232       32.869       35.976     3390.909     1080.388     1294.296        1.676        0.288      163.151       27.728        0.029      334.029        3.732      854.718
10/29/2013  06:38:00     -119.251       34.883       -4.830       79.921       47.877       28.905     6387.297     2292.163      835.477        1.249        0.476      124.248       38.915        0.098      334.049        3.766      854.710
10/29/2013  06:39:00     -156.026       36.967      -19.958       23.643       28.002       18.811      559.002      784.121      353.869        1.390        0.085      160.345        9.208        0.003      334.083        3.822      854.727
10/29/2013  06:40:00     -131.743       31.038       -9.991       30.612       18.508       14.455      937.118      342.533      208.949        0.995        0.074      135.349       14.592        0.012      334.053        3.774      854.754
10/29/2013  06:41:00      -64.004       53.814      -13.744       32.604       53.426       27.565     1063.010     2854.290      759.850        0.593        0.234       83.621       29.175        0.122      334.130        3.898      854.766
10/29/2013  06:42:00      -72.785      119.786      -19.815       27.764       29.888       22.779      770.860      893.318      518.896        1.111        0.109      140.165       16.752        0.014      334.176        3.974      854.777
10/29/2013  06:43:00      -35.731       57.091       -3.468       25.184       29.790       17.412      634.259      887.446      303.165        0.319        0.091       67.351       15.597        0.054      334.322        4.218      854.799
10/29/2013  06:44:00      -56.597       51.736       -9.711       37.701       36.958       24.796     1421.353     1365.885      614.829        0.469        0.170       76.680       19.556        0.065      334.258        4.114      854.809
10/29/2013  06:45:00      -51.578       62.410       -0.550       25.471       30.583       21.418      648.785      935.308      458.739        0.430        0.102       80.965       16.127        0.040      334.180        3.984      854.831
10/29/2013  06:46:00      -25.372       56.069       -3.403       26.891       38.783       21.419      723.125     1504.155      458.794        0.324        0.134       61.542       14.641        0.057      334.263        4.120      854.862
10/29/2013  06:47:00      -75.230       11.260       -4.399       34.521       39.587       22.095     1191.727     1567.145      488.206        0.453        0.162       76.068       21.493        0.080      334.197        4.011      854.893
10/29/2013  06:48:00     -119.039       12.513      -14.092       34.818       35.089       25.474     1212.277     1231.266      648.916        0.881        0.155      119.695       25.700        0.046      334.207        4.027      854.939
10/29/2013  06:49:00     -137.956        1.944      -18.020       32.050       27.143       18.041     1027.194      736.733      325.464        1.072        0.104      137.970       14.780        0.011      334.133        3.904      854.966
10/29/2013  06:50:00      -89.518        8.072      -10.586       39.163       22.063       19.602     1533.749      486.786      384.226        0.530        0.120       89.881       12.435        0.019      334.136        3.908      854.962
10/29/2013  06:51:00      -54.432       50.601      -11.284       35.621       27.337       20.926     1268.852      747.326      437.906        0.405        0.123       74.319       22.664        0.093      334.188        3.995      854.961
10/29/2013  06:52:00      -85.002      -18.104       -6.963       35.446       36.339       14.906     1256.441     1320.523      222.189        0.520        0.140       86.908       12.225        0.020      334.260        4.116      854.969
10/29/2013  06:53:00     -138.648      -32.900      -20.942       45.424       30.883       18.522     2063.307      953.771      343.072        1.205        0.168      142.498       13.984        0.010      334.238        4.078      854.982
10/29/2013  06:54:00      -97.673      -77.003       -5.954       50.947       45.756       32.072     2595.614     2093.654     1028.594        1.061        0.286      124.377       19.598        0.025      334.214        4.040      854.995
10/29/2013  06:55:00     -161.719     -101.839       -6.322       53.395       43.048       29.557     2851.028     1853.151      873.620        2.107        0.279      191.113       27.772        0.021      334.130        3.896      855.007
10/29/2013  06:56:00     -140.914      -67.420       -2.579       45.252       39.005       23.989     2047.769     1521.361      575.465        1.428        0.207      156.212       19.042        0.015      334.164        3.954      855.016
10/29/2013  06:57:00      -88.067      -53.410        1.105       53.127       46.248       27.146     2822.505     2138.865      736.909        0.815        0.285      102.997       28.477        0.076      334.206        4.024      855.022
10/29/2013  06:58:00     -100.314      -34.562        1.432       39.802       35.996       23.857     1584.210     1295.702      569.140        0.735        0.172      106.101       23.216        0.048      334.191        4.000      855.011
10/29/2013  06:59:00     -152.113       -4.226      -14.147       41.388       41.647       23.252     1712.959     1734.512      540.647        1.367        0.199      152.171       21.895        0.021      334.157        3.943      855.000
10/29/2013  07:00:00      -77.143      -37.298       -2.286       35.437       22.518       23.067     1255.769      507.073      532.103        0.482        0.115       85.687       18.957        0.049      334.188        3.995      854.994
10/29/2013  07:01:00      -23.874      -46.348       -1.622       30.333       33.906       21.689      920.075     1149.622      470.405        0.263        0.127       52.136       17.133        0.108      334.274        4.139      854.990
10/29/2013  07:02:00      -51.182      -92.619       -7.012       29.520       34.698       23.033      871.435     1203.961      530.507        0.693        0.130      105.820       14.526        0.019      334.213        4.036      854.976
10/29/2013  07:03:00      -49.303      -41.865       -2.739       26.178       44.824       18.806      685.311     2009.151      353.662        0.362        0.152       64.680       20.167        0.097      334.216        4.042      854.987
10/29/2013  07:04:00     -116.744      -43.332       -5.263       47.588       29.257       22.095     2264.586      855.964      488.204        0.957        0.180      124.527       13.425        0.012      334.212        4.035      855.012
10/29/2013  07:05:00      -83.991      -51.390        1.799       42.551       25.390       19.144     1810.580      644.642      366.484        0.626        0.141       98.465       19.525        0.039      334.218        4.047      855.005
10/29/2013  07:06:00      -75.754      -22.155        2.573       31.863       27.316       17.329     1015.270      746.160      300.298        0.415        0.103       78.927       17.678        0.050      334.180        3.982      854.990
10/29/2013  07:07:00      -60.235      -27.213       -8.944       23.994       20.709       13.653      575.691      428.868      186.403        0.282        0.060       66.097        6.900        0.011      334.184        3.989      854.968
10/29/2013  07:08:00      -57.493      -68.681        3.015       41.337       41.401       23.047     1708.711     1714.030      531.173        0.599        0.198       89.569       12.637        0.020      334.191        4.002      854.940
10/29/2013  07:09:00      -40.722      -64.453       -3.592       23.538       44.953       17.349      554.029     2020.733      300.992        0.435        0.144       76.239        6.500        0.007      334.210        4.033      854.897
10/29/2013  07:10:00      -73.454      -19.436       -6.599       28.261       12.571       14.068      798.673      158.039      197.906        0.349        0.058       75.982       10.895        0.021      334.178        3.980      854.885
10/29/2013  07:11:00      -36.271       -8.260       -2.553       10.834       11.678        7.022      117.373      136.369       49.309        0.085        0.015       37.199        3.847        0.011      334.141        3.916      854.890
10/29/2013  07:12:00      -18.093        4.365       -0.725       10.248        8.329        5.434      105.017       69.371       29.531        0.028        0.010       18.612        5.000        0.072      334.153        3.937      854.891
10/29/2013  07:13:00      -36.628       -0.800       -1.794       14.337       12.878       10.876      205.556      165.843      118.290        0.092        0.024       36.636        8.578        0.055      334.202        4.017      854.930
10/29/2013  07:14:00      -27.163      -18.901        3.397       44.446       27.624       17.624     1975.462      763.092      310.608        0.208        0.152       33.092       16.869        0.260      334.308        4.197      854.966
10/29/2013  07:15:00       -4.220      -60.920        0.351       25.550       36.992       20.890      652.800     1368.380      436.382        0.309        0.123       61.066       17.579        0.083      334.248        4.097      854.973
10/29/2013  07:16:00      -20.759      -10.350       12.004       52.169       40.202       17.925     2721.554     1616.183      321.304        0.267        0.233       23.196       27.064        1.361      334.219        4.048      855.007
10/29/2013  07:17:00       13.850       28.511       28.574       25.940       46.820       44.406      672.862     2192.094     1971.915        0.333        0.242       31.697       33.428        1.112      334.089        3.830      855.039
10/29/2013  07:18:00       39.592       23.452       41.644       50.056       33.504       32.426     2505.634     1122.520     1051.432        0.426        0.234       46.016       31.508        0.469      334.045        3.757      855.054
10/29/2013  07:19:00       17.261       43.764       56.079       25.186       34.812       27.436      634.328     1211.841      752.712        0.398        0.130       47.045       17.504        0.138      334.078        3.813      855.102
10/29/2013  07:20:00       15.536       16.955       24.649       23.328       35.613       19.266      544.202     1268.253      371.178        0.166        0.109       22.996       19.868        0.746      334.091        3.836      855.133
10/29/2013  07:21:00      -10.115      -21.773        0.725        8.498       18.437       15.038       72.213      339.917      226.126        0.061        0.032       24.008       14.460        0.363      334.029        3.732      855.138
10/29/2013  07:22:00      -10.056       23.324        0.108       18.303       21.813       10.729      334.990      475.821      115.108        0.079        0.046       25.400        9.872        0.151      333.957        3.614      855.170
10/29/2013  07:23:00       87.567       39.768       15.653       52.717       26.923       22.750     2779.120      724.824      517.582        0.676        0.201       96.174       16.340        0.029      333.976        3.645      855.192
10/29/2013  07:24:00      128.658       66.128       11.754       50.124       36.283       33.725     2512.391     1316.436     1137.365        1.301        0.248      144.657       24.311        0.028      333.977        3.645      855.196
10/29/2013  07:25:00      113.440       61.238        6.886       37.688       25.420       22.428     1420.382      646.173      503.013        0.962        0.128      128.913        9.550        0.005      333.928        3.566      855.229
10/29/2013  07:26:00       80.646       38.782        7.126       33.687       25.215       22.208     1134.828      635.803      493.183        0.516        0.113       89.486       14.458        0.026      333.962        3.622      855.265
10/29/2013  07:27:00       50.402       42.571        5.878       22.269       26.286       24.434      495.891      690.961      597.016        0.309        0.089       65.974       14.239        0.047      334.012        3.705      855.290
10/29/2013  07:28:00       13.703       45.762        0.560       21.454       14.051       11.234      460.283      197.439      126.206        0.153        0.039       47.770        7.551        0.025      334.022        3.720      855.318
10/29/2013  07:29:00       28.150       36.172        3.748       13.700        9.960       12.687      187.681       99.207      160.957        0.128        0.022       45.834        4.739        0.011      334.035        3.741      855.342
10/29/2013  07:30:00       14.788       30.442       -1.971       17.660       21.635       12.284      311.860      468.065      150.893        0.104        0.047       33.844       10.723        0.100      334.026        3.727      855.365
10/29/2013  07:31:00       15.709       39.647        0.834       11.770       16.362       13.497      138.541      267.714      182.159        0.120        0.029       42.646       13.763        0.104      334.053        3.772      855.378
10/29/2013  07:32:00       32.178       34.759        5.179       23.188       24.134       21.574      537.675      582.467      465.458        0.193        0.079       47.367       15.957        0.113      334.083        3.820      855.387
10/29/2013  07:33:00       53.828       57.895       -2.447       18.335       20.314       22.187      336.174      412.647      492.243        0.375        0.062       79.053       16.576        0.044      334.066        3.791      855.385
10/29/2013  07:34:00       22.298       49.882       -6.969       12.600       14.382        7.791      158.752      206.835       60.693        0.173        0.021       54.639        3.679        0.005      334.064        3.787      855.387
10/29/2013  07:35:00       15.960       27.658        0.346       10.569        7.459       12.944      111.697       55.640      167.537        0.068        0.017       31.932        8.596        0.072      334.099        3.845      855.400
10/29/2013  07:36:00       -4.124      -19.807       10.104       22.325       35.465       15.997      498.385     1257.763      255.905        0.126        0.101       20.232       10.711        0.280      334.199        4.015      855.411
10/29/2013  07:37:00       -8.700      -33.919       -3.968       27.509       29.817       21.797      756.749      889.063      475.090        0.168        0.106       35.017       13.916        0.158      334.363        4.288      855.414
10/29/2013  07:38:00       -8.741      -18.338       -6.872       25.572       21.540       17.528      653.913      463.978      307.228        0.094        0.071       20.315        9.124        0.202      334.333        4.238      855.410
10/29/2013  07:39:00      -36.188      -12.161        7.403       32.488       23.103       14.528     1055.440      533.761      211.067        0.166        0.090       38.177       12.094        0.100      334.336        4.243      855.340
10/29/2013  07:40:00      -27.937      -36.070       -3.681       29.769       17.119       21.448      886.222      293.045      460.031        0.187        0.082       45.624        8.949        0.038      334.295        4.175      855.290
10/29/2013  07:41:00      -26.978      -14.510       -3.684       23.013       18.201       17.786      529.614      331.286      316.357        0.106        0.059       30.632       15.144        0.244      334.370        4.298      855.280
10/29/2013  07:42:00      -10.102      -22.413       -6.525       29.366       25.574       17.235      862.380      654.035      297.042        0.123        0.091       24.584       17.619        0.514      334.362        4.285      855.286
10/29/2013  07:43:00       -6.341       16.322       31.687       15.063       24.752       37.301      226.884      612.662     1391.344        0.177        0.112       17.510       21.095        1.451      334.355        4.276      855.277
10/29/2013  07:44:00      -10.799       28.260       65.602       20.790       41.006       28.091      432.218     1681.519      789.119        0.406        0.145       30.253       25.003        0.683      334.285        4.157      855.291
10/29/2013  07:45:00       80.147      104.016       99.252       43.949       46.065       31.579     1931.556     2121.963      997.207        1.607        0.253      131.312       15.295        0.014      334.202        4.018      855.296
10/29/2013  07:46:00       47.656       79.124       91.711       49.048       37.786       27.549     2405.679     1427.756      758.940        1.077        0.230       92.367       21.365        0.054      334.143        3.919      855.317
10/29/2013  07:47:00       80.507       72.256       57.850       64.657       41.968       37.088     4180.561     1761.276     1375.495        1.118        0.366      108.177       34.948        0.104      334.177        3.978      855.353
10/29/2013  07:48:00       44.982       24.139       47.345       47.792       38.447       35.743     2284.043     1478.193     1277.562        0.494        0.252       51.049       34.779        0.464      334.230        4.066      855.388
10/29/2013  07:49:00       12.689        7.426       41.040       35.900       39.246       26.767     1288.818     1540.264      716.474        0.272        0.177       14.702       27.775        3.569      334.252        4.103      855.414
10/29/2013  07:50:00       51.227      -40.918       20.504       33.421       49.859       26.518     1116.963     2485.876      703.181        0.451        0.215       65.563       25.341        0.149      334.198        4.011      855.424
10/29/2013  07:51:00       31.990      -25.498       18.540       37.439       33.535       23.828     1401.683     1124.627      567.783        0.256        0.155       40.908       20.935        0.262      334.232        4.069      855.412
10/29/2013  07:52:00       60.334       29.110       58.967       53.405       34.408       30.304     2852.061     1183.880      918.320        0.646        0.248       66.990       22.184        0.110      334.207        4.027      855.386
10/29/2013  07:53:00       49.761       63.482       72.159       42.059       49.594       33.484     1768.941     2459.607     1121.196        0.853        0.267       80.660       31.976        0.157      334.135        3.907      855.349
10/29/2013  07:54:00       61.135       46.900       45.591       62.448       61.282       41.924     3899.741     3755.532     1757.608        0.871        0.471       77.053       47.803        0.385      334.179        3.980      855.326
10/29/2013  07:55:00       86.039       74.526       47.409       47.387       48.320       36.721     2245.514     2334.832     1348.458        1.057        0.296      113.828       23.879        0.044      334.210        4.034      855.317
10/29/2013  07:56:00       85.512       88.606       52.126       43.797       31.374       40.333     1918.187      984.343     1626.715        1.120        0.226      123.139        9.309        0.006      334.200        4.017      855.308
10/29/2013  07:57:00      180.657      122.014       41.285       59.935       46.090       41.096     3592.229     2124.304     1688.890        2.832        0.370      218.001       21.512        0.010      334.065        3.788      855.300
10/29/2013  07:58:00      126.099       85.342       19.899       59.311       39.042       33.209     3517.744     1524.267     1102.855        1.486        0.307      152.264       15.870        0.011      334.095        3.839      855.302
10/29/2013  07:59:00       71.856       66.592       20.468       67.444       50.066       44.675     4548.722     2506.566     1995.847        0.953        0.453       97.968       32.393        0.109      334.127        3.894      855.283
10/29/2013  08:00:00       67.059       76.567        3.830       49.204       41.385       27.103     2421.043     1712.680      734.592        0.762        0.243      101.781       18.670        0.034      334.124        3.888      855.279
10/29/2013  08:01:00       59.391       63.206        9.563       49.437       41.898       33.048     2443.972     1755.450     1092.140        0.645        0.265       86.731       26.214        0.091      334.109        3.865      855.294
10/29/2013  08:02:00       63.838       50.887       14.984       45.784       42.817       38.210     2096.206     1833.289     1460.021        0.614        0.269       81.638       25.574        0.098      334.104        3.857      855.303
10/29/2013  08:03:00       31.405       50.419       13.449       36.029       32.191       25.901     1298.094     1036.249      670.878        0.336        0.150       59.400       21.967        0.137      334.124        3.890      855.321
10/29/2013  08:04:00       28.476       19.983        4.945       12.660       13.092       20.022      160.265      171.408      400.885        0.098        0.037       34.788        7.677        0.049      334.123        3.889      855.356
10/29/2013  08:05:00       12.257        5.207        4.420       10.213       15.036       14.330      104.308      226.094      205.340        0.037        0.027       13.317        6.888        0.267      334.157        3.947      855.395
10/29/2013  08:06:00       11.296       89.018       -0.167       16.170       20.946       13.440      261.460      438.731      180.629        0.447        0.044       89.732        5.003        0.003      334.181        3.985      855.427
10/29/2013  08:07:00      -16.563       26.976       -0.395       28.692       43.874       17.025      823.253     1924.939      289.842        0.202        0.152       31.654       12.366        0.153      334.300        4.182      855.468
10/29/2013  08:08:00     -114.954      -63.059      -12.799       46.501       56.669       20.189     2162.372     3211.368      407.592        1.157        0.289      131.114       12.806        0.010      334.343        4.253      855.504
10/29/2013  08:09:00      -27.017      -36.096       13.549       62.288       51.611       31.500     3879.768     2663.712      992.247        0.487        0.377       45.087       34.606        0.589      334.329        4.230      855.521
10/29/2013  08:10:00      -97.781      -38.611       -3.155       37.688       30.067       19.593     1420.403      904.031      383.903        0.688        0.135      105.128       16.312        0.024      334.321        4.217      855.527
10/29/2013  08:11:00      -59.811      -38.642        1.639       29.765       26.339       15.851      885.978      693.748      251.269        0.345        0.092       71.207       13.871        0.038      334.264        4.123      855.539
10/29/2013  08:12:00     -124.869      -32.924       -9.814       40.558       19.399       22.497     1644.945      376.323      506.118        0.965        0.126      129.137       25.164        0.038      334.219        4.047      855.550
10/29/2013  08:13:00     -145.470      -65.577       -9.321       37.113       36.685       21.115     1377.403     1345.815      445.861        1.436        0.158      159.568       20.373        0.016      334.239        4.080      855.585
10/29/2013  08:14:00     -161.227      -44.247        1.093       65.168       48.624       33.515     4246.811     2364.330     1123.230        1.784        0.387      167.188       32.797        0.038      334.257        4.109      855.625
10/29/2013  08:15:00     -118.792      -54.348       -3.106       76.367       44.213       30.984     5831.961     1954.766      959.993        1.291        0.437      130.635       33.878        0.067      334.206        4.026      855.629
10/29/2013  08:16:00     -157.737      -19.020       -8.269       36.458       45.095       28.557     1329.178     2033.558      815.496        1.474        0.209      158.879       26.347        0.027      334.185        3.990      855.619
10/29/2013  08:17:00      -81.794        6.336       -0.472       23.221       28.739       17.829      539.235      825.959      317.890        0.421        0.084       82.039       15.025        0.034      334.206        4.026      855.616
10/29/2013  08:18:00      -16.688        0.782       -5.481       15.793       16.049        8.685      249.427      257.567       75.428        0.045        0.029       16.707        7.690        0.212      334.244        4.092      855.611
10/29/2013  08:19:00      -16.159      -32.351        8.505       30.554       28.904       21.521      933.531      835.437      463.164        0.181        0.112       36.162       13.682        0.143      334.396        4.342      855.618
10/29/2013  08:20:00      -30.994      -23.342       -3.956       35.620       19.433       12.680     1268.752      377.625      160.777        0.166        0.090       38.801        4.364        0.013      334.238        4.080      855.634
10/29/2013  08:21:00      -16.367      -32.059        2.920       30.191       26.498       12.581      911.472      702.130      158.278        0.154        0.089       35.995        8.574        0.057      334.419        4.381      855.640
10/29/2013  08:22:00        2.418      -61.452       -7.222       24.698       24.403       24.490      609.995      595.519      599.748        0.282        0.090       61.499       12.825        0.043      334.461        4.450      855.661
10/29/2013  08:23:00      -45.163      -58.486        4.465       40.404       34.205       19.294     1632.490     1169.967      372.256        0.433        0.159       73.894       10.319        0.020      334.320        4.217      855.690
10/29/2013  08:24:00      -60.663      -56.804        2.695       33.120       28.035       22.974     1096.931      785.960      527.822        0.466        0.121       83.107       18.893        0.052      334.279        4.148      855.723
10/29/2013  08:25:00      -88.300      -81.351       -6.977       17.021       23.387       15.721      289.705      546.969      247.152        0.777        0.054      120.062        8.641        0.005      334.227        4.061      855.773
10/29/2013  08:26:00      -52.314      -45.199        0.988       35.924       19.128       19.861     1290.538      365.897      394.441        0.342        0.103       69.136       22.747        0.108      334.320        4.215      855.821
10/29/2013  08:27:00      -30.170      -33.831        0.106       20.129       14.577       14.538      405.171      212.487      211.362        0.144        0.041       45.330       12.628        0.078      334.268        4.128      855.856
10/29/2013  08:28:00      -58.130       -9.049      -11.050        7.326       13.814        9.776       53.670      190.834       95.571        0.196        0.017       58.830        6.273        0.011      334.223        4.051      855.870
10/29/2013  08:29:00      -14.610       12.842       30.173       15.156       15.534       19.133      229.716      241.308      366.083        0.106        0.042       19.452       14.091        0.525      334.398        4.344      855.865
10/29/2013  08:30:00        9.902       53.705       71.912       33.914       40.521       26.321     1150.175     1641.978      692.805        0.582        0.174       54.610       20.131        0.136      334.411        4.366      855.863
10/29/2013  08:31:00        3.751       -4.145       32.915       29.230       37.216       33.396      854.385     1385.019     1115.283        0.223        0.168        5.590       27.112       23.522      334.411        4.367      855.895
10/29/2013  08:32:00       62.065      -38.765       25.444       40.354       36.438       33.637     1628.448     1327.729     1131.473        0.504        0.204       73.176       29.996        0.168      334.379        4.313      855.947
10/29/2013  08:33:00       94.713       10.289       35.098       56.830       58.576       34.910     3229.621     3431.152     1218.713        0.909        0.394       95.270       30.495        0.102      334.273        4.136      856.003
10/29/2013  08:34:00      124.959       35.694       11.855       61.776       60.833       41.093     3816.278     3700.625     1688.606        1.312        0.460      129.956       33.113        0.065      334.192        4.002      856.047
10/29/2013  08:35:00      170.588      131.198       17.179       42.560       37.219       39.615     1811.396     1385.230     1569.347        2.569        0.238      215.205       21.951        0.010      334.122        3.883      856.059
10/29/2013  08:36:00      115.004       62.635       23.704       76.714       53.413       37.751     5885.049     2852.922     1425.110        1.394        0.508      130.955       23.218        0.031      334.162        3.950      856.071
10/29/2013  08:37:00      137.618       84.868       37.341       83.072       66.030       48.011     6900.921     4359.977     2305.082        2.055        0.678      161.682       41.659        0.066      334.167        3.959      856.065
10/29/2013  08:38:00      144.861       94.390       15.357       72.018       60.326       47.852     5186.522     3639.265     2289.828        2.062        0.556      172.899       35.727        0.043      334.136        3.906      856.073
10/29/2013  08:39:00      166.987       79.004       34.290       64.285       61.514       44.877     4132.595     3783.965     2013.946        2.261        0.497      184.733       28.070        0.023      334.094        3.838      856.070
10/29/2013  08:40:00      189.562      128.859        8.231       39.667       35.280       43.312     1573.431     1244.707     1875.887        2.865        0.235      229.212       25.241        0.012      334.038        3.744      856.066
10/29/2013  08:41:00      146.351      102.893       18.803       54.204       49.562       34.677     2938.076     2456.392     1202.525        1.948        0.330      178.901       10.092        0.003      334.062        3.784      856.062
10/29/2013  08:42:00       98.124       83.352       17.928       58.177       57.735       46.919     3384.512     3333.381     2201.368        1.291        0.446      128.747       26.135        0.041      334.091        3.834      856.074
10/29/2013  08:43:00      122.509       67.215       20.845       88.121       65.209       38.908     7765.317     4252.251     1513.854        1.674        0.677      139.736       23.122        0.027      334.118        3.878      856.092
10/29/2013  08:44:00      145.663       97.756       23.192       63.314       51.455       38.600     4008.681     2647.598     1489.923        1.973        0.407      175.425       21.628        0.015      334.104        3.854      856.121
10/29/2013  08:45:00       99.374       63.877        6.095       33.872       33.244       29.942     1147.283     1105.142      896.542        0.857        0.157      118.133       20.942        0.031      334.079        3.815      856.162
10/29/2013  08:46:00      103.771       89.260       10.998       32.862       40.704       40.050     1079.884     1656.845     1604.032        1.160        0.217      136.879       34.517        0.064      334.072        3.804      856.194
10/29/2013  08:47:00       54.671       44.020       15.348       32.941       27.111       24.737     1085.109      734.984      611.902        0.380        0.122       70.191       19.691        0.079      334.169        3.966      856.225
10/29/2013  08:48:00       47.867       56.880        0.301       35.520       32.872       28.146     1261.686     1080.566      792.219        0.433        0.157       74.341       15.267        0.042      334.064        3.790      856.235
10/29/2013  08:49:00       64.934       35.637        2.181       34.680       31.584       24.605     1202.694      997.536      605.424        0.415        0.140       74.070       17.017        0.053      333.967        3.629      856.239
10/29/2013  08:50:00       72.965       43.903       17.540       26.992       31.881       31.546      728.591     1016.373      995.133        0.515        0.137       85.155       14.559        0.029      334.013        3.706      856.231
10/29/2013  08:51:00       46.714       30.233       -0.258       29.766       22.234       19.200      886.036      494.373      368.627        0.242        0.087       55.644       15.013        0.073      334.049        3.765      856.250
10/29/2013  08:52:00        9.362       99.924      -20.046       24.522       25.452       17.769      601.347      647.800      315.745        0.602        0.078      100.362        8.081        0.006      334.109        3.864      856.272
10/29/2013  08:53:00       61.651      139.752      -24.369       43.167       56.196       34.905     1863.424     3157.963     1218.335        1.508        0.312      152.746       37.293        0.060      334.151        3.933      856.286
10/29/2013  08:54:00       46.446       63.522        8.340       51.648       37.613       31.127     2667.508     1414.757      968.903        0.566        0.253       78.691       25.441        0.105      334.151        3.934      856.297
10/29/2013  08:55:00       74.434       70.134       11.772       42.806       31.388       33.929     1832.343      985.180     1151.153        0.728        0.198      102.271       20.101        0.039      334.179        3.981      856.314
10/29/2013  08:56:00       52.435       39.435        6.529       49.872       23.045       20.981     2487.182      531.079      440.190        0.390        0.173       65.609       15.277        0.054      334.250        4.099      856.323
10/29/2013  08:57:00      -41.951       43.943      -16.224       57.152       44.109       25.205     3266.356     1945.614      635.281        0.490        0.292       60.753       21.031        0.120      334.359        4.278      856.349
10/29/2013  08:58:00       -2.633      195.558      -19.778       54.562       99.113       39.162     2977.009     9823.422     1533.646        2.649        0.717      195.576       41.191        0.044      334.437        4.407      856.361
10/29/2013  08:59:00      -25.744      221.094      -31.945       40.008       57.189       21.121     1600.612     3270.564      446.105        2.794        0.266      222.588       17.704        0.006      334.404        4.351      856.349
10/29/2013  09:00:00       36.569       62.841      -18.820       28.153       46.926       21.359      792.586     2202.019      456.211        0.455        0.173       72.707       24.464        0.113      334.388        4.329      856.357
10/29/2013  09:01:00       -3.619      103.006       -0.281       47.969       63.916       35.877     2300.995     4085.238     1287.144        0.915        0.384      103.069       40.649        0.156      334.505        4.522      856.394
10/29/2013  09:02:00      -40.207      204.785      -11.760       50.535       83.993       40.847     2553.809     7054.747     1668.477        2.748        0.564      208.695       46.504        0.050      334.455        4.437      856.424
10/29/2013  09:03:00      -29.068      207.830      -24.322       69.742       74.318       37.525     4863.919     5523.117     1408.111        2.821        0.590      209.853       34.185        0.027      334.484        4.484      856.431
10/29/2013  09:04:00      -54.344      295.565      -32.736       89.973       99.268       51.611     8095.223     9854.110     2663.722        5.599        1.031      300.519       40.888        0.019      334.427        4.388      856.426
10/29/2013  09:05:00      -46.814      323.762      -42.043       75.583      138.124       48.149     5712.804    19078.366     2318.308        6.794        1.355      327.129       63.170        0.037      334.422        4.381      856.414
10/29/2013  09:06:00      -32.054      238.206      -19.704       88.510      153.233       66.239     7834.046    23480.348     4387.611        4.692        1.785      240.353       83.856        0.122      334.439        4.409      856.416
10/29/2013  09:07:00      -54.078      313.800      -26.245       93.801      116.829       65.884     8798.713    13649.046     4340.670        6.443        1.339      318.425       58.453        0.034      334.387        4.323      856.434
10/29/2013  09:08:00      -59.584      330.760      -37.339       75.676       92.892       52.027     5726.905     8628.867     2706.759        6.570        0.853      336.084       42.722        0.016      334.367        4.290      856.449
10/29/2013  09:09:00      -96.178      322.683      -44.076       91.496      117.007       54.914     8371.570    13690.754     3015.511        7.019        1.254      336.712       51.768        0.024      334.363        4.282      856.477
10/29/2013  09:10:00     -147.710      273.678      -42.831       76.656       83.108       50.338     5876.208     6906.973     2533.913        5.693        0.766      310.995       36.478        0.014      334.356        4.271      856.498
10/29/2013  09:11:00      -97.614      196.111      -28.722       55.353       72.286       39.934     3063.948     5225.333     1594.726        2.935        0.494      219.062       33.880        0.024      334.381        4.316      856.523
10/29/2013  09:12:00      -88.454      225.517      -28.311       80.774       76.312       48.201     6524.507     5823.470     2323.329        3.707        0.734      242.244       40.923        0.029      334.388        4.324      856.518
10/29/2013  09:13:00      -59.842      226.787      -27.650       68.670       84.050       33.407     4715.609     7064.486     1116.013        3.433        0.645      234.549       22.490        0.009      334.420        4.378      856.534
10/29/2013  09:14:00      -65.881      254.790      -28.349       57.851       97.452       42.379     3346.764     9496.987     1795.962        4.235        0.732      263.170       40.517        0.024      334.430        4.392      856.552
10/29/2013  09:15:00      -98.625      255.465      -31.085       71.621       78.339       45.584     5129.521     6136.959     2077.925        4.465        0.667      273.841       35.057        0.016      334.434        4.400      856.559
10/29/2013  09:16:00      -94.166      278.990      -30.636       61.059       68.743       37.403     3728.173     4725.568     1398.982        4.875        0.493      294.454       26.033        0.008      334.343        4.248      856.562
10/29/2013  09:17:00      -57.372      227.883      -31.259       52.324       59.244       28.414     2737.773     3509.846      807.364        3.163        0.353      234.994       23.800        0.010      334.397        4.338      856.571
10/29/2013  09:18:00      -28.548      182.534      -15.399       70.315      112.091       46.492     4944.208    12564.353     2161.540        2.702        0.984      184.753       59.107        0.102      334.411        4.363      856.594
10/29/2013  09:19:00     -102.668      201.270       -6.496       78.781      107.160       54.543     6206.390    11483.305     2974.912        3.588        1.033      225.943       54.915        0.059      334.439        4.408      856.622
10/29/2013  09:20:00     -104.228      223.065      -17.646       74.189       68.425       48.744     5504.069     4681.984     2375.947        3.675        0.628      246.214       45.681        0.034      334.364        4.283      856.650
10/29/2013  09:21:00      -38.478      138.923       -8.617       78.158       90.200       48.138     6108.713     8136.098     2317.236        1.871        0.828      144.154       52.734        0.134      334.376        4.305      856.673
10/29/2013  09:22:00      -45.060      181.708      -27.089       64.787       79.845       37.875     4197.323     6375.191     1434.499        2.389        0.600      187.212       40.960        0.048      334.439        4.409      856.707
10/29/2013  09:23:00      -11.761      271.746      -39.743       44.806       63.656       26.572     2007.576     4052.105      706.058        4.116        0.338      272.001       17.081        0.004      334.335        4.236      856.704
10/29/2013  09:24:00       -2.028      290.311      -26.334       57.690       88.742       56.581     3328.096     7875.148     3201.442        4.969        0.720      290.318       54.674        0.035      334.314        4.201      856.706
10/29/2013  09:25:00      -44.584      292.885      -23.407       90.600       86.663       53.187     8208.444     7510.443     2828.828        5.343        0.927      296.259       40.599        0.019      334.293        4.165      856.709
10/29/2013  09:26:00      -32.955      351.159      -41.965       85.453      129.875       53.750     7302.280    16867.644     2889.019        7.660        1.353      352.702       68.704        0.038      334.217        4.039      856.731
10/29/2013  09:27:00       -4.576      337.162      -49.731       80.236       71.755       38.931     6437.845     5148.781     1515.595        6.464        0.655      337.193       37.311        0.012      334.191        3.996      856.732
10/29/2013  09:28:00      -42.909      205.968      -25.679       37.709       50.810       28.421     1421.997     2581.670      807.747        2.487        0.241      210.390       23.004        0.012      334.272        4.133      856.756
10/29/2013  09:29:00      -17.139      303.638      -22.069       92.060      129.862       65.498     8474.968    16864.169     4289.971        6.130        1.481      304.121       69.234        0.052      334.296        4.170      856.790
10/29/2013  09:30:00     -126.927      293.844      -26.291       79.243      123.975       55.213     6279.506    15369.677     3048.489        6.392        1.235      320.085       57.806        0.033      334.274        4.135      856.814
10/29/2013  09:31:00      -47.558      308.718      -38.875       67.464      110.075       36.893     4551.426    12116.524     1361.104        5.855        0.901      312.360       34.857        0.012      334.225        4.054      856.826
10/29/2013  09:32:00      -72.145      227.983      -17.795       70.437      103.675       45.913     4961.394    10748.547     2108.011        3.765        0.891      239.126       41.128        0.030      334.322        4.216      856.835
10/29/2013  09:33:00     -121.471      194.341      -41.975       66.393       97.025       45.901     4407.991     9413.884     2106.884        3.510        0.796      229.180       50.779        0.049      334.232        4.067      856.848
10/29/2013  09:34:00      -59.783      186.441      -22.141       57.291       97.961       47.821     3282.290     9596.437     2286.849        2.699        0.758      195.792       49.605        0.064      334.244        4.087      856.855
10/29/2013  09:35:00      -66.961      288.025      -28.074       67.409      116.760       47.335     4543.959    13632.919     2240.576        5.432        1.021      295.707       43.381        0.022      334.228        4.058      856.868
10/29/2013  09:36:00     -154.702      299.644      -41.900       85.315      126.534       60.480     7278.643    16010.806     3657.841        7.121        1.347      337.223       59.266        0.031      334.158        3.942      856.876
10/29/2013  09:37:00      -85.695      235.896      -18.574       75.607      133.330       49.760     5716.366    17776.810     2476.088        4.465        1.298      250.979       42.582        0.029      334.201        4.014      856.906
10/29/2013  09:38:00      -47.141      260.232      -29.591       63.203      109.023       43.092     3994.625    11886.123     1856.910        4.428        0.887      264.467       46.010        0.030      334.166        3.957      856.916
10/29/2013  09:39:00      -99.479      252.629      -30.035       98.650      104.337       56.308     9731.858    10886.181     3170.537        4.920        1.189      271.510       55.967        0.042      334.189        3.995      856.923
10/29/2013  09:40:00      -58.216      284.508      -20.571       74.430      104.535       56.872     5539.898    10927.565     3234.478        5.223        0.985      290.403       53.593        0.034      334.104        3.853      856.922
10/29/2013  09:41:00      -22.852      290.789      -28.755       43.147       66.391       36.767     1861.693     4407.764     1351.809        4.676        0.381      291.685       26.284        0.008      334.129        3.893      856.929
10/29/2013  09:42:00      -23.840      417.658      -46.794       48.252      103.955       36.226     2328.280    10806.670     1312.301        9.582        0.722      418.337       37.662        0.008      334.056        3.773      856.936
10/29/2013  09:43:00      -74.101      268.113      -27.980       78.046      129.861       50.646     6091.236    16863.852     2565.050        5.183        1.276      278.164       57.631        0.043      334.126        3.888      856.951
10/29/2013  09:44:00     -103.457      281.768      -30.766       55.007       68.744       47.216     3025.721     4725.765     2229.369        5.051        0.499      300.161       42.680        0.020      334.081        3.813      856.957
10/29/2013  09:45:00      -32.404      365.429      -49.303       83.019       93.205       38.423     6892.222     8687.191     1476.298        7.703        0.853      366.863       41.259        0.013      334.053        3.769      856.970
10/29/2013  09:46:00      -23.969      264.545      -32.441       72.588       82.040       41.520     5268.951     6730.627     1723.926        4.266        0.686      265.629       40.858        0.024      334.068        3.794      856.988
10/29/2013  09:47:00      -38.197      323.486      -28.006       71.831      127.959       54.757     5159.661    16373.569     2998.297        6.570        1.227      325.733       60.015        0.034      334.055        3.772      856.977
10/29/2013  09:48:00       15.977      396.764      -55.672       62.419      119.863       43.924     3896.122    14367.123     1929.291        9.048        1.010      397.086       52.044        0.017      333.996        3.674      856.972
10/29/2013  09:49:00      -27.099      307.559      -45.800       55.172       69.163       38.432     3043.967     4783.494     1477.027        5.336        0.465      308.750       34.864        0.013      334.042        3.751      856.987
10/29/2013  09:50:00      -80.810      348.192      -43.261       55.087      100.203       42.554     3034.629    10040.729     1810.833        7.226        0.744      357.446       49.229        0.019      334.040        3.747      856.997
10/29/2013  09:51:00      -53.776      237.974      -27.134       53.857       46.772       34.993     2900.525     2187.648     1224.488        3.329        0.316      243.975       24.927        0.010      334.117        3.873      857.000
10/29/2013  09:52:00      -16.530      155.946      -10.638       49.203       87.876       40.200     2420.919     7722.265     1616.004        1.823        0.588      156.819       46.096        0.086      334.228        4.059      857.000
10/29/2013  09:53:00       -2.138      123.357       -2.473       57.311       66.643       36.859     3284.558     4441.321     1358.569        1.215        0.454      123.375       35.386        0.082      334.179        3.980      857.012
10/29/2013  09:54:00       49.414      141.931       -8.582       66.992       96.482       55.601     4487.922     9308.740     3091.445        1.977        0.844      150.286       60.373        0.161      334.070        3.799      857.043
10/29/2013  09:55:00        6.586      205.185      -24.857       50.606       75.699       41.465     2560.917     5730.396     1719.348        2.638        0.501      205.291       39.738        0.037      334.012        3.700      857.063
10/29/2013  09:56:00       45.661       91.497       -2.518       50.127       37.204       34.777     2512.743     1384.114     1209.421        0.778        0.255      102.258       28.396        0.077      334.050        3.767      857.081
10/29/2013  09:57:00       53.096      104.484       -8.596       54.018       51.623       30.437     2917.969     2664.890      926.406        1.016        0.325      117.201       22.052        0.035      334.102        3.853      857.097
10/29/2013  09:58:00      104.972      157.967       -3.093       90.336       91.467       70.581     8160.527     8366.219     4981.608        2.874        1.075      189.665       58.156        0.094      334.009        3.698      857.093
10/29/2013  09:59:00       27.585      226.960      -22.714       63.001       95.839       53.097     3969.134     9185.069     2819.243        3.438        0.799      228.630       53.672        0.055      334.051        3.766      857.094
10/29/2013  10:00:00       79.871       50.146       33.178       65.835       65.366       48.703     4334.223     4272.777     2371.937        1.049        0.549       94.308       26.390        0.078      334.063        3.789      857.100
10/29/2013  10:01:00      121.817       74.673        5.077      100.537       54.739       39.475    10107.688     2996.383     1558.277        1.755        0.733      142.883       31.486        0.049      334.022        3.719      857.110
10/29/2013  10:02:00       98.356      111.169        6.677       87.222       65.995       42.166     7607.597     4355.403     1777.967        1.791        0.687      148.433       39.496        0.071      333.980        3.650      857.122
10/29/2013  10:03:00       95.256      111.113        0.050       65.329       56.073       53.434     4267.925     3144.127     2855.183        1.584        0.513      146.355       42.641        0.085      333.957        3.614      857.144
10/29/2013  10:04:00      127.409      170.262        3.740      111.857       84.319       66.130    12512.021     7109.650     4373.233        3.461        1.200      212.655       48.342        0.052      333.899        3.514      857.155
10/29/2013  10:05:00      104.727      167.960      -18.115       75.738      131.240       55.745     5736.300    17223.915     3107.533        3.278        1.303      197.935       63.218        0.102      333.946        3.593      857.166
10/29/2013  10:06:00      149.234      133.796       15.966      110.143       89.091       77.742    12131.400     7937.285     6043.816        3.327        1.306      200.429       64.651        0.104      333.880        3.482      857.172
10/29/2013  10:07:00       85.558      176.603       -5.656       73.973       95.972       59.045     5472.044     9210.643     3486.301        2.835        0.908      196.236       55.531        0.080      333.897        3.511      857.190
10/29/2013  10:08:00       65.460      199.481      -25.922       60.547       95.874       57.291     3665.979     9191.829     3282.212        3.044        0.807      209.947       57.172        0.074      333.854        3.438      857.196
10/29/2013  10:09:00      113.458      102.833       -2.891       84.450       63.621       46.802     7131.847     4047.608     2190.393        1.841        0.668      153.125       34.298        0.050      333.858        3.446      857.203
10/29/2013  10:10:00       96.080      150.750       -9.542       72.412       83.946       56.934     5243.469     7046.951     3241.493        2.379        0.777      178.766       48.043        0.072      333.854        3.441      857.221
10/29/2013  10:11:00       46.592      213.679      -17.230       64.749      120.626       63.909     4192.429    14550.621     4084.352        3.547        1.141      218.700       72.455        0.110      333.847        3.428      857.238
10/29/2013  10:12:00       73.464       66.040        9.561       74.928       63.749       36.707     5614.151     4063.934     1347.378        1.044        0.551       98.784       30.698        0.097      333.894        3.507      857.242
10/29/2013  10:13:00      117.217      181.080      -10.872      103.580       91.964       55.813    10728.902     8457.364     3115.081        3.447        1.115      215.707       47.264        0.048      333.848        3.429      857.253
10/29/2013  10:14:00       70.983      159.048      -20.005       84.430      116.134       51.889     7128.430    13487.218     2692.421        2.702        1.165      174.169       56.722        0.106      333.840        3.417      857.266
10/29/2013  10:15:00       35.178      200.910       -7.062       76.759       92.186       55.433     5891.899     8498.321     3072.841        2.955        0.873      203.967       50.544        0.061      333.838        3.412      857.276
10/29/2013  10:16:00       -5.493      218.016      -15.621       88.283      103.249       54.791     7793.936    10660.434     3002.057        3.463        1.073      218.085       52.417        0.058      333.892        3.501      857.272
10/29/2013  10:17:00       60.417      193.437      -16.257       78.620      126.202       71.286     6181.107    15926.991     5081.681        3.426        1.359      202.652       77.530        0.146      333.824        3.388      857.277
10/29/2013  10:18:00       43.519      146.763        7.920       65.985       79.095       50.680     4354.067     6255.972     2568.489        1.834        0.659      153.079       47.652        0.097      333.847        3.428      857.276
10/29/2013  10:19:00      115.100       79.620      -11.479       48.891       39.353       36.836     2390.326     1548.645     1356.909        1.251        0.265      139.955       27.117        0.038      333.816        3.379      857.271
10/29/2013  10:20:00       80.787       71.176       17.909       67.527       45.294       36.660     4559.902     2051.534     1343.979        0.993        0.398      107.668       22.661        0.044      333.843        3.424      857.275
10/29/2013  10:21:00       64.019      104.965       -3.665       74.526       77.690       45.830     5554.125     6035.707     2100.404        1.441        0.685      122.948       39.795        0.105      333.777        3.313      857.296
10/29/2013  10:22:00      108.962      104.287       11.161       92.149       61.536       50.284     8491.369     3786.702     2528.514        1.884        0.740      150.826       46.920        0.097      333.718        3.216      857.323
10/29/2013  10:23:00       32.983      170.857       -4.867       87.411      113.262       57.607     7640.738    12828.282     3318.546        2.704        1.189      174.012       60.929        0.123      333.673        3.140      857.347
10/29/2013  10:24:00       94.997      131.201        9.508       81.990       74.911       60.846     6722.403     5611.601     3702.259        2.118        0.802      161.982       49.085        0.092      333.657        3.113      857.351
10/29/2013  10:25:00      212.877      174.629       28.342      100.752       76.446       64.137    10150.891     5843.928     4113.566        4.836        1.005      275.339       48.637        0.031      333.625        3.059      857.358
10/29/2013  10:26:00       86.340       91.526        6.097       95.449       71.299       46.435     9110.558     5083.519     2156.188        1.611        0.818      125.824       38.954        0.096      333.646        3.096      857.379
10/29/2013  10:27:00       99.121      122.750       -1.911       54.163       73.613       43.194     2933.678     5418.943     1865.722        1.756        0.511      157.773       37.263        0.056      333.636        3.080      857.389
10/29/2013  10:28:00      124.803       91.511        6.622       56.673       43.826       40.117     3211.825     1920.701     1609.398        1.537        0.337      154.758       20.215        0.017      333.647        3.098      857.398
10/29/2013  10:29:00      102.147       83.985       12.315       92.915       88.301       46.377     8633.253     7797.144     2150.815        1.811        0.929      132.240       30.402        0.053      333.668        3.133      857.413
10/29/2013  10:30:00       65.175       70.569       35.584       59.417       47.682       44.861     3530.363     2273.570     2012.511        0.915        0.391       96.061       38.289        0.159      333.686        3.163      857.431
10/29/2013  10:31:00      160.050      100.341       24.036       97.920       60.948       41.357     9588.243     3714.717     1710.406        2.564        0.751      188.903       34.498        0.033      333.535        2.912      857.444
10/29/2013  10:32:00      144.398       80.329       16.871       81.319       44.474       43.584     6612.705     1977.933     1899.599        1.904        0.525      165.238       32.246        0.038      333.559        2.952      857.442
10/29/2013  10:33:00      108.468      128.293       -2.149      105.841       87.824       47.711    11202.354     7713.002     2276.294        2.471        1.060      168.001       41.754        0.062      333.493        2.841      857.447
10/29/2013  10:34:00      165.149      103.777       12.709       95.468       60.313       45.306     9114.201     3637.679     2052.630        2.650        0.740      195.048       15.831        0.007      333.476        2.813      857.436
10/29/2013  10:35:00      166.667       89.477       14.956       80.413       56.322       45.348     6466.199     3172.139     2056.470        2.385        0.585      189.167       31.198        0.027      333.502        2.855      857.436
10/29/2013  10:36:00      111.720      123.475       10.573       67.055       67.776       53.609     4496.336     4593.539     2873.931        1.990        0.598      166.515       42.736        0.066      333.455        2.777      857.447
10/29/2013  10:37:00       62.178      151.197       -3.988       70.450       78.085       60.385     4963.134     6097.272     3646.310        2.072        0.735      163.482       54.925        0.113      333.486        2.829      857.455
10/29/2013  10:38:00       93.815      111.481        7.632       66.070       57.865       44.615     4365.225     3348.322     1990.527        1.549        0.485      145.702       37.950        0.068      333.506        2.864      857.450
10/29/2013  10:39:00       44.591       67.531        1.240       83.433       66.715       44.165     6961.018     4450.891     1950.582        0.995        0.668       80.925       37.392        0.213      333.543        2.925      857.429
10/29/2013  10:40:00      148.123      100.961       15.579       64.096       54.600       46.718     4108.305     2981.137     2182.612        2.082        0.464      179.259       36.064        0.040      333.557        2.947      857.417
10/29/2013  10:41:00       86.700       95.698       -1.461       55.879       39.999       39.399     3122.437     1599.959     1552.259        1.147        0.314      129.131       16.609        0.017      333.561        2.956      857.419
10/29/2013  10:42:00       73.424       94.215       -2.446       52.742       51.033       41.626     2781.745     2604.372     1732.687        1.069        0.356      119.447       36.865        0.095      333.663        3.125      857.425
10/29/2013  10:43:00       35.046       71.038        6.979       63.866       39.190       30.983     4078.812     1535.853      959.966        0.645        0.329       79.213       19.356        0.060      333.690        3.169      857.422
10/29/2013  10:44:00       69.136       44.562        6.637       62.162       49.012       28.984     3864.137     2402.205      840.088        0.696        0.355       82.253       29.013        0.124      333.745        3.260      857.406
10/29/2013  10:45:00       82.433       84.849        6.432       47.003       39.241       32.421     2209.326     1539.821     1051.124        0.942        0.240      118.299       27.231        0.053      333.627        3.065      857.402
10/29/2013  10:46:00      126.570       77.633       37.156       56.646       46.731       44.108     3208.724     2183.831     1945.519        1.538        0.367      148.482       33.839        0.052      333.680        3.152      857.386
10/29/2013  10:47:00      174.031      110.520       16.402       66.780       52.029       42.985     4459.547     2707.056     1847.728        2.589        0.451      206.159       26.774        0.017      333.577        2.980      857.385
10/29/2013  10:48:00      125.354       53.742       13.090       77.032       41.998       32.164     5933.863     1763.807     1034.534        1.375        0.437      136.388       25.072        0.034      333.598        3.017      857.400
10/29/2013  10:49:00       52.115       43.444       13.316       65.735       50.663       39.341     4321.136     2566.768     1547.753        0.661        0.422       67.848       10.737        0.025      333.632        3.076      857.414
10/29/2013  10:50:00       59.108       98.192        2.278       77.264       78.668       40.258     5969.736     6188.715     1620.708        1.346        0.689      114.610       39.088        0.116      333.603        3.025      857.413
10/29/2013  10:51:00      124.958       84.053       40.210       95.061       80.353       53.966     9036.511     6456.632     2912.349        2.135        0.920      150.596       26.895        0.032      333.553        2.941      857.395
10/29/2013  10:52:00      141.477      138.195        5.740       92.762       59.547       52.660     8604.788     3545.852     2773.105        2.703        0.746      197.772       48.905        0.061      333.534        2.910      857.395
10/29/2013  10:53:00      137.302       71.102       16.099       85.863       66.215       44.701     7372.524     4384.364     1998.206        1.896        0.688      154.620       40.490        0.069      333.565        2.963      857.407
10/29/2013  10:54:00       51.760       42.723       34.938       40.599       31.645       39.225     1648.281     1001.379     1538.580        0.496        0.209       67.114       28.013        0.174      333.654        3.110      857.435
10/29/2013  10:55:00       50.973       61.036       28.568       51.805       42.222       46.403     2683.796     1782.729     2153.281        0.688        0.331       79.521       27.601        0.120      333.665        3.128      857.449
10/29/2013  10:56:00       43.371      105.273       -8.320       46.976       50.318       35.764     2206.753     2531.858     1279.058        0.952        0.301      113.857       29.104        0.065      333.623        3.059      857.449
10/29/2013  10:57:00       23.782       88.689       -9.423       31.599       52.956       24.623      998.483     2804.323      606.293        0.646        0.220       91.823       31.153        0.115      333.576        2.982      857.448
10/29/2013  10:58:00      100.124       51.485        3.253       75.065       41.281       29.246     5634.788     1704.134      855.343        1.044        0.410      112.586       33.638        0.089      333.634        3.077      857.447
10/29/2013  10:59:00       85.559      118.808       -3.991       84.793       74.173       46.931     7189.866     5501.596     2202.520        1.817        0.745      146.409       46.118        0.099      333.540        2.920      857.472
10/29/2013  11:00:00      116.659      125.178        4.298       81.410       67.065       55.057     6627.613     4497.703     3031.283        2.172        0.708      171.111       37.766        0.049      333.562        2.956      857.478
10/29/2013  11:01:00      115.054      113.051        9.644       61.589       46.734       49.418     3793.260     2184.097     2442.093        1.726        0.421      161.301       30.202        0.035      333.598        3.018      857.489
10/29/2013  11:02:00      154.690      105.961       23.521       77.875       52.920       41.907     6064.478     2800.513     1756.226        2.316        0.531      187.501       25.560        0.019      333.610        3.035      857.503
10/29/2013  11:03:00      125.496      136.468       -4.559       88.752       90.508       54.945     7876.876     8191.766     3018.908        2.674        0.954      185.399       47.801        0.066      333.591        3.003      857.523
10/29/2013  11:04:00       95.957      165.874      -12.535       72.285       94.812       51.159     5225.192     8989.225     2617.290        2.685        0.842      191.630       47.677        0.062      333.599        3.015      857.536
10/29/2013  11:05:00      121.140       87.422       20.883       58.220       49.425       50.332     3389.599     2442.787     2533.326        1.556        0.418      149.391       31.053        0.043      333.610        3.037      857.562
10/29/2013  11:06:00      109.576       77.782       11.270       44.777       46.486       33.617     2004.997     2160.991     1130.129        1.174        0.265      134.376       18.227        0.018      333.633        3.074      857.577
10/29/2013  11:07:00       69.299       70.515       42.276       54.113       44.548       51.781     2928.196     1984.513     2681.267        0.958        0.380       98.867       37.050        0.140      333.729        3.233      857.608
10/29/2013  11:08:00      128.981       83.789       10.917       57.605       48.811       36.607     3318.342     2382.483     1340.107        1.541        0.352      153.808       30.296        0.039      333.638        3.084      857.643
10/29/2013  11:09:00      176.483      134.939       24.526       91.161       74.907       56.364     8310.281     5611.010     3176.886        3.352        0.855      222.159       39.632        0.032      333.589        3.000      857.669
10/29/2013  11:10:00      135.291      144.438        4.187       92.260       81.768       65.808     8511.985     6686.086     4330.671        2.935        0.976      197.904       55.800        0.079      333.537        2.913      857.700
10/29/2013  11:11:00       60.718       51.583        4.390       52.776       59.089       35.487     2785.287     3491.475     1259.293        0.695        0.377       79.671       10.374        0.017      333.619        3.052      857.710
10/29/2013  11:12:00      110.931       71.191       13.392       58.909       53.077       31.855     3470.321     2817.116     1014.711        1.243        0.365      131.810       21.664        0.027      333.652        3.107      857.736
10/29/2013  11:13:00       21.237       55.654        2.122       55.476       51.084       31.398     3077.629     2609.540      985.836        0.511        0.334       59.568       29.344        0.243      333.674        3.143      857.765
10/29/2013  11:14:00       36.474       81.172      -11.181       46.025       82.094       25.230     2118.259     6739.350      636.560        0.877        0.475       88.990       19.119        0.046      333.683        3.158      857.795
10/29/2013  11:15:00       84.512       92.494      -13.405       47.159       51.254       30.208     2223.969     2626.975      912.516        1.082        0.288      125.289       28.097        0.050      333.733        3.243      857.820
10/29/2013  11:16:00      104.555      112.175       -3.182       79.141       48.684       39.195     6263.245     2370.091     1536.242        1.685        0.508      153.346       28.776        0.035      333.647        3.098      857.831
10/29/2013  11:17:00      120.601      145.548       22.409      106.194       91.783       77.554    11277.227     8424.037     6014.633        3.097        1.286      189.021       56.483        0.089      333.570        2.969      857.835
10/29/2013  11:18:00      171.285      115.131        5.875       85.249       67.982       50.084     7267.391     4621.612     2508.365        2.851        0.720      206.382       38.211        0.034      333.585        2.995      857.832
10/29/2013  11:19:00      154.116      154.681       13.657      108.896       86.924       57.896    11858.439     7555.804     3351.936        3.531        1.138      218.353       46.981        0.046      333.563        2.958      857.835
10/29/2013  11:20:00      191.354      101.353       38.050      111.940       81.786       60.510    12530.573     6688.998     3661.486        3.560        1.144      216.538       31.646        0.021      333.595        3.011      857.822
10/29/2013  11:21:00       92.960      142.741        3.796       76.084      117.249       63.426     5788.829    13747.357     4022.856        2.629        1.178      170.343       63.714        0.140      333.599        3.018      857.836
10/29/2013  11:22:00       58.957      198.401      -22.441       57.523       66.765       49.613     3308.894     4457.563     2461.440        2.678        0.511      206.976       36.568        0.031      333.621        3.054      857.832
10/29/2013  11:23:00       24.227      119.752       -5.453       44.521       68.181       36.937     1982.147     4648.673     1364.329        1.147        0.400      122.178       27.702        0.051      333.681        3.154      857.846
10/29/2013  11:24:00       45.085       61.098       -3.432       41.326       63.028       31.757     1707.832     3972.476     1008.532        0.623        0.334       75.932       29.413        0.150      333.732        3.239      857.864
10/29/2013  11:25:00       85.791       38.672        0.931       70.776       49.703       38.201     5009.187     2470.386     1459.336        0.890        0.447       94.104       25.670        0.074      333.742        3.257      857.896
10/29/2013  11:26:00       84.176       86.055        2.583       79.505       46.015       34.267     6321.104     2117.396     1174.210        1.205        0.481      120.379       22.277        0.034      333.662        3.123      857.913
10/29/2013  11:27:00       78.628       60.586        6.677       51.852       37.197       30.250     2688.591     1383.642      915.057        0.744        0.249       99.262       19.728        0.040      333.683        3.157      857.922
10/29/2013  11:28:00       75.979       73.307       -1.637       44.890       52.162       41.248     2015.076     2720.829     1701.420        0.879        0.322      105.579       36.427        0.119      333.687        3.164      857.922
10/29/2013  11:29:00       71.115      102.851       -3.617       64.317       52.745       32.116     4136.723     2782.017     1031.464        1.180        0.398      125.043       34.285        0.075      333.702        3.188      857.927
10/29/2013  11:30:00      144.656       78.771       24.785      102.207       62.010       63.313    10446.219     3845.231     4008.488        2.302        0.915      164.713       43.660        0.070      333.761        3.285      857.929
10/29/2013  11:31:00      107.950       73.569       31.168       72.045       40.550       37.602     5190.464     1644.313     1413.883        1.314        0.412      130.635       17.881        0.019      333.761        3.285      857.941
10/29/2013  11:32:00       43.629       77.514       42.509       89.711       68.927       53.985     8048.121     4750.893     2914.414        1.271        0.786       88.949       34.110        0.147      333.808        3.366      857.941
10/29/2013  11:33:00       44.771      136.139      -17.280       62.353       58.398       32.900     3887.836     3410.383     1082.381        1.461        0.419      143.312       30.369        0.045      333.718        3.214      857.964
10/29/2013  11:34:00      135.044      112.017       22.035       81.477       59.199       56.650     6638.529     3504.522     3209.179        2.231        0.668      175.456       33.555        0.037      333.668        3.132      857.974
10/29/2013  11:35:00       45.975       63.042       13.868       79.810       68.865       53.660     6369.578     4742.377     2879.380        1.013        0.700       78.026       38.336        0.241      333.731        3.237      857.984
10/29/2013  11:36:00      104.720      164.349       -0.162       97.501       91.924       68.820     9506.360     8450.112     4736.164        3.033        1.135      194.877       63.530        0.106      333.622        3.055      858.003
10/29/2013  11:37:00      162.030      105.026       11.067      102.183       68.012       51.300    10441.458     4625.676     2631.646        2.755        0.885      193.092       40.808        0.045      333.659        3.117      858.003
10/29/2013  11:38:00      158.285      130.297        2.905      104.671       68.507       56.033    10955.940     4693.156     3139.659        3.041        0.939      205.016       40.795        0.040      333.598        3.015      858.000
10/29/2013  11:39:00      142.848       90.621       32.051       54.688       40.895       46.383     2990.732     1672.394     2151.375        1.823        0.341      169.168       25.981        0.024      333.649        3.100      857.989
10/29/2013  11:40:00      151.396       66.518       22.100       50.339       55.937       49.820     2533.983     3128.958     2482.032        1.799        0.407      165.364       21.651        0.017      333.660        3.118      857.990
10/29/2013  11:41:00      163.718      127.704       42.654       82.088       56.815       67.245     6738.472     3227.937     4521.939        2.971        0.724      207.634       46.322        0.050      333.636        3.078      857.998
10/29/2013  11:42:00      158.491      105.072        2.420       64.594       64.239       47.264     4172.331     4126.611     2233.878        2.335        0.527      190.157       32.649        0.029      333.633        3.074      858.012
10/29/2013  11:43:00      113.653       81.740        3.441       76.276       54.935       49.288     5818.059     3017.854     2429.312        1.544        0.563      139.995       31.501        0.051      333.680        3.152      858.030
10/29/2013  11:44:00       98.126      104.118        6.062       68.021       65.872       45.874     4626.861     4339.145     2104.425        1.579        0.554      143.071       37.284        0.068      333.686        3.161      858.057
10/29/2013  11:45:00      127.954       88.648       14.253       83.218       67.410       54.983     6925.268     4544.163     3023.178        1.946        0.725      155.662       41.540        0.071      333.692        3.172      858.060
10/29/2013  11:46:00       58.346       78.186       22.063       77.377       47.489       46.871     5987.244     2255.192     2196.931        1.022        0.522       97.557       29.474        0.091      333.732        3.238      858.057
10/29/2013  11:47:00      101.255       88.453       11.798       70.411       45.476       37.290     4957.660     2068.061     1390.539        1.331        0.421      134.449       28.057        0.044      333.725        3.227      858.062
10/29/2013  11:48:00      166.618      104.361       22.937       73.754       57.835       45.119     5439.630     3344.898     2035.769        2.500        0.541      196.603       40.099        0.042      333.735        3.243      858.062
10/29/2013  11:49:00       72.763      166.528      -15.815       58.787       84.601       43.351     3455.966     7157.269     1879.330        2.288        0.625      181.731       43.492        0.057      333.746        3.260      858.059
10/29/2013  11:50:00       44.134       82.790       -0.654       53.453       56.439       36.637     2857.185     3185.312     1342.255        0.809        0.369       93.819       42.303        0.203      333.740        3.254      858.072
10/29/2013  11:51:00       35.544       35.212        3.968       34.194       28.425       20.767     1169.238      807.958      431.285        0.246        0.120       50.032       12.110        0.059      333.791        3.339      858.083
10/29/2013  11:52:00       46.586       36.194        9.810       25.066       33.344       17.182      628.319     1111.836      295.224        0.281        0.102       58.994       16.542        0.079      333.883        3.491      858.091
10/29/2013  11:53:00       48.119      132.745       -1.447       92.774       97.563       53.197     8607.073     9518.636     2829.961        2.044        1.048      141.198       54.497        0.149      333.816        3.378      858.107
10/29/2013  11:54:00       11.516       29.872        9.317       74.217       48.285       38.753     5508.161     2331.427     1501.796        0.523        0.467       32.015       26.824        0.702      333.964        3.624      858.113
10/29/2013  11:55:00       40.738       92.685        6.236       58.939       99.206       37.016     3473.822     9841.816     1370.176        1.248        0.734      101.243       42.800        0.179      333.849        3.432      858.121
10/29/2013  11:56:00       -0.630      184.344      -19.865       47.638       55.456       32.462     2269.377     3075.400     1053.810        2.039        0.320      184.345       29.216        0.025      333.844        3.422      858.130
10/29/2013  11:57:00       65.370       62.633       -3.760       35.632       35.757       30.451     1269.619     1278.587      927.268        0.584        0.174       90.532       19.516        0.046      333.950        3.601      858.131
10/29/2013  11:58:00       75.226       68.570        5.020       52.729       36.605       33.961     2780.364     1339.927     1153.355        0.783        0.264      101.788       28.096        0.076      333.916        3.547      858.132
10/29/2013  11:59:00       74.182       57.637        7.602       36.547       30.832       28.763     1335.714      950.607      827.335        0.600        0.156       93.942       16.082        0.029      333.894        3.508      858.135
10/29/2013  12:00:00       58.972       23.553        8.176       33.539       29.549       20.007     1124.881      873.153      400.276        0.325        0.120       63.502        9.311        0.021      333.915        3.543      858.138
10/29/2013  12:01:00       37.382       46.380       33.633       31.824       18.502       30.467     1012.750      342.314      928.218        0.348        0.114       59.569       29.052        0.238      333.950        3.603      858.140
10/29/2013  12:02:00       33.554       43.511       29.342       37.920       31.251       34.562     1437.901      976.597     1194.553        0.374        0.180       54.946       22.479        0.167      333.992        3.672      858.165
10/29/2013  12:03:00       33.359       98.750      -12.201       37.879       47.000       27.712     1434.820     2209.028      767.964        0.771        0.221      104.232       25.104        0.058      333.955        3.609      858.181
10/29/2013  12:04:00       63.795       66.551      -12.209       23.333       28.475       17.530      544.412      810.808      307.285        0.515        0.083       92.189       12.020        0.017      333.936        3.579      858.187
10/29/2013  12:05:00       39.427       48.124        4.760       39.650       19.024       16.943     1572.097      361.909      287.061        0.306        0.111       62.213        7.132        0.013      334.020        3.717      858.194
10/29/2013  12:06:00      102.563       49.686       29.803       43.160       26.889       35.199     1862.792      722.999     1238.999        0.885        0.191      113.964       22.055        0.037      334.026        3.728      858.197
10/29/2013  12:07:00       58.593       63.214        6.987       51.237       38.815       34.623     2625.273     1506.588     1198.721        0.640        0.267       86.193       25.415        0.087      334.041        3.752      858.212
10/29/2013  12:08:00       24.422       68.633       -1.812       42.362       50.626       30.132     1794.571     2563.011      907.946        0.529        0.263       72.849       28.771        0.156      334.015        3.709      858.223
10/29/2013  12:09:00       68.743       68.945       -2.019       33.923       34.842       22.213     1150.779     1213.936      493.405        0.617        0.143       97.360       20.146        0.043      333.961        3.620      858.227
10/29/2013  12:10:00       35.148       86.485       -0.362       35.517       47.774       29.892     1261.426     2282.376      893.553        0.658        0.222       93.354       28.094        0.091      333.958        3.616      858.232
10/29/2013  12:11:00       26.033      103.662       -8.988       25.520       51.110       28.762      651.284     2612.208      827.245        0.780        0.205      106.881       32.281        0.091      334.014        3.707      858.245
10/29/2013  12:12:00       15.062       25.608        5.426       33.817       30.256       30.452     1143.556      915.441      927.314        0.195        0.149       29.709       18.389        0.383      334.019        3.716      858.249
10/29/2013  12:13:00       20.602       57.604       -6.928       30.722       30.266       15.058      943.816      916.017      226.754        0.294        0.104       61.178       18.971        0.096      334.033        3.739      858.241
10/29/2013  12:14:00       94.950       70.923       -7.696       45.569       29.495       26.788     2076.546      869.945      717.577        0.888        0.183      118.514       14.002        0.014      334.000        3.684      858.229
10/29/2013  12:15:00      142.845       78.206        3.279       49.812       40.890       36.973     2481.191     1671.951     1366.975        1.602        0.276      162.852       14.805        0.008      333.875        3.479      858.226
10/29/2013  12:16:00       96.119       79.575       20.276       45.377       28.887       36.249     2059.082      834.446     1313.970        1.009        0.210      124.784       29.550        0.056      333.959        3.615      858.230
10/29/2013  12:17:00      100.582       65.655       16.097       33.443       27.085       23.754     1118.428      733.608      564.267        0.855        0.121      120.113       15.120        0.016      333.832        3.407      858.246
10/29/2013  12:18:00       94.614       45.710       12.477       45.542       39.900       30.808     2074.048     1592.034      949.115        0.791        0.231      105.077       16.644        0.025      333.907        3.529      858.233
10/29/2013  12:19:00      139.605       86.995       31.240       38.923       25.030       31.544     1514.967      626.509      995.036        1.558        0.157      164.493       22.817        0.019      333.835        3.409      858.239
10/29/2013  12:20:00      134.694       84.378        2.493       24.542       27.614       25.903      602.332      762.551      670.974        1.365        0.102      158.940       11.950        0.006      333.795        3.344      858.256
10/29/2013  12:21:00      125.092       68.754       10.547       20.855       23.155       23.929      434.935      536.137      572.594        1.101        0.077      142.741        8.162        0.003      333.829        3.401      858.274
10/29/2013  12:22:00      109.477       66.033        8.249       26.604       36.589       26.813      707.779     1338.772      718.954        0.959        0.138      127.850       14.029        0.012      333.918        3.549      858.295
10/29/2013  12:23:00       72.400       54.999       11.025       40.793       38.342       32.850     1664.056     1470.090     1079.117        0.630        0.211       90.921       22.424        0.061      333.950        3.600      858.308
10/29/2013  12:24:00       75.664       60.733       -1.153       51.607       40.775       28.959     2663.270     1662.601      838.627        0.729        0.258       97.023       23.479        0.059      333.941        3.585      858.316
10/29/2013  12:25:00       70.253       48.065       10.372       37.808       24.571       23.187     1429.454      603.747      537.658        0.496        0.129       85.122       14.724        0.030      333.993        3.672      858.300
10/29/2013  12:26:00       86.435       73.744       10.362       62.065       39.283       36.271     3852.050     1543.161     1315.572        0.986        0.336      113.619       32.072        0.080      333.983        3.654      858.280
10/29/2013  12:27:00       55.109       21.115       20.105       67.176       33.022       23.570     4512.632     1090.461      555.555        0.502        0.308       59.016       20.651        0.122      334.068        3.797      858.271
10/29/2013  12:28:00      -23.747       38.269       -0.920       33.307       49.106       25.523     1109.357     2411.379      651.415        0.310        0.209       45.038       21.993        0.238      334.138        3.914      858.276
10/29/2013  12:29:00      -24.868      130.629      -14.320       29.026       58.398       26.915      842.497     3410.357      724.419        1.143        0.249      132.975       30.746        0.053      334.068        3.796      858.281
10/29/2013  12:30:00      -31.549       66.129        3.345       30.617       53.686       29.073      937.428     2882.217      845.240        0.502        0.233       73.270       30.461        0.173      334.242        4.086      858.250
10/29/2013  12:31:00        5.454      127.582      -13.708       31.739       62.455       26.955     1007.395     3900.687      726.566        1.106        0.282      127.698       32.713        0.066      334.170        3.965      858.217
10/29/2013  12:32:00       -0.711      116.140      -13.910       28.089       30.388       22.791      788.972      923.448      519.422        0.796        0.112      116.142       10.134        0.008      334.117        3.877      858.205
10/29/2013  12:33:00      -10.057      195.791      -28.299       35.674       40.561       19.629     1272.615     1645.217      385.296        2.127        0.165      196.049        7.820        0.002      334.047        3.761      858.206
10/29/2013  12:34:00      -36.657      210.793      -22.320       29.016       52.283       23.175      841.925     2733.551      537.077        2.519        0.206      213.956       26.876        0.016      334.092        3.834      858.207
10/29/2013  12:35:00      -42.355      110.379       -0.967       39.765       60.046       31.329     1581.236     3605.531      981.493        1.007        0.308      118.226       34.208        0.084      334.325        4.223      858.202
10/29/2013  12:36:00       -4.025      166.310      -23.051       43.736       47.100       26.156     1912.868     2218.403      684.147        1.651        0.241      166.359       21.115        0.016      334.132        3.902      858.195
10/29/2013  12:37:00      -39.335      230.311      -28.561       43.157       51.926       29.538     1862.549     2696.343      872.472        3.042        0.272      233.646       24.875        0.011      334.148        3.925      858.190
10/29/2013  12:38:00      -54.830      179.091      -21.139       37.626       73.558       35.553     1415.685     5410.765     1264.007        2.181        0.405      187.297       37.333        0.040      334.235        4.070      858.187
10/29/2013  12:39:00      -22.695      167.439      -13.834       29.156       45.892       25.912      850.086     2106.049      671.433        1.618        0.181      168.970       25.894        0.023      334.203        4.021      858.171
10/29/2013  12:40:00      -18.272      126.033       -5.106       28.144       41.410       26.569      792.099     1714.808      705.932        0.973        0.161      127.351       25.337        0.040      334.291        4.166      858.162
10/29/2013  12:41:00       16.844      133.094      -13.353       40.515       48.933       23.507     1641.442     2394.475      552.596        1.138        0.229      134.155       22.776        0.029      334.217        4.045      858.164
10/29/2013  12:42:00       26.585      131.242      -11.391       52.463       64.071       37.122     2752.329     4105.146     1378.065        1.315        0.412      133.907       30.736        0.053      334.211        4.034      858.160
10/29/2013  12:43:00        3.547      173.912      -22.409       24.740       40.618       22.408      612.083     1649.853      502.099        1.676        0.138      173.948       18.631        0.011      334.122        3.886      858.166
10/29/2013  12:44:00       20.321      134.372      -13.780       45.922       44.954       31.795     2108.805     2020.822     1010.946        1.190        0.257      135.900       24.421        0.032      334.259        4.114      858.157
10/29/2013  12:45:00       -1.927       54.100       -1.227       37.107       62.565       31.173     1376.942     3914.321      971.730        0.460        0.313       54.134       36.730        0.460      334.370        4.299      858.138
10/29/2013  12:46:00       -2.882      118.450      -17.959       44.471       54.726       28.560     1977.672     2994.904      815.667        1.007        0.289      118.485       31.713        0.072      334.224        4.056      858.126
10/29/2013  12:47:00       53.986       88.443       -1.992       44.118       37.560       34.015     1946.400     1410.783     1157.014        0.763        0.226      103.617       26.326        0.065      334.317        4.211      858.122
10/29/2013  12:48:00       31.342      124.321      -13.068       51.431       48.643       29.191     2645.177     2366.180      852.111        1.124        0.293      128.211       31.807        0.062      334.209        4.030      858.121
10/29/2013  12:49:00       28.959      101.241       -7.546       46.945       52.882       34.594     2203.802     2796.465     1196.722        0.867        0.310      105.301       36.070        0.117      334.244        4.090      858.123
10/29/2013  12:50:00       68.366       82.222        6.770       56.472       49.211       44.673     3189.031     2421.683     1995.680        0.954        0.380      106.931       30.137        0.079      334.297        4.176      858.118
10/29/2013  12:51:00       23.934      147.835      -13.574       38.386       41.046       30.553     1473.518     1684.761      933.500        1.335        0.205      149.760       22.547        0.023      334.283        4.152      858.109
10/29/2013  12:52:00       27.101       76.302      -11.472       34.683       41.876       26.932     1202.939     1753.560      725.325        0.518        0.184       80.972       27.585        0.116      334.317        4.210      858.113
10/29/2013  12:53:00       -9.782       74.989        1.381       34.463       39.284       28.156     1187.704     1543.272      792.751        0.462        0.176       75.625       22.353        0.087      334.396        4.342      858.098
10/29/2013  12:54:00       27.241       51.119       10.280       38.326       46.916       24.501     1468.888     2201.123      600.315        0.386        0.214       57.924       25.728        0.197      334.411        4.367      858.098
10/29/2013  12:55:00       70.963       65.059       18.089       37.131       33.388       37.587     1378.680     1114.771     1412.788        0.675        0.195       96.273       19.764        0.042      334.322        4.220      858.098
10/29/2013  12:56:00        3.056      103.979      -13.193       56.135       36.719       19.832     3151.125     1348.255      393.302        0.794        0.245      104.024       21.057        0.041      334.217        4.044      858.095
10/29/2013  12:57:00      -35.320      172.816      -32.860       42.509       49.495       26.009     1807.039     2449.801      676.472        1.856        0.247      176.389       24.731        0.020      334.262        4.117      858.085
10/29/2013  12:58:00      -12.679      166.108      -16.403       71.529       87.260       39.890     5116.428     7614.246     1591.225        2.117        0.716      166.591       46.002        0.076      334.362        4.282      858.068
10/29/2013  12:59:00       16.008       39.884       12.087       34.704       50.844       36.579     1204.352     2585.092     1338.034        0.356        0.256       42.977       29.506        0.471      334.355        4.274      858.080
10/29/2013  13:00:00       31.947       42.687        7.210       50.016       35.742       34.193     2501.583     1277.465     1169.191        0.392        0.247       53.318       22.949        0.185      334.341        4.250      858.074
10/29/2013  13:01:00       59.160       59.039       -0.971       32.959       29.298       27.008     1086.281      858.392      729.426        0.483        0.134       83.579       22.873        0.075      334.294        4.172      858.074
10/29/2013  13:02:00       49.003      138.800       -9.908       28.335       58.994       41.545      802.879     3480.329     1726.018        1.389        0.300      147.196       35.756        0.059      334.173        3.971      858.061
10/29/2013  13:03:00       33.770      121.773      -16.303       32.042       48.048       28.108     1026.675     2308.567      790.077        1.018        0.206      126.369       23.172        0.034      334.114        3.873      858.052
10/29/2013  13:04:00      120.673       72.923       24.047       46.755       37.081       28.900     2185.992     1375.033      835.211        1.243        0.220      140.995       23.125        0.027      334.223        4.055      858.036
10/29/2013  13:05:00      113.557       86.754       45.844       71.651       52.084       41.110     5133.846     2712.747     1690.052        1.603        0.477      142.904       25.812        0.033      334.186        3.992      858.021
10/29/2013  13:06:00       35.104       58.167       -4.840       36.246       41.539       20.497     1313.741     1725.496      420.147        0.405        0.173       67.938       19.979        0.086      334.313        4.204      858.014
10/29/2013  13:07:00       90.013      109.115      -10.019       53.472       56.305       37.743     2859.266     3170.300     1424.550        1.378        0.373      141.452       35.460        0.063      334.272        4.135      857.995
10/29/2013  13:08:00       60.506       82.694        4.862       44.475       52.253       41.707     1978.057     2730.331     1739.434        0.848        0.322      102.466       27.702        0.073      334.262        4.119      857.973
10/29/2013  13:09:00       40.709      121.442       -9.766       44.079       57.318       38.356     1942.920     3285.405     1471.195        1.160        0.335      128.083       33.705        0.069      334.258        4.111      857.960
10/29/2013  13:10:00       43.716       63.718      -12.411       38.583       53.062       33.499     1488.670     2815.576     1122.154        0.577        0.271       77.272       32.975        0.182      334.271        4.134      857.958
10/29/2013  13:11:00       84.898       35.426        4.148       58.774       45.811       30.309     3454.422     2098.655      918.646        0.747        0.324       91.993       23.275        0.064      334.277        4.143      857.943
10/29/2013  13:12:00       99.298       60.542        2.365       42.202       26.602       24.230     1780.970      707.641      587.116        0.830        0.154      116.299        9.349        0.006      334.282        4.154      857.937
10/29/2013  13:13:00       88.242       73.656        3.334       33.771       25.152       27.518     1140.461      632.599      757.242        0.788        0.127      114.943       18.197        0.025      334.291        4.166      857.930
10/29/2013  13:14:00      103.308       60.941       -2.451       43.250       26.784       27.752     1870.532      717.362      770.196        0.887        0.168      119.943       15.980        0.018      334.290        4.164      857.923
10/29/2013  13:15:00       16.608      125.949       -8.514       40.785       68.035       32.765     1663.435     4628.710     1073.524        1.179        0.368      127.039       30.839        0.059      334.386        4.324      857.921
10/29/2013  13:16:00       50.216       58.213        9.927       52.228       45.088       25.765     2727.783     2032.940      663.824        0.572        0.271       76.879       24.366        0.100      334.481        4.482      857.916
10/29/2013  13:17:00       53.430       76.079        1.397       64.311       39.358       30.126     4135.882     1549.072      907.547        0.762        0.330       92.967       28.969        0.097      334.433        4.403      857.914
10/29/2013  13:18:00      -34.049      116.085      -10.986       24.260       39.109       26.337      588.546     1529.552      693.618        0.878        0.141      120.975       22.580        0.035      334.601        4.681      857.912
10/29/2013  13:19:00      -41.160       25.379        7.449       37.699       32.378       24.304     1421.215     1048.313      590.706        0.273        0.153       48.356       19.692        0.166      334.869        5.127      857.907
10/29/2013  13:20:00      -54.568       68.695      -22.739       33.894       51.926       18.032     1148.775     2696.305      325.150        0.619        0.209       87.731       10.022        0.013      334.729        4.893      857.907
10/29/2013  13:21:00        9.887       85.739        7.539       45.171       38.653       29.272     2040.399     1494.080      856.856        0.595        0.220       86.308       26.675        0.096      334.717        4.873      857.915
10/29/2013  13:22:00      -29.423       82.436       -5.483       36.581       50.040       24.583     1338.155     2503.963      604.312        0.607        0.222       87.530       25.425        0.084      334.707        4.857      857.915
10/29/2013  13:23:00      -48.096      176.909      -15.298       47.149       63.007       29.874     2223.072     3969.942      892.469        2.046        0.354      183.330       28.373        0.024      334.592        4.663      857.917
10/29/2013  13:24:00      -18.053      151.162      -13.953       20.327       58.004       28.661      413.201     3364.521      821.474        1.398        0.230      152.236       32.626        0.046      334.585        4.654      857.925
10/29/2013  13:25:00        5.423      230.765      -33.767       29.910       41.688       21.038      894.580     1737.857      442.583        2.875        0.154      230.828       15.955        0.005      334.498        4.507      857.924
10/29/2013  13:26:00       26.609      124.617      -12.068       31.435       85.063       34.138      988.185     7235.780     1165.425        1.288        0.469      127.427       42.332        0.110      334.524        4.551      857.924
10/29/2013  13:27:00       13.671      104.240      -12.556       39.166       60.901       28.888     1533.999     3708.900      834.527        0.864        0.304      105.133       32.170        0.094      334.628        4.726      857.922
10/29/2013  13:28:00       -1.191      197.454      -15.192       68.996       79.032       43.547     4760.510     6246.032     1896.351        2.606        0.645      197.457       47.622        0.058      334.640        4.741      857.904
10/29/2013  13:29:00     -114.096      131.511      -24.503       47.422       45.164       34.917     2248.850     2039.804     1219.197        1.821        0.275      174.106       28.734        0.027      334.587        4.657      857.898
10/29/2013  13:30:00      -79.761       72.204        5.255       58.875       44.748       36.463     3466.210     2002.406     1329.566        0.920        0.340      107.588       31.556        0.086      334.896        5.172      857.904
10/29/2013  13:31:00     -123.537       -3.918       -7.215       44.955       88.931       32.165     2020.924     7908.669     1034.610        1.314        0.548      123.599        8.644        0.005      334.774        4.966      857.923
10/29/2013  13:32:00     -121.532       -4.985      -10.690       38.023       29.207       22.196     1445.742      853.027      492.648        0.885        0.140      121.634       20.002        0.027      334.548        4.593      857.938
10/29/2013  13:33:00     -101.683      -39.266       -2.325       52.392       37.152       29.341     2744.970     1380.249      860.880        0.844        0.249      109.001       25.840        0.056      334.582        4.649      857.938
10/29/2013  13:34:00     -127.050      -30.482       -3.316       54.584       55.648       32.860     2979.461     3096.684     1079.760        1.212        0.358      130.656       28.671        0.048      334.622        4.715      857.958
10/29/2013  13:35:00     -105.900       -1.867       -2.753       43.572       48.673       20.892     1898.551     2369.023      436.457        0.796        0.235      105.916       18.145        0.029      334.630        4.728      857.961
10/29/2013  13:36:00      -21.475      -23.911        2.873       26.237       28.834       21.094      688.365      831.393      444.969        0.150        0.098       32.138       16.749        0.272      334.739        4.911      857.955
10/29/2013  13:37:00      -12.336        6.459       -0.417       18.102       22.837       16.038      327.693      521.508      257.204        0.065        0.055       13.925       11.002        0.624      334.879        5.143      857.963
10/29/2013  13:38:00      -18.503       -3.627        3.126       28.925       31.623       19.154      836.654      999.983      366.860        0.128        0.110       18.855       18.170        0.929      334.824        5.052      857.976
10/29/2013  13:39:00      -37.822       -5.050        0.324       48.404       27.060       24.623     2342.972      732.240      606.289        0.257        0.184       38.157       28.619        0.563      334.777        4.975      857.987
10/29/2013  13:40:00     -152.131       20.162      -21.223       58.198       46.850       23.853     3387.003     2194.892      568.968        1.507        0.308      153.462       17.871        0.014      334.635        4.735      857.987
10/29/2013  13:41:00     -166.087       22.355      -17.229       63.968       39.050       25.384     4091.950     1524.868      644.339        1.732        0.313      167.585       21.354        0.016      334.741        4.911      857.984
10/29/2013  13:42:00     -198.660      -24.489      -14.733       66.063       48.467       32.860     4364.384     2349.048     1079.788        2.404        0.390      200.163       34.236        0.029      334.593        4.664      857.986
10/29/2013  13:43:00      -56.431       -8.486        7.887       55.883       53.331       29.198     3122.888     2844.225      852.545        0.507        0.341       57.065       28.508        0.250      334.681        4.813      857.967
10/29/2013  13:44:00     -112.479      -42.447       -5.717       41.565       41.347       23.881     1727.647     1709.600      570.287        0.925        0.200      120.222       15.173        0.016      334.558        4.609      857.956
10/29/2013  13:45:00      -25.563       30.865       -7.356       52.169       29.502       24.561     2721.583      870.384      603.234        0.293        0.210       40.077       27.466        0.470      334.705        4.853      857.945
10/29/2013  13:46:00      -24.081      180.781      -24.380       71.822       85.223       38.407     5158.405     7262.933     1475.089        2.387        0.695      182.378       46.124        0.064      334.597        4.671      857.939
10/29/2013  13:47:00      -55.585      229.488      -33.202       65.617       84.096       30.114     4305.636     7072.102      906.882        3.457        0.614      236.124       33.885        0.021      334.592        4.663      857.939
10/29/2013  13:48:00      -88.473      127.606      -11.366       47.098       65.356       31.401     2218.189     4271.447      986.025        1.586        0.374      155.276       17.687        0.013      334.582        4.648      857.951
10/29/2013  13:49:00      -78.619      133.491      -16.976       45.271       65.278       30.745     2049.502     4261.281      945.278        1.577        0.363      154.922       19.562        0.016      334.629        4.726      857.952
10/29/2013  13:50:00     -157.347       95.655      -15.620       54.924       67.260       41.886     3016.648     4523.928     1754.454        2.172        0.465      184.141       32.119        0.030      334.540        4.579      857.961
10/29/2013  13:51:00     -120.325      122.259      -22.515       67.029       61.531       42.348     4492.841     3786.092     1793.335        2.000        0.504      171.538       42.364        0.061      334.581        4.645      857.948
10/29/2013  13:52:00     -142.589       34.744      -11.531       75.588       69.187       33.835     5713.568     4786.817     1144.782        1.666        0.582      146.761       37.748        0.066      334.565        4.620      857.917
10/29/2013  13:53:00     -108.542       40.071       -6.414       77.493       51.165       44.903     6005.098     2617.889     2016.320        1.203        0.532      115.702       45.194        0.153      334.618        4.709      857.894
10/29/2013  13:54:00     -184.817        2.736      -22.341       94.432       45.401       36.270     8917.439     2061.242     1315.544        2.348        0.615      184.838       37.396        0.041      334.536        4.570      857.890
10/29/2013  13:55:00     -146.056       -5.344      -21.463       44.841       48.490       23.242     2010.729     2351.295      540.193        1.336        0.245      146.153       21.458        0.022      334.547        4.591      857.886
10/29/2013  13:56:00      -77.122       88.817      -21.770       30.216       58.337       32.210      913.037     3403.249     1037.512        0.983        0.268      117.628       19.823        0.028      334.631        4.730      857.911
10/29/2013  13:57:00      -72.341       13.814        0.288       50.927       32.817       28.233     2593.593     1076.965      797.083        0.495        0.223       73.648       29.448        0.160      334.700        4.846      857.926
10/29/2013  13:58:00      -34.633      148.485      -18.605       37.897       83.799       29.735     1436.176     7022.275      884.173        1.647        0.467      152.470       34.918        0.052      334.632        4.730      857.951
10/29/2013  13:59:00      -15.046      218.145      -29.000       57.578       58.259       33.764     3315.278     3394.123     1140.017        2.825        0.392      218.664       36.448        0.028      334.608        4.688      857.959
10/29/2013  14:00:00      -16.711      146.257      -13.569       43.313       77.042       31.191     1876.023     5935.475      972.892        1.532        0.439      147.208       22.042        0.022      334.577        4.639      857.960
10/29/2013  14:01:00       68.929       89.541        6.195       66.511       61.689       39.021     4423.772     3805.527     1522.626        1.128        0.488      112.999       36.396        0.104      334.632        4.732      857.952
10/29/2013  14:02:00      111.071      152.643        9.926       76.324       79.809       59.521     5825.416     6369.493     3542.765        2.573        0.787      188.777       56.116        0.088      334.453        4.434      857.937
10/29/2013  14:03:00       37.434      139.945       -8.245       47.144       76.627       40.542     2222.528     5871.737     1643.650        1.539        0.487      144.865       37.454        0.067      334.513        4.534      857.936
10/29/2013  14:04:00       -1.289      103.553       -0.318       44.432       63.115       32.416     1974.216     3983.508     1050.829        0.887        0.350      103.561       35.261        0.116      334.620        4.714      857.961
10/29/2013  14:05:00       44.004       86.536      -13.243       28.720       82.314       27.632      824.815     6775.551      763.515        0.898        0.418       97.081       24.130        0.062      334.599        4.677      857.977
10/29/2013  14:06:00      -20.797      183.679      -21.909       60.513       67.999       33.361     3661.778     4623.844     1112.974        2.202        0.470      184.853       25.903        0.020      334.511        4.530      857.999
10/29/2013  14:07:00       19.513      108.981       -3.076       45.167       81.454       37.491     2040.062     6634.694     1405.589        1.117        0.504      110.714       38.864        0.123      334.657        4.774      858.001
10/29/2013  14:08:00       69.180      109.092      -10.905       59.264       55.083       37.993     3512.196     3034.111     1443.469        1.240        0.399      129.177       34.057        0.070      334.520        4.546      858.012
10/29/2013  14:09:00       31.233      161.452      -24.082       52.434      101.168       30.975     2749.305    10234.892      959.421        2.078        0.697      164.446       40.823        0.062      334.451        4.428      858.012
10/29/2013  14:10:00       24.004      157.115      -21.262       33.096       90.437       38.591     1095.325     8178.908     1489.248        1.824        0.538      158.938       51.779        0.106      334.450        4.429      858.010
10/29/2013  14:11:00       80.911      132.885       -8.855       70.251       82.453       44.263     4935.192     6798.463     1959.198        1.899        0.685      155.579       51.563        0.110      334.362        4.282      858.012
10/29/2013  14:12:00       66.371       91.284        4.793       53.434       58.377       44.339     2855.216     3407.860     1965.955        1.049        0.411      112.862       39.100        0.120      334.358        4.278      858.016
10/29/2013  14:13:00       97.000      103.185       -8.339       82.928       48.010       37.495     6877.090     2304.996     1405.844        1.536        0.529      141.620       24.531        0.030      334.299        4.177      858.007
10/29/2013  14:14:00       60.393       43.627       16.844       56.100       35.797       34.520     3147.258     1281.448     1191.626        0.573        0.281       74.502       13.038        0.031      334.366        4.292      857.999
10/29/2013  14:15:00      125.573       63.526       -1.029       57.588       44.255       32.300     3316.389     1958.527     1043.258        1.306        0.316      140.728       28.033        0.040      334.297        4.177      857.996
10/29/2013  14:16:00      135.992       92.919        8.914       61.321       40.855       40.454     3760.219     1669.141     1636.545        1.714        0.353      164.705       19.617        0.014      334.289        4.162      857.994
10/29/2013  14:17:00      112.399       81.308        1.819       59.935       44.575       37.782     3592.229     1986.923     1427.445        1.313        0.350      138.725       30.814        0.049      334.375        4.307      858.005
10/29/2013  14:18:00       46.165      162.479      -18.653       54.306       73.236       45.901     2949.125     5363.487     2106.943        1.965        0.521      168.910       43.661        0.067      334.319        4.211      858.019
10/29/2013  14:19:00      133.211      102.046        0.489       52.039       48.585       44.431     2708.055     2360.542     1974.117        1.760        0.352      167.805       35.721        0.045      334.295        4.172      858.029
10/29/2013  14:20:00       86.609       74.000        5.078       89.057       51.419       39.945     7931.098     2643.890     1595.637        1.258        0.609      113.917       24.757        0.047      334.392        4.334      858.034
10/29/2013  14:21:00       76.114       69.534       -4.295       54.115       48.021       34.187     2928.434     2306.046     1168.761        0.852        0.320      103.093       26.075        0.064      334.422        4.384      858.033
10/29/2013  14:22:00       24.085      111.217      -25.304       38.665       75.709       31.706     1495.001     5731.864     1005.267        1.091        0.412      113.794       40.600        0.127      334.375        4.306      858.055
10/29/2013  14:23:00       61.436      122.263      -14.408       65.094       91.008       55.185     4237.198     8282.377     3045.372        1.725        0.778      136.831       49.982        0.133      334.354        4.269      858.071
10/29/2013  14:24:00       19.492      138.068      -11.746       35.467       74.166       27.803     1257.882     5500.646      773.027        1.355        0.377      139.437       30.178        0.047      334.309        4.196      858.070
10/29/2013  14:25:00      184.891      144.684       24.010       91.221       67.833       46.522     8321.290     4601.382     2164.268        3.539        0.754      234.773       24.663        0.011      334.350        4.261      858.076
10/29/2013  14:26:00      126.997       91.791       -0.011      102.319       79.743       42.583    10469.118     6358.907     1813.323        2.159        0.932      156.697       30.256        0.037      334.393        4.335      858.074
10/29/2013  14:27:00       71.770      121.224       -4.052       50.336       85.783       52.987     2533.740     7358.751     2807.582        1.628        0.635      140.876       57.493        0.167      334.382        4.316      858.091
10/29/2013  14:28:00      142.520       63.985       17.552       61.339       50.626       30.021     3762.529     2562.964      901.290        1.597        0.361      156.225       18.048        0.013      334.420        4.379      858.107
10/29/2013  14:29:00       65.285       50.929        6.318       67.265       43.642       26.745     4524.621     1904.624      715.280        0.702        0.357       82.801       27.751        0.112      334.544        4.586      858.124
10/29/2013  14:30:00      111.755       62.725       15.248       56.217       43.013       40.998     3160.386     1850.094     1680.858        1.167        0.335      128.154       31.230        0.059      334.438        4.410      858.133
10/29/2013  14:31:00       61.081      104.443        2.505       56.279       64.853       44.726     3167.310     4205.902     2000.423        1.201        0.469      120.992       41.973        0.120      334.433        4.400      858.135
10/29/2013  14:32:00       82.530       79.876       10.361       65.201       56.441       45.016     4251.121     3185.565     2026.484        1.138        0.473      114.853       35.254        0.094      334.425        4.388      858.133
10/29/2013  14:33:00      128.376       89.673       46.129       43.911       40.431       52.316     1928.214     1634.646     2736.925        1.647        0.315      156.594       22.093        0.020      334.438        4.410      858.138
10/29/2013  14:34:00       60.932      114.955        0.360       72.272       70.432       40.105     5223.292     4960.648     1608.432        1.436        0.590      130.105       38.437        0.087      334.376        4.307      858.145
10/29/2013  14:35:00       64.984       80.493        7.620       58.416       59.259       38.865     3412.400     3511.633     1510.514        0.960        0.422      103.450       38.145        0.136      334.439        4.411      858.142
10/29/2013  14:36:00      120.475       75.037       12.387       38.141       36.305       34.070     1454.760     1318.036     1160.772        1.212        0.197      141.932       23.419        0.027      334.475        4.472      858.151
10/29/2013  14:37:00      101.087       71.819        9.395       76.337       64.034       42.078     5827.342     4100.405     1770.537        1.358        0.585      124.002       37.650        0.092      334.487        4.491      858.170
10/29/2013  14:38:00       47.859      183.067      -25.506       56.250       73.897       42.028     3164.106     5460.740     1766.353        2.342        0.520      189.220       43.826        0.054      334.352        4.265      858.174
10/29/2013  14:39:00       27.100      128.097      -10.722       35.043       84.265       39.744     1228.035     7100.524     1579.596        1.358        0.495      130.932       45.411        0.120      334.432        4.399      858.194
10/29/2013  14:40:00      101.517       62.330       13.185       66.636       44.741       36.617     4440.372     2001.778     1340.827        1.107        0.389      119.124       29.920        0.063      334.410        4.363      858.197
10/29/2013  14:41:00      171.681      132.076       18.379       60.773       52.053       54.413     3693.383     2709.534     2960.812        2.831        0.468      216.606       42.635        0.039      334.237        4.074      858.202
10/29/2013  14:42:00      159.304      102.536       -4.080       88.013       69.715       57.833     7746.275     4860.189     3344.635        2.593        0.798      189.450       33.422        0.031      334.193        4.003      858.212
10/29/2013  14:43:00      150.060      106.588       18.559       80.637       67.504       58.055     6502.374     4556.814     3370.395        2.432        0.721      184.063       34.526        0.035      334.189        3.995      858.225
10/29/2013  14:44:00      196.755       92.594       55.510       93.799       71.102       54.427     8798.215     5055.548     2962.261        3.359        0.841      217.453       44.419        0.042      334.222        4.049      858.222
10/29/2013  14:45:00       99.505       87.604       49.939       62.083       51.467       52.838     3854.328     2648.875     2791.904        1.468        0.465      132.574       31.073        0.055      334.256        4.107      858.226
10/29/2013  14:46:00      114.298       45.405       45.888       70.798       46.889       45.325     5012.342     2198.580     2054.375        1.325        0.463      122.986       28.355        0.053      334.289        4.162      858.230
10/29/2013  14:47:00      166.070       89.889       27.048       60.961       53.047       53.424     3716.289     2813.946     2854.170        2.289        0.469      188.837       35.125        0.035      334.270        4.130      858.241
10/29/2013  14:48:00      137.396      111.663       30.664       67.361       68.312       54.538     4537.494     4666.462     2974.424        2.223        0.609      177.049       31.209        0.031      334.237        4.075      858.265
10/29/2013  14:49:00       99.718       54.358       24.789       76.682       50.588       45.796     5880.155     2559.165     2097.236        1.202        0.527      113.571       25.237        0.049      334.252        4.101      858.272
10/29/2013  14:50:00      135.949       80.031       26.481       53.111       40.758       39.565     2820.802     1661.177     1565.413        1.582        0.302      157.757       28.398        0.032      334.244        4.089      858.281
10/29/2013  14:51:00      117.394       70.761       45.997       77.110       51.383       42.828     5945.901     2640.172     1834.258        1.566        0.521      137.071       25.377        0.034      334.287        4.159      858.297
10/29/2013  14:52:00      118.005       63.998       62.129       75.496       59.374       66.729     5699.666     3525.286     4452.729        1.778        0.684      134.242       35.994        0.072      334.284        4.155      858.322
10/29/2013  14:53:00      109.184       63.785       40.131       64.935       38.236       30.378     4216.495     1462.012      922.818        1.210        0.330      126.450       26.804        0.045      334.299        4.179      858.332
10/29/2013  14:54:00       55.050       51.991       24.292       51.219       39.070       30.259     2623.408     1526.454      915.604        0.569        0.253       75.720       19.866        0.069      334.386        4.325      858.340
10/29/2013  14:55:00      121.725       56.860        3.670       70.906       44.700       41.727     5027.613     1998.065     1741.126        1.341        0.438      134.351       39.025        0.084      334.350        4.265      858.337
10/29/2013  14:56:00       78.301       68.385       16.385       47.129       45.649       42.769     2221.144     2083.845     1829.145        0.860        0.307      103.959       35.616        0.117      334.294        4.173      858.322
10/29/2013  14:57:00      131.444       52.387       13.553       71.923       52.265       40.201     5172.981     2731.614     1616.116        1.486        0.476      141.499       18.385        0.017      334.248        4.096      858.321
10/29/2013  14:58:00      147.000       87.281       14.504       58.335       41.904       36.126     3402.941     1755.932     1305.124        1.795        0.323      170.959       14.913        0.008      334.221        4.049      858.317
10/29/2013  14:59:00      112.199       83.220       10.454       61.173       32.824       38.466     3742.082     1077.406     1479.597        1.296        0.315      139.693       21.199        0.023      334.319        4.214      858.325
10/29/2013  15:00:00       44.729      124.249      -12.970       53.267       77.766       39.643     2837.399     6047.566     1571.591        1.403        0.523      132.055       41.409        0.098      334.380        4.313      858.341
10/29/2013  15:01:00        8.681      173.857      -24.239       42.221       52.222       30.368     1782.596     2727.110      922.193        1.816        0.272      174.074       26.242        0.023      334.388        4.326      858.370
10/29/2013  15:02:00       13.401       66.507       -2.681       38.230       36.476       25.680     1461.502     1330.497      659.462        0.403        0.173       67.844       23.048        0.115      334.566        4.622      858.385
10/29/2013  15:03:00       45.106       85.981        5.275       95.043       60.245       47.595     9033.151     3629.456     2265.246        1.219        0.746       97.094       45.078        0.216      334.356        4.273      858.407
10/29/2013  15:04:00       40.451      110.421       -5.228       43.986       53.632       31.303     1934.812     2876.414      979.882        0.982        0.290      117.597       33.249        0.080      334.446        4.422      858.425
10/29/2013  15:05:00       40.053      145.675      -16.709       39.214       72.487       37.869     1537.735     5254.376     1434.025        1.566        0.411      151.081       43.293        0.082      334.308        4.194      858.429
10/29/2013  15:06:00       92.122       68.537       16.927       73.179       49.380       42.206     5355.110     2438.368     1781.348        1.152        0.479      114.821       30.602        0.071      334.393        4.336      858.442
10/29/2013  15:07:00       43.088      126.265      -10.116       51.135       61.859       36.507     2614.782     3826.547     1332.748        1.284        0.389      133.414       35.227        0.070      334.402        4.350      858.446
10/29/2013  15:08:00      -11.062      157.956      -23.595       52.061       44.047       28.775     2710.349     1940.102      828.008        1.555        0.274      158.343       25.135        0.025      334.425        4.389      858.462
10/29/2013  15:09:00       13.926       74.036       -5.005       43.884       57.222       34.490     1925.817     3274.401     1189.594        0.604        0.319       75.334       27.649        0.135      334.473        4.467      858.459
10/29/2013  15:10:00       14.594      140.611      -20.155       35.027       38.303       22.027     1226.878     1467.093      485.191        1.178        0.159      141.367       16.856        0.014      334.548        4.592      858.467
10/29/2013  15:11:00      110.842       68.961       13.743       74.925       44.013       40.715     5613.722     1937.144     1657.687        1.322        0.460      130.543       22.855        0.031      334.474        4.469      858.485
10/29/2013  15:12:00       75.357      104.587       -7.781       52.968       43.690       37.703     2805.602     1908.819     1421.520        1.141        0.307      128.908       27.402        0.045      334.388        4.330      858.499
10/29/2013  15:13:00       84.329       89.182       -9.985       51.809       51.801       28.925     2684.159     2683.320      836.667        1.068        0.310      122.739       29.613        0.058      334.415        4.373      858.513
10/29/2013  15:14:00       68.917       83.670        1.159       64.469       54.731       36.779     4156.210     2995.463     1352.703        1.013        0.425      108.398       31.406        0.084      334.435        4.405      858.511
10/29/2013  15:15:00       -2.562      136.025       -8.620       37.943       88.191       32.483     1439.707     7777.686     1055.175        1.443        0.514      136.049       42.869        0.099      334.465        4.455      858.514
10/29/2013  15:16:00       39.868      111.664       -0.357       71.906       91.395       36.802     5170.525     8353.000     1354.359        1.447        0.744      118.568       43.714        0.136      334.484        4.487      858.520
10/29/2013  15:17:00       40.232      260.852      -44.613       43.004      110.571       40.811     1849.378    12225.960     1665.564        4.369        0.787      263.937       51.516        0.038      334.342        4.248      858.534
10/29/2013  15:18:00        3.719      236.651      -34.119       47.962       96.084       45.508     2300.350     9232.142     2071.007        3.539        0.680      236.680       37.621        0.025      334.279        4.144      858.540
10/29/2013  15:19:00       57.041      121.500        7.497       79.028       69.192       53.422     6245.352     4787.527     2853.953        1.598        0.694      134.223       43.072        0.103      334.375        4.307      858.552
10/29/2013  15:20:00       26.878      123.017       -4.555       68.640       54.152       43.630     4711.494     2932.414     1903.542        1.271        0.477      125.919       26.809        0.045      334.374        4.304      858.555
10/29/2013  15:21:00       40.150      109.281        0.265       35.408       92.870       37.280     1253.724     8624.908     1389.789        1.241        0.563      116.424       45.380        0.152      334.380        4.314      858.547
10/29/2013  15:22:00       68.068      141.948        3.555       57.864       81.861       57.819     3348.206     6701.245     3343.084        1.909        0.670      157.425       55.939        0.126      334.340        4.246      858.547
10/29/2013  15:23:00        5.284      122.965       -9.027       39.595       81.976       37.750     1567.724     6720.028     1425.076        1.247        0.486      123.078       38.842        0.100      334.359        4.279      858.559
10/29/2013  15:24:00       58.277      147.723      -16.397       53.186       88.901       46.822     2828.741     7903.412     2192.305        1.920        0.646      158.803       49.980        0.099      334.347        4.258      858.584
10/29/2013  15:25:00       52.974       86.193        4.217       57.710       63.695       40.340     3330.447     4057.060     1627.315        0.963        0.451      101.170       34.395        0.116      334.383        4.318      858.611
10/29/2013  15:26:00       32.006       69.515        5.299       34.448       38.572       38.038     1186.677     1487.819     1446.883        0.500        0.206       76.529       23.199        0.092      334.377        4.310      858.641
10/29/2013  15:27:00       16.799       89.620        0.237       68.279       60.820       36.019     4662.023     3699.043     1297.395        0.898        0.483       91.181       35.567        0.152      334.347        4.259      858.661
10/29/2013  15:28:00        9.696       86.401      -10.038       39.023       69.742       29.422     1522.769     4864.009      865.642        0.745        0.363       86.943       34.651        0.159      334.477        4.474      858.686
10/29/2013  15:29:00       39.926      123.637       -4.190       62.265       74.757       45.238     3876.948     5588.637     2046.507        1.420        0.576      129.924       33.930        0.068      334.420        4.380      858.707
10/29/2013  15:30:00      -16.213       90.108      -10.320       61.183       76.079       36.978     3743.305     5788.007     1367.401        0.969        0.545       91.555       44.247        0.234      334.315        4.206      858.719
10/29/2013  15:31:00       27.892       92.838       10.659       62.405       96.062       49.502     3894.415     9227.874     2450.492        1.254        0.779       96.938       57.154        0.348      334.402        4.351      858.724
10/29/2013  15:32:00       17.745      208.864      -21.421       45.966       99.065       38.040     2112.837     9813.930     1447.063        2.888        0.669      209.616       45.374        0.047      334.288        4.159      858.731
10/29/2013  15:33:00      -15.043      116.125       -3.769       34.948       63.819       37.461     1221.381     4072.891     1403.311        1.021        0.335      117.096       36.311        0.096      334.457        4.442      858.727
10/29/2013  15:34:00       46.412      158.265       -7.358       44.502      113.352       55.840     1980.461    12848.606     3118.080        2.260        0.897      164.930       69.251        0.176      334.343        4.250      858.726
10/29/2013  15:35:00       11.215       67.316       -6.682       33.620       49.763       23.513     1130.293     2476.325      552.863        0.443        0.208       68.244       23.621        0.120      334.397        4.343      858.740
10/29/2013  15:36:00      -27.000       75.029      -12.290       46.146       29.073       27.769     2129.447      845.252      771.090        0.513        0.187       79.740       24.201        0.092      334.611        4.698      858.753
10/29/2013  15:37:00       -9.044      102.025       -8.181       31.006       38.957       29.247      961.396     1517.675      855.366        0.695        0.167      102.425       27.859        0.074      334.565        4.622      858.770
10/29/2013  15:38:00       65.738       43.908        3.928       43.066       40.855       29.066     1854.716     1669.150      844.856        0.532        0.218       79.053       22.277        0.079      334.499        4.512      858.781
10/29/2013  15:39:00        6.126      121.211      -13.502       32.104       35.589       23.554     1030.694     1266.550      554.789        0.888        0.143      121.366       21.318        0.031      334.494        4.503      858.795
10/29/2013  15:40:00      -21.289      225.470      -23.366       57.312       74.653       40.230     3284.621     5573.028     1618.446        3.115        0.524      226.473       38.851        0.029      334.321        4.213      858.804
10/29/2013  15:41:00      -64.364       85.620       -0.423       53.573       67.138       27.658     2870.060     4507.494      764.988        0.981        0.407      107.115       29.530        0.076      334.495        4.505      858.814
10/29/2013  15:42:00       -7.128       88.629        6.916       71.435       55.716       39.343     5102.972     3104.288     1547.887        0.885        0.488       88.915       34.371        0.149      334.518        4.543      858.828
10/29/2013  15:43:00       24.065      100.787       -3.263       39.551       55.288       41.297     1564.317     3056.817     1705.464        0.854        0.316      103.620       35.609        0.118      334.326        4.224      858.833
10/29/2013  15:44:00        0.027      155.620      -17.854       41.022       43.090       29.045     1682.803     1856.772      843.616        1.446        0.219      155.620       20.695        0.018      334.354        4.272      858.837
10/29/2013  15:45:00       26.968       85.407        4.664       41.525       72.203       40.599     1724.356     5213.207     1648.246        0.831        0.429       89.563       42.264        0.223      334.445        4.424      858.835
10/29/2013  15:46:00       -3.252      160.994      -29.124       43.541       46.426       26.203     1895.824     2155.362      686.590        1.576        0.237      161.027       18.222        0.013      334.342        4.249      858.846
10/29/2013  15:47:00        8.227       78.263      -15.073       66.514       49.734       24.121     4424.116     2473.474      581.801        0.695        0.374       78.694       32.686        0.173      334.420        4.382      858.844
10/29/2013  15:48:00       52.911      118.455      -10.646       65.098       80.495       30.877     4237.774     6479.382      953.409        1.431        0.584      129.735       43.987        0.115      334.384        4.322      858.854
10/29/2013  15:49:00        1.610      100.417       -2.391       40.882       48.741       25.589     1671.337     2375.677      654.777        0.740        0.235      100.430       23.115        0.053      334.393        4.338      858.877
10/29/2013  15:50:00        9.179      215.878      -23.515       46.781       42.055       39.308     2188.496     1768.613     1545.132        2.637        0.275      216.074       26.198        0.015      334.339        4.241      858.896
10/29/2013  15:51:00      -34.528      122.030       -3.020       61.014       54.115       37.274     3722.667     2928.443     1389.338        1.207        0.402      126.821       32.407        0.065      334.467        4.458      858.906
10/29/2013  15:52:00      -46.370      175.372      -17.937       45.037       57.590       31.633     2028.360     3316.636     1000.669        1.979        0.317      181.398       28.479        0.025      334.368        4.292      858.916
10/29/2013  15:53:00        1.423      175.902      -21.170       62.483       83.965       35.904     3904.088     7050.087     1289.063        2.182        0.612      175.908       38.991        0.049      334.371        4.298      858.918
10/29/2013  15:54:00       63.362       77.040       10.725       43.979       49.917       30.348     1934.130     2491.668      921.017        0.771        0.267       99.750       28.811        0.083      334.371        4.301      858.927
10/29/2013  15:55:00      -24.751      183.690      -21.884       41.650       45.571       28.569     1734.742     2076.693      816.182        1.973        0.231      185.350       22.831        0.015      334.293        4.170      858.950
10/29/2013  15:56:00      -64.425      173.551      -22.766       44.347       45.606       25.042     1966.661     2079.917      627.107        1.973        0.234      185.123       21.291        0.013      334.469        4.460      858.965
10/29/2013  15:57:00       15.692      187.733      -30.497       33.723       42.934       21.263     1137.240     1843.324      452.107        1.993        0.172      188.388       19.656        0.011      334.344        4.253      858.995
10/29/2013  15:58:00       34.997      113.931      -10.316       38.872       65.300       35.865     1511.064     4264.032     1286.301        1.069        0.353      119.185       39.281        0.109      334.421        4.381      859.020
10/29/2013  15:59:00       10.278      104.089      -16.971       34.833       92.515       25.298     1213.334     8559.048      639.980        1.082        0.521      104.595       32.687        0.098      334.376        4.307      859.026
10/29/2013  16:00:00       21.315      194.966      -35.441       30.756       33.923       19.681      945.923     1150.782      387.355        2.110        0.124      196.127       15.725        0.006      334.282        4.150      859.021
10/29/2013  16:01:00       -3.744      157.444      -17.066       30.584       43.397       23.799      935.379     1883.311      566.384        1.424        0.169      157.489       20.799        0.017      334.370        4.296      859.024
10/29/2013  16:02:00       16.899      171.815      -22.041       47.276       54.060       29.856     2234.991     2922.493      891.387        1.817        0.302      172.644       26.497        0.024      334.420        4.379      859.034
10/29/2013  16:03:00       55.316       45.589       20.685       30.273       32.818       29.732      916.483     1077.045      883.999        0.422        0.144       71.682       19.131        0.071      334.503        4.518      859.039
10/29/2013  16:04:00       91.347       83.539       21.205       79.981       54.307       47.724     6396.927     2949.262     2277.544        1.370        0.581      123.787       34.677        0.078      334.452        4.433      859.051
10/29/2013  16:05:00       62.554      146.926       -8.146       65.328       92.293       59.649     4267.764     8518.024     3558.062        2.095        0.817      159.688       60.533        0.144      334.399        4.344      859.054
10/29/2013  16:06:00       33.622      183.459      -12.362       52.673       81.195       44.130     2774.486     6592.695     1947.489        2.313        0.566      186.515       39.530        0.045      334.369        4.295      859.067
10/29/2013  16:07:00       47.222      114.280      -20.038       42.958       46.235       31.429     1845.419     2137.666      987.772        1.033        0.249      123.652       25.652        0.043      334.389        4.330      859.062
10/29/2013  16:08:00      -21.933       82.453        3.153       76.968       58.164       41.582     5924.041     3383.108     1729.053        0.916        0.552       85.320       40.139        0.221      334.499        4.511      859.065
10/29/2013  16:09:00      -53.248      135.334      -16.735       54.437       52.523       25.417     2963.431     2758.648      646.045        1.390        0.318      145.432       21.623        0.022      334.541        4.581      859.079
10/29/2013  16:10:00      -52.347      220.361      -24.842       50.217       65.082       26.543     2521.778     4235.655      704.534        2.969        0.373      226.493       29.415        0.017      334.406        4.354      859.101
10/29/2013  16:11:00       -6.885      143.893       -5.359       41.602       51.632       37.038     1730.710     2665.908     1371.817        1.327        0.288      144.058       31.274        0.047      334.473        4.467      859.113
10/29/2013  16:12:00      -20.652      164.045       -6.558       30.168       56.281       30.349      910.096     3167.546      921.077        1.619        0.250      165.340       31.633        0.037      334.475        4.471      859.116
10/29/2013  16:13:00      -14.756      119.132        0.444       30.183       55.003       29.388      911.002     3025.383      863.653        0.960        0.240      120.043       29.088        0.059      334.603        4.684      859.112
10/29/2013  16:14:00       -3.024      175.157      -21.154       28.064       46.900       20.301      787.591     2199.604      412.141        1.727        0.170      175.183       22.131        0.016      334.390        4.329      859.123
10/29/2013  16:15:00       42.238       94.469       -3.600       55.162       54.548       31.492     3042.843     2975.532      991.748        0.886        0.351      103.482       24.994        0.058      334.518        4.543      859.140
10/29/2013  16:16:00       87.707       91.484       26.880       72.425       58.691       53.094     5245.390     3444.692     2818.999        1.414        0.575      126.736       44.819        0.125      334.525        4.555      859.154
10/29/2013  16:17:00      151.965      113.717       12.852       89.234       70.663       57.392     7962.666     4993.198     3293.813        2.622        0.812      189.802       36.666        0.037      334.441        4.414      859.159
10/29/2013  16:18:00       93.173      107.107       14.319       73.731       64.409       53.766     5436.202     4148.476     2890.742        1.641        0.624      141.962       42.949        0.092      334.429        4.395      859.156
10/29/2013  16:19:00       94.496       94.042        8.671       78.070       62.689       50.545     6094.984     3929.966     2554.752        1.521        0.629      133.317       37.287        0.078      334.468        4.458      859.144
10/29/2013  16:20:00      129.954       78.095       19.254       69.974       47.112       44.162     4896.344     2219.500     1950.285        1.621        0.453      151.614       25.362        0.028      334.520        4.544      859.136
10/29/2013  16:21:00      141.703       60.039       27.611       74.554       52.424       48.158     5558.272     2748.242     2319.212        1.753        0.531      153.897       25.989        0.029      334.496        4.504      859.134
10/29/2013  16:22:00      103.408       66.775       29.334       44.639       35.461       37.123     1992.605     1257.453     1378.107        1.032        0.231      123.094       19.892        0.026      334.443        4.419      859.134
10/29/2013  16:23:00       56.075       32.462       26.882       48.951       30.904       27.407     2396.211      955.045      751.160        0.451        0.205       64.794       24.299        0.141      334.537        4.575      859.123
10/29/2013  16:24:00      123.540       55.187       25.681       76.928       40.340       47.005     5917.982     1627.354     2209.492        1.436        0.488      135.306       39.202        0.084      334.485        4.487      859.113
10/29/2013  16:25:00      136.057       88.972       40.139       66.554       37.981       44.156     4429.383     1442.552     1949.755        1.793        0.391      162.565       40.350        0.062      334.472        4.468      859.109
10/29/2013  16:26:00      104.883       78.841        4.109       56.460       34.559       31.014     3187.724     1194.297      961.867        1.129        0.267      131.212       23.147        0.031      334.414        4.372      859.116
10/29/2013  16:27:00       69.024       41.259       14.261       33.507       27.077       25.435     1122.733      733.177      646.944        0.459        0.125       80.415       10.709        0.018      334.500        4.513      859.123
10/29/2013  16:28:00       55.129       47.969       66.343       73.248       40.256       38.388     5365.235     1620.573     1473.621        0.910        0.423       73.077       32.441        0.197      334.581        4.646      859.148
10/29/2013  16:29:00       92.118       47.685        1.712       62.524       38.979       24.861     3909.290     1519.372      618.083        0.840        0.302      103.729       23.369        0.051      334.472        4.467      859.180
10/29/2013  16:30:00      104.335       69.052       23.632       72.713       31.673       43.195     5287.219     1003.205     1865.840        1.218        0.408      125.116       42.971        0.118      334.506        4.523      859.208
10/29/2013  16:31:00      128.476       78.269       50.624       64.668       37.984       43.723     4181.978     1442.762     1911.685        1.636        0.377      150.439       28.522        0.036      334.468        4.459      859.211
10/29/2013  16:32:00      140.466      105.708       29.823       38.229       33.085       38.288     1461.419     1094.650     1465.987        1.791        0.201      175.797       25.177        0.021      334.367        4.292      859.213
10/29/2013  16:33:00       83.196       57.408       42.099       55.257       49.209       42.215     3053.286     2421.535     1782.089        0.962        0.363      101.080       24.974        0.061      334.398        4.344      859.211
10/29/2013  16:34:00       23.581       68.319       -0.420       34.684       41.611       27.005     1203.013     1731.499      729.277        0.444        0.183       72.274       27.474        0.145      334.416        4.374      859.224
10/29/2013  16:35:00        5.584       52.630       -5.044       18.057       33.699       15.951      326.066     1135.628      254.438        0.227        0.086       52.926       15.118        0.082      334.392        4.336      859.229
10/29/2013  16:36:00       28.801       53.647       -2.291       24.349       22.548       20.770      592.888      508.421      431.374        0.262        0.077       60.889        9.882        0.026      334.430        4.398      859.223
10/29/2013  16:37:00       40.755       63.613        0.041       32.842       48.558       25.076     1078.592     2357.849      628.783        0.489        0.203       75.549       26.922        0.127      334.377        4.311      859.233
10/29/2013  16:38:00      107.105       66.034        7.271       62.708       32.248       26.814     3932.342     1039.951      718.992        1.079        0.285      125.826       20.604        0.027      334.338        4.245      859.246
10/29/2013  16:39:00      101.103       84.015        3.491       71.497       52.058       33.176     5111.880     2709.998     1100.650        1.311        0.446      131.455       18.043        0.019      334.297        4.177      859.251
10/29/2013  16:40:00       84.220       60.436       24.487       41.675       32.416       32.737     1736.778     1050.803     1071.739        0.760        0.193      103.660       21.490        0.043      334.348        4.263      859.245
10/29/2013  16:41:00       70.928       65.049        1.480       47.152       28.618       28.550     2223.292      818.989      815.122        0.656        0.193       96.240       20.765        0.047      334.322        4.218      859.243
10/29/2013  16:42:00       47.072       92.313       -5.383       44.184       56.474       32.816     1952.262     3189.272     1076.920        0.849        0.311      103.622       31.575        0.093      334.265        4.124      859.237
10/29/2013  16:43:00       36.167      116.724       -9.545       35.930       65.191       37.882     1290.971     4249.834     1435.064        1.100        0.349      122.199       39.814        0.106      334.229        4.063      859.230
10/29/2013  16:44:00       49.494       71.700        3.867       46.004       42.410       33.088     2116.391     1798.636     1094.830        0.631        0.250       87.124       28.685        0.108      334.178        3.981      859.238
10/29/2013  16:45:00       99.384       81.480       -4.555       64.325       45.130       40.636     4137.685     2036.682     1651.288        1.218        0.391      128.515       28.161        0.048      334.194        4.004      859.237
10/29/2013  16:46:00       73.329       31.017       11.871       40.138       20.669       20.075     1611.063      427.219      402.987        0.446        0.122       79.619        9.725        0.015      334.311        4.201      859.236
10/29/2013  16:47:00       91.778       51.259        4.925       52.172       29.938       19.997     2721.886      896.283      399.887        0.755        0.201      105.122       16.421        0.024      334.253        4.102      859.259
10/29/2013  16:48:00       48.300       50.160       11.271       36.034       35.289       30.921     1298.452     1245.319      956.081        0.424        0.175       69.634       18.374        0.070      334.265        4.124      859.263
10/29/2013  16:49:00      100.377       67.325        1.118       56.986       43.075       40.663     3247.408     1855.452     1653.477        1.068        0.338      120.864       26.487        0.048      334.174        3.973      859.272
10/29/2013  16:50:00       99.525       80.575       14.732       47.100       41.168       30.701     2218.401     1694.802      942.577        1.073        0.243      128.053       22.792        0.032      334.201        4.017      859.283
10/29/2013  16:51:00       70.565       55.611        9.120       36.753       36.675       28.952     1350.754     1345.091      838.213        0.584        0.177       89.845       21.163        0.055      334.245        4.089      859.281
10/29/2013  16:52:00       80.562       89.231       -7.655       35.500       47.812       24.114     1260.261     2285.989      581.482        0.932        0.206      120.218       22.203        0.034      334.210        4.031      859.299
10/29/2013  16:53:00       42.736       86.812       -8.338       33.107       43.439       30.200     1096.091     1886.912      912.052        0.666        0.195       96.761       26.142        0.073      334.220        4.050      859.317
10/29/2013  16:54:00       66.120       64.748        5.145       45.528       32.553       27.264     2072.754     1059.725      743.352        0.623        0.194       92.543       20.193        0.048      334.235        4.074      859.339
10/29/2013  16:55:00       65.041       98.720        1.164       47.930       47.788       38.098     2297.305     2283.696     1451.433        1.000        0.302      118.220       35.517        0.090      334.205        4.023      859.369
10/29/2013  16:56:00       58.764       56.361        1.264       43.367       34.706       24.869     1880.665     1204.491      618.457        0.517        0.185       81.423       13.163        0.026      334.275        4.141      859.371
10/29/2013  16:57:00       47.302       55.258        0.654       36.107       21.659       20.041     1303.738      469.091      401.653        0.373        0.109       72.739       21.235        0.085      334.358        4.279      859.367
10/29/2013  16:58:00       44.225       24.707        9.238       32.862       27.487       26.130     1079.891      755.511      682.775        0.258        0.126       50.658       21.797        0.185      334.352        4.268      859.354
10/29/2013  16:59:00       21.871       26.471       24.355       24.615       16.543       22.873      605.886      273.658      523.172        0.159        0.070       34.337       14.846        0.187      334.337        4.247      859.339
10/29/2013  17:00:00       35.260       37.634       -7.745       19.570       12.787       13.838      382.971      163.512      191.483        0.173        0.037       51.571        7.395        0.021      334.353        4.270      859.333
10/29/2013  17:01:00       30.126       34.539        0.180       21.784       31.106       19.646      474.543      967.587      385.970        0.196        0.091       45.832       13.583        0.088      334.377        4.310      859.320
10/29/2013  17:02:00       26.255       40.468       41.109       25.871       25.999       23.177      669.317      675.942      537.164        0.295        0.094       48.239       12.143        0.063      334.419        4.379      859.296
10/29/2013  17:03:00       39.778       60.427       47.954       41.083       26.550       41.460     1687.812      704.921     1718.948        0.582        0.206       72.344       16.623        0.053      334.372        4.303      859.289
10/29/2013  17:04:00       23.834       56.976       79.329       46.276       30.369       25.217     2141.512      922.263      635.906        0.690        0.185       61.760       24.082        0.152      334.388        4.329      859.291
10/29/2013  17:05:00       -1.271       21.850       55.113       24.697       32.047       24.345      609.962     1026.991      592.702        0.287        0.111       21.887       20.369        0.866      334.484        4.486      859.301
10/29/2013  17:06:00       39.597       46.213       29.892       42.962       30.449       31.665     1845.747      927.112     1002.672        0.419        0.189       60.857       20.003        0.108      334.432        4.400      859.311
10/29/2013  17:07:00      111.729       61.529       13.859       33.286       30.790       27.534     1107.966      948.007      758.127        0.964        0.141      127.551       24.135        0.036      334.311        4.200      859.341
10/29/2013  17:08:00      145.149       67.191        8.147       43.539       30.783       24.429     1895.681      947.615      596.772        1.454        0.172      159.946       10.421        0.004      334.226        4.061      859.365
10/29/2013  17:09:00       83.124       70.099       12.267       55.231       40.590       37.015     3050.485     1647.527     1370.116        0.902        0.303      108.736       19.117        0.031      334.256        4.107      859.373
10/29/2013  17:10:00      109.181       72.174        2.047       24.509       21.567       21.244      600.669      465.152      451.300        0.933        0.076      130.880       12.643        0.009      334.236        4.075      859.382
10/29/2013  17:11:00       81.727       56.670        9.587       35.968       25.598       24.046     1293.717      655.269      578.210        0.625        0.126       99.453       11.167        0.013      334.283        4.153      859.382
10/29/2013  17:12:00       93.195       69.302        8.721       32.656       25.234       28.277     1066.412      636.770      799.569        0.803        0.125      116.138       17.705        0.023      334.250        4.097      859.373
10/29/2013  17:13:00       85.764       50.780       15.745       29.376       24.317       23.024      862.968      591.314      530.090        0.608        0.099       99.670       11.318        0.013      334.249        4.100      859.363
10/29/2013  17:14:00       20.854       30.011        2.928       18.999       15.324       15.131      360.964      234.810      228.948        0.108        0.041       36.545        5.751        0.025      334.283        4.152      859.354
10/29/2013  17:15:00       11.791       39.635        0.537       10.571       13.974       15.014      111.742      195.267      225.406        0.112        0.027       41.351        9.603        0.054      334.288        4.163      859.355
10/29/2013  17:16:00       53.730       60.897       -4.283       27.500       19.056       22.738      756.231      363.140      517.025        0.412        0.082       81.212       12.468        0.024      334.242        4.086      859.370
10/29/2013  17:17:00       62.336       32.052       14.862       23.251       16.975       20.888      540.631      288.152      436.309        0.320        0.063       70.094       13.175        0.035      334.249        4.099      859.376
10/29/2013  17:18:00       29.099       47.515       39.475       31.208       32.930       25.065      973.937     1084.410      628.274        0.367        0.134       55.717       16.944        0.092      334.349        4.264      859.375
10/29/2013  17:19:00       42.221       44.892       38.350       29.359       21.604       21.818      861.961      466.719      476.014        0.354        0.090       61.627       15.476        0.063      334.332        4.234      859.366
10/29/2013  17:20:00       41.182       44.564       30.279       43.989       27.592       28.689     1935.020      761.329      823.067        0.406        0.176       60.679       29.655        0.239      334.339        4.246      859.361
10/29/2013  17:21:00       95.128       66.150       13.294       25.878       34.309       21.322      669.682     1177.098      454.629        0.795        0.115      115.867        6.296        0.003      334.262        4.118      859.361
10/29/2013  17:22:00       47.539       26.507       32.310       41.511       35.547       27.450     1723.201     1263.602      753.498        0.387        0.187       54.429       18.651        0.117      334.312        4.203      859.356
10/29/2013  17:23:00       14.202        0.934       27.426       20.841       28.461       15.779      434.335      810.056      248.990        0.122        0.075       14.233       11.714        0.677      334.314        4.207      859.353
10/29/2013  17:24:00       23.357       26.956       31.983       39.668       16.372       15.526     1573.588      268.055      241.070        0.219        0.104       35.668       11.460        0.103      334.305        4.191      859.354
10/29/2013  17:25:00       72.508       51.043        0.923       24.257       26.069       22.042      588.411      679.614      485.851        0.481        0.088       88.673       13.115        0.022      334.214        4.038      859.354
10/29/2013  17:26:00       67.141       51.814       11.898       17.726       12.514       17.406      314.224      156.595      302.984        0.405        0.039       84.809       11.351        0.018      334.154        3.938      859.353
10/29/2013  17:27:00       45.036       41.969       13.283       26.030       16.262       18.523      677.571      264.448      343.113        0.263        0.064       61.561       12.098        0.039      334.194        4.007      859.360
10/29/2013  17:28:00       37.861       58.873        4.471       35.440       19.387       17.650     1255.971      375.862      311.538        0.343        0.097       69.997       11.419        0.027      334.136        3.908      859.364
10/29/2013  17:29:00       -0.116       40.238       -7.169       18.385       13.543        8.824      337.999      183.421       77.865        0.113        0.030       40.238        4.777        0.014      334.188        3.995      859.371
10/29/2013  17:30:00      -39.611       28.086       -8.082       21.562       23.251       16.789      464.941      540.589      281.883        0.186        0.064       48.558       11.486        0.056      334.218        4.046      859.371
10/29/2013  17:31:00      -41.798       16.001        2.462       20.988       23.245       19.087      440.486      540.340      364.318        0.168        0.067       44.756        9.829        0.048      334.206        4.025      859.365
10/29/2013  17:32:00      -47.875       37.128      -16.695       19.240       14.560       10.070      370.163      211.992      101.411        0.232        0.034       60.585        7.215        0.014      334.233        4.071      859.367
10/29/2013  17:33:00       24.152      -11.599        8.803       18.855       18.231       14.297      355.510      332.374      204.417        0.084        0.045       26.793        7.190        0.072      334.341        4.251      859.374
10/29/2013  17:34:00       18.085        0.814       14.857       26.688       27.954       17.016      712.241      781.425      289.544        0.117        0.089       18.103        7.495        0.171      334.344        4.256      859.366
10/29/2013  17:35:00      -32.031        8.890      -10.778       30.494       38.806       20.014      929.880     1505.939      400.567        0.203        0.142       33.242       20.956        0.397      334.217        4.042      859.362
10/29/2013  17:36:00     -127.493      -45.744       -0.303       34.460       30.014       19.614     1187.519      900.835      384.700        1.041        0.124      135.451       15.300        0.013      334.151        3.933      859.352
10/29/2013  17:37:00     -119.537      -77.236        0.559       47.443       34.659       27.957     2250.882     1201.218      781.583        1.224        0.212      142.319       22.006        0.024      334.093        3.836      859.343
10/29/2013  17:38:00      -56.441      -40.191        9.856       61.821       43.203       25.744     3821.803     1866.478      662.766        0.562        0.318       69.288       31.765        0.210      334.144        3.922      859.350
10/29/2013  17:39:00     -143.083      -40.720       -7.174       36.313       34.070       19.174     1318.649     1160.758      367.659        1.251        0.142      148.764       20.061        0.018      334.070        3.799      859.354
10/29/2013  17:40:00     -146.172      -10.084      -13.870       27.101       35.000       16.033      734.463     1224.988      257.069        1.194        0.111      146.519       12.414        0.007      333.980        3.649      859.364
10/29/2013  17:41:00     -107.662       -3.324       -7.430       34.905       42.162       23.598     1218.347     1777.613      556.858        0.760        0.178      107.713       17.254        0.026      334.039        3.750      859.366
10/29/2013  17:42:00     -157.585      -26.154      -16.821       31.779       38.956       19.657     1009.925     1517.572      386.411        1.436        0.146      159.741       19.743        0.015      334.029        3.733      859.392
10/29/2013  17:43:00     -113.768      -36.604       -9.099       36.762       31.814       22.370     1351.460     1012.107      500.424        0.861        0.143      119.512       19.439        0.026      334.062        3.788      859.411
10/29/2013  17:44:00      -97.260      -49.358      -12.098       40.599       28.623       21.213     1648.274      819.292      449.992        0.748        0.146      109.067       11.622        0.011      334.118        3.880      859.424
10/29/2013  17:45:00      -82.005      -37.298       -6.830       41.033       30.273       23.231     1683.707      916.448      539.695        0.565        0.157       90.088       17.989        0.040      334.148        3.928      859.445
10/29/2013  17:46:00     -103.559      -39.432       -0.803       72.681       33.414       26.446     5282.470     1116.507      699.378        0.969        0.355      110.812       34.140        0.095      334.054        3.773      859.468
10/29/2013  17:47:00      -82.357      -36.474      -13.257       24.600       20.554       11.551      605.178      422.458      133.436        0.472        0.058       90.073        7.888        0.008      334.024        3.723      859.479
10/29/2013  17:48:00      -54.796      -40.120       -2.527       45.085       24.351       21.398     2032.634      592.974      457.875        0.385        0.154       67.914       21.330        0.099      334.161        3.951      859.471
10/29/2013  17:49:00      -82.948      -52.536        2.153       52.631       34.862       19.882     2770.050     1215.383      395.274        0.701        0.219       98.185       28.606        0.085      334.152        3.937      859.464
10/29/2013  17:50:00      -75.314      -10.381        7.274       52.834       36.389       25.435     2791.403     1324.157      646.919        0.530        0.238       76.026       25.173        0.110      334.110        3.866      859.449
10/29/2013  17:51:00      -16.161        2.544        9.113       17.683       15.649       13.330      312.689      244.886      177.677        0.054        0.037       16.360       10.435        0.407      334.164        3.956      859.430
10/29/2013  17:52:00      -61.347      -22.016       -4.397       38.982       28.292       17.437     1519.596      800.416      304.048        0.345        0.131       65.178       11.082        0.029      334.181        3.984      859.414
10/29/2013  17:53:00      -63.375      -19.892        4.703       52.562       36.043       25.096     2762.720     1299.084      629.830        0.456        0.235       66.423       21.822        0.108      334.144        3.923      859.405
10/29/2013  17:54:00      -79.409      -47.595       10.325       38.984       35.797       23.021     1519.730     1281.409      529.971        0.600        0.167       92.580       21.247        0.053      334.203        4.021      859.389
10/29/2013  17:55:00      -84.204      -63.242        1.882       43.574       22.529       20.102     1898.716      507.539      404.082        0.695        0.141      105.308       17.355        0.027      334.218        4.046      859.395
10/29/2013  17:56:00      -94.345      -70.377        2.490       37.017       25.080       19.981     1370.294      628.984      399.241        0.813        0.120      117.703       13.827        0.014      334.200        4.015      859.405
10/29/2013  17:57:00      -64.597      -71.343       -3.047       43.555       31.119       22.622     1897.051      968.369      511.777        0.632        0.169       96.243       21.600        0.050      334.267        4.127      859.403
10/29/2013  17:58:00      -53.349      -36.501        6.961       37.598       27.564       17.820     1413.598      759.798      317.537        0.336        0.125       64.641       18.774        0.084      334.257        4.110      859.404
10/29/2013  17:59:00      -70.251      -55.563       -1.835       26.674       27.264       15.975      711.489      743.300      255.204        0.487        0.085       89.568        4.975        0.003      334.230        4.066      859.405
10/29/2013  18:00:00      -27.858      -25.605        5.553       34.051       18.489       15.140     1159.447      341.843      229.222        0.160        0.087       37.837       15.801        0.174      334.331        4.234      859.421
10/29/2013  18:01:00      -39.473      -18.972        1.188       15.181       13.947       13.827      230.465      194.519      191.192        0.127        0.031       43.796       10.440        0.057      334.284        4.156      859.438
10/29/2013  18:02:00      -84.920      -32.735       -9.142       35.553       26.506       18.145     1264.039      702.548      329.247        0.533        0.115       91.011       17.824        0.038      334.221        4.050      859.449
10/29/2013  18:03:00      -86.161      -41.897       -9.320       19.563       19.072       14.700      382.709      363.734      216.088        0.511        0.048       95.808        4.000        0.002      334.261        4.117      859.465
10/29/2013  18:04:00      -68.802       -6.323       -3.980       16.657       19.408       11.703      277.469      376.667      136.954        0.279        0.040       69.092       10.778        0.024      334.322        4.217      859.473
10/29/2013  18:05:00      -50.761      -10.494       -1.672       29.286       28.023       12.144      857.675      785.284      147.473        0.224        0.090       51.834        9.746        0.035      334.367        4.293      859.492
10/29/2013  18:06:00      -63.824      -53.198        1.207       43.277       21.481       15.744     1872.909      461.432      247.885        0.474        0.129       83.087       15.961        0.037      334.388        4.330      859.507
10/29/2013  18:07:00      -39.681      -31.872        8.630       42.072       19.529       16.845     1770.032      381.389      283.744        0.255        0.122       50.896       16.159        0.101      334.425        4.391      859.515
10/29/2013  18:08:00      -13.434      -20.413       16.886       37.439       29.399       20.416     1401.677      864.276      416.804        0.178        0.134       24.437       15.658        0.411      334.461        4.449      859.520
10/29/2013  18:09:00      -18.091      -26.114        1.403       20.906       21.617       19.878      437.056      467.275      395.141        0.116        0.065       31.769       13.337        0.176      334.442        4.420      859.515
10/29/2013  18:10:00      -12.750       -2.034       -1.301       14.424        5.685        7.577      208.060       32.322       57.412        0.023        0.015       12.911        3.543        0.075      334.430        4.397      859.502
10/29/2013  18:11:00      -18.010       16.430       25.088       16.373       24.330       20.486      268.087      591.950      419.689        0.125        0.064       24.379       18.278        0.562      334.522        4.551      859.508
10/29/2013  18:12:00      -10.367       51.956       24.479       24.479       24.619       21.987      599.236      606.106      483.435        0.255        0.084       52.980       16.354        0.095      334.338        4.247      859.509
10/29/2013  18:13:00       30.161       32.963       28.517       18.603       21.571       23.068      346.074      465.311      532.118        0.208        0.067       44.679        6.243        0.020      334.321        4.218      859.521
10/29/2013  18:14:00       18.279      -31.203       19.805       32.568       56.580       28.976     1060.664     3201.335      839.608        0.340        0.255       36.163       30.629        0.717      334.336        4.242      859.540
10/29/2013  18:15:00       47.118       30.516       46.884       42.552       57.540       37.936     1810.655     3310.871     1439.136        0.595        0.328       56.136       38.649        0.474      334.323        4.220      859.556
10/29/2013  18:16:00       41.443       24.157       17.397       31.781       28.582       20.434     1010.016      816.927      417.563        0.242        0.112       47.969        7.755        0.026      334.282        4.153      859.569
10/29/2013  18:17:00       68.457       51.522       38.160       40.452       16.309       17.552     1636.355      265.988      308.079        0.550        0.111       85.678       11.612        0.018      334.240        4.083      859.578
10/29/2013  18:18:00       93.780       34.186        0.476       24.239       27.718       22.495      587.508      768.267      506.042        0.591        0.093       99.817       16.353        0.027      334.209        4.031      859.582
10/29/2013  18:19:00       77.640       53.607       20.343       27.738       29.258       30.384      769.391      856.012      923.174        0.593        0.127       94.349       20.911        0.049      334.251        4.101      859.587
10/29/2013  18:20:00       89.174       40.103       17.626       31.173       25.643       32.844      971.765      657.570     1078.698        0.629        0.135       97.777       26.333        0.073      334.245        4.092      859.594
10/29/2013  18:21:00       84.110       46.076        9.499       25.117       33.344       22.543      630.882     1111.846      508.170        0.577        0.113       95.903       14.162        0.022      334.202        4.020      859.615
10/29/2013  18:22:00       86.142       65.442        2.975       16.489       17.687       16.040      271.896      312.838      257.270        0.628        0.042      108.181        9.105        0.007      334.101        3.851      859.630
10/29/2013  18:23:00       72.426       50.132        2.371       18.502       23.212       17.738      342.312      538.809      314.652        0.448        0.060       88.084       13.014        0.022      334.117        3.876      859.651
10/29/2013  18:24:00       41.017       44.739        1.939       30.185       26.567       19.265      911.138      705.792      371.140        0.284        0.099       60.696       18.429        0.092      334.132        3.901      859.666
10/29/2013  18:25:00       34.256       41.262       -0.511       24.566       24.544       14.910      603.483      602.416      222.305        0.215        0.071       53.629       14.236        0.070      334.144        3.923      859.669
10/29/2013  18:26:00       25.481       42.555       -4.799       19.985       18.436       10.213      399.410      339.868      104.304        0.166        0.042       49.601       10.293        0.043      334.171        3.968      859.661
10/29/2013  18:27:00       16.672       68.815       -9.426       32.229       29.803       12.725     1038.740      888.226      161.927        0.360        0.104       70.805        7.111        0.010      334.188        3.998      859.656
10/29/2013  18:28:00        5.516       64.738      -10.125       25.296       35.144       14.949      639.905     1235.114      223.480        0.321        0.105       64.972       15.675        0.058      334.187        3.995      859.653
10/29/2013  18:29:00       31.279       42.861       -1.273       24.507       15.784       14.146      600.605      249.143      200.109        0.193        0.052       53.061        9.715        0.034      334.185        3.992      859.664
10/29/2013  18:30:00       12.231       86.927      -14.966       16.852       19.591       10.158      284.005      383.802      103.187        0.435        0.039       87.783       10.134        0.013      334.175        3.975      859.674
10/29/2013  18:31:00       11.565       42.113        3.355       27.099       32.345       17.877      734.342     1046.204      319.585        0.201        0.105       43.672       14.871        0.116      334.255        4.107      859.691
10/29/2013  18:32:00       27.054       25.225       -3.068       24.901       18.875       13.029      620.036      356.249      169.756        0.126        0.057       36.989        7.390        0.040      334.246        4.093      859.706
10/29/2013  18:33:00       26.231       41.615       -7.183       29.206       29.270       15.980      852.977      856.748      255.371        0.222        0.098       49.192       12.778        0.067      334.227        4.061      859.723
10/29/2013  18:34:00       69.629       41.396        4.931       21.536       20.317       20.635      463.813      412.772      425.822        0.394        0.065       81.005       14.093        0.030      334.223        4.055      859.727
10/29/2013  18:35:00       43.923       32.122       -3.930       29.114       24.300       15.869      847.611      590.470      251.821        0.233        0.084       54.415       12.705        0.055      334.218        4.045      859.726
10/29/2013  18:36:00       64.139       47.790        2.123       27.964       23.270       18.551      781.991      541.506      344.138        0.403        0.083       79.986       15.829        0.039      334.219        4.047      859.725
10/29/2013  18:37:00       64.575       32.212        2.252       25.147       20.983       18.541      632.383      440.290      343.754        0.331        0.071       72.163       12.756        0.031      334.203        4.021      859.730
10/29/2013  18:38:00       50.677       50.199        6.665       25.671       18.888       19.167      659.009      356.755      367.382        0.326        0.069       71.331        7.892        0.012      334.167        3.961      859.747
10/29/2013  18:39:00       84.986       47.657       -2.957       18.071       16.185       19.942      326.577      261.946      397.681        0.524        0.049       97.436       13.556        0.019      334.201        4.017      859.771
10/29/2013  18:40:00       61.997       47.939       13.078       24.300       19.022       20.550      590.508      361.851      422.314        0.384        0.069       78.369        7.489        0.009      334.202        4.020      859.789
10/29/2013  18:41:00       85.412       48.399       -3.606       20.158       19.273       14.558      406.353      371.445      211.925        0.532        0.049       98.172        6.577        0.004      334.196        4.009      859.815
10/29/2013  18:42:00       75.667       54.060       -1.267       24.212       28.905       16.681      586.237      835.499      278.252        0.517        0.085       92.995       11.380        0.015      334.205        4.024      859.839
10/29/2013  18:43:00       85.115       52.949        7.309       19.596       16.997       17.951      383.995      288.884      322.231        0.555        0.050      100.241       11.519        0.013      334.198        4.011      859.862
10/29/2013  18:44:00       79.023       56.988       -2.606       21.379       15.769       15.658      457.062      248.670      245.174        0.522        0.048       97.429        6.301        0.004      334.191        4.001      859.877
10/29/2013  18:45:00       61.653       44.734       15.168       21.452       14.419       16.737      460.207      207.910      280.118        0.349        0.047       76.172       10.727        0.020      334.260        4.117      859.891
10/29/2013  18:46:00       78.970       23.180        1.600       25.702       19.840       15.249      660.580      393.642      232.540        0.403        0.064       82.302        7.720        0.009      334.287        4.160      859.905
10/29/2013  18:47:00       59.003       50.522       10.134       25.504       20.392       23.391      650.479      415.835      547.144        0.387        0.081       77.678       17.015        0.048      334.287        4.161      859.923
10/29/2013  18:48:00       72.996       43.153       10.993       26.412       18.459       19.027      697.570      340.738      362.012        0.436        0.070       84.798       15.026        0.031      334.262        4.120      859.931
10/29/2013  18:49:00       93.130       57.577        4.744       17.731       14.224       13.771      314.402      202.318      189.630        0.636        0.035      109.491        9.678        0.008      334.206        4.028      859.946
10/29/2013  18:50:00       84.548       52.079       10.009       13.315       11.418       19.450      177.294      130.363      378.284        0.532        0.034       99.300        7.910        0.006      334.203        4.021      859.957
10/29/2013  18:51:00       74.624       52.500        9.796       20.618       12.515       13.878      425.117      156.623      192.600        0.460        0.039       91.242       10.601        0.013      334.212        4.037      859.977
10/29/2013  18:52:00       77.992       54.215        4.389       23.501       19.295       18.424      552.282      372.281      339.441        0.515        0.063       94.984        6.296        0.004      334.219        4.047      859.993
10/29/2013  18:53:00       93.490       62.047        9.191       14.891        9.390       18.740      221.730       88.164      351.178        0.667        0.033      112.206       12.922        0.013      334.202        4.021      860.004
10/29/2013  18:54:00       88.774       64.418       13.920       17.841       10.900       16.338      318.309      118.819      266.942        0.646        0.035      109.684       11.726        0.011      334.228        4.063      860.007
10/29/2013  18:55:00       81.259       53.804        4.351       18.695       12.646       16.223      349.503      159.910      263.184        0.514        0.039       97.457        7.489        0.006      334.220        4.049      860.004
10/29/2013  18:56:00       68.312       46.289        1.595       17.445       14.860       14.680      304.340      220.824      215.508        0.378        0.037       82.518        7.098        0.007      334.253        4.105      860.013
10/29/2013  18:57:00       46.859       38.221       -3.226       19.487       20.679       18.162      379.724      427.615      329.847        0.240        0.057       60.470       13.324        0.049      334.279        4.147      860.032
10/29/2013  18:58:00       25.193       35.773       -6.500       28.680       26.727       13.256      822.542      714.355      175.731        0.183        0.086       43.754        7.328        0.028      334.318        4.214      860.043
10/29/2013  18:59:00       56.240       44.811       -0.574       21.301       24.279       23.732      453.742      589.463      563.202        0.339        0.080       71.909       14.623        0.041      334.286        4.159      860.057
10/29/2013  19:00:00       63.411       48.261        5.156       19.396       15.799       14.058      376.215      249.612      197.622        0.360        0.041       79.688        6.832        0.007      334.277        4.144      860.072
10/29/2013  19:01:00       62.146       45.767       -0.783       24.694       17.506       18.400      609.780      306.450      338.562        0.361        0.063       77.180        9.106        0.014      334.307        4.194      860.074
10/29/2013  19:02:00       93.983       65.834       -0.042       21.937       15.376       16.651      481.215      236.417      277.243        0.708        0.050      114.747       10.593        0.009      334.276        4.143      860.079
10/29/2013  19:03:00       80.856       61.194        9.454       24.791       21.242       25.661      614.618      451.230      658.493        0.605        0.086      101.402       17.537        0.030      334.298        4.178      860.079
10/29/2013  19:04:00       95.107       43.356        8.044       18.877       18.649       18.676      356.343      347.774      348.797        0.602        0.053      104.523       14.231        0.019      334.309        4.198      860.079
10/29/2013  19:05:00       81.858       50.975       -0.036       20.132       21.414       18.015      405.306      458.566      324.525        0.524        0.059       96.432       10.915        0.013      334.333        4.237      860.075
10/29/2013  19:06:00       43.242       45.735       18.064       34.010       19.418       23.973     1156.697      377.070      574.694        0.320        0.105       62.941       23.124        0.135      334.336        4.242      860.066
10/29/2013  19:07:00       16.681       36.954       50.076       20.826       27.367       15.669      433.734      748.951      245.527        0.279        0.071       40.545       15.169        0.140      334.404        4.355      860.062
10/29/2013  19:08:00       -0.887       19.702       29.656       17.687       32.227       25.231      312.814     1038.595      636.599        0.163        0.099       19.722       23.083        1.370      334.393        4.336      860.069
10/29/2013  19:09:00       41.527       28.272       10.641       25.056       24.477       18.392      627.800      599.144      338.275        0.210        0.078       50.238        8.876        0.031      334.340        4.250      860.075
10/29/2013  19:10:00       48.516       22.950        4.478       20.501       14.106       19.488      420.307      198.978      379.794        0.195        0.050       53.670        9.787        0.033      334.307        4.196      860.087
10/29/2013  19:11:00       66.137       48.322       10.353       15.643       12.989       17.611      244.714      168.716      310.145        0.377        0.036       81.909        3.920        0.002      334.277        4.144      860.099
10/29/2013  19:12:00       64.235       36.288       -0.961       26.237       17.684       19.066      688.359      312.738      363.521        0.340        0.068       73.776       11.145        0.023      334.306        4.193      860.114
10/29/2013  19:13:00       48.059       36.597        4.658       31.953       24.999       17.369     1020.983      624.928      301.697        0.281        0.097       60.407       10.906        0.033      334.303        4.187      860.142
10/29/2013  19:14:00       91.621       64.474        6.504       21.273       21.364       16.905      452.542      456.438      285.768        0.689        0.060      112.033       10.878        0.009      334.267        4.128      860.160
10/29/2013  19:15:00      102.356       51.998        5.471       20.577       20.452       17.653      423.408      418.284      311.638        0.718        0.058      114.807       11.745        0.010      334.306        4.192      860.173
10/29/2013  19:16:00       63.096       45.058       -5.006       34.555       26.236       22.697     1194.062      688.335      515.157        0.422        0.120       77.532       18.390        0.056      334.306        4.193      860.173
10/29/2013  19:17:00       67.132       32.467       14.166       32.382       23.815       26.892     1048.582      567.146      723.155        0.405        0.117       74.571       23.656        0.101      334.368        4.297      860.176
10/29/2013  19:18:00       28.276       35.746       31.928       35.861       26.689       24.260     1285.987      712.326      588.557        0.284        0.129       45.577       19.839        0.189      334.391        4.333      860.180
10/29/2013  19:19:00       54.276       65.359       30.207       41.424       33.152       27.003     1715.955     1099.088      729.177        0.584        0.177       84.957       25.121        0.087      334.342        4.253      860.183
10/29/2013  19:20:00      102.749       60.372       19.897       20.674       24.519       25.008      427.410      601.197      625.418        0.813        0.083      119.173       11.187        0.009      334.308        4.195      860.183
10/29/2013  19:21:00      101.903       44.362        9.070       30.724       28.535       27.820      943.957      814.240      773.979        0.748        0.127      111.140       14.230        0.016      334.295        4.172      860.180
10/29/2013  19:22:00       99.014       60.302       14.970       21.974       18.502       22.357      482.867      342.334      499.818        0.749        0.066      115.931       12.544        0.012      334.274        4.138      860.195
10/29/2013  19:23:00       89.266       71.477       14.131       23.085       25.002       20.706      532.917      625.112      428.739        0.743        0.079      114.356       13.272        0.013      334.301        4.182      860.217
10/29/2013  19:24:00       46.449       55.764        2.696       27.380       26.237       22.434      749.676      688.397      503.268        0.361        0.097       72.575       19.037        0.069      334.297        4.177      860.239
10/29/2013  19:25:00       63.982       38.585       -1.125       19.147       16.907       13.768      366.592      285.830      189.545        0.321        0.042       74.716        8.491        0.013      334.296        4.175      860.258
10/29/2013  19:26:00       48.594       25.585        4.478       25.650       19.496       14.544      657.905      380.112      211.519        0.214        0.062       54.918        9.906        0.033      334.356        4.274      860.274
10/29/2013  19:27:00       16.849       28.838        4.382       27.320       16.467       18.590      746.384      271.162      345.588        0.125        0.068       33.399       14.436        0.187      334.401        4.350      860.279
10/29/2013  19:28:00       63.895       19.978       -1.946       18.157       13.569       13.803      329.661      184.110      190.518        0.259        0.035       66.945        7.369        0.012      334.343        4.255      860.286
10/29/2013  19:29:00       49.795       21.094       -4.960       26.992       18.909       13.403      728.552      357.554      179.628        0.211        0.063       54.078       11.569        0.046      334.372        4.303      860.286
10/29/2013  19:30:00       77.009       42.837       -4.410       12.131       13.456       10.032      147.172      181.062      100.636        0.411        0.021       88.121        6.030        0.005      334.302        4.186      860.293
10/29/2013  19:31:00       64.651       25.654       -1.447       23.534       15.068       11.249      553.828      227.050      126.531        0.287        0.045       69.555        9.345        0.018      334.316        4.208      860.291
10/29/2013  19:32:00       58.828       25.294       -3.024       15.376       19.483       16.490      236.423      379.603      271.913        0.250        0.044       64.035        6.605        0.011      334.328        4.230      860.289
10/29/2013  19:33:00       54.457       24.976        4.325       13.189       12.708       14.073      173.949      161.504      198.059        0.207        0.027       59.911        8.750        0.021      334.346        4.259      860.292
10/29/2013  19:34:00       34.493        9.479       -0.506       18.757       12.966       16.225      351.834      168.116      263.260        0.103        0.039       35.771        8.756        0.060      334.359        4.281      860.299
10/29/2013  19:35:00       62.397       28.074        0.345       11.835       15.388       14.914      140.062      236.792      222.441        0.264        0.030       68.422        7.844        0.013      334.347        4.260      860.313
10/29/2013  19:36:00       17.366       49.820       -8.969       26.362       25.310       10.698      694.958      640.616      114.456        0.216        0.073       52.759       15.224        0.083      334.342        4.252      860.325
10/29/2013  19:37:00      -16.878       94.012      -11.754       15.430       20.187       10.319      238.083      407.496      106.487        0.501        0.038       95.515        7.807        0.007      334.355        4.274      860.328
10/29/2013  19:38:00        7.640       91.828      -11.121       14.407       11.928       11.067      207.575      142.287      122.469        0.454        0.024       92.146        7.445        0.007      334.465        4.454      860.340
10/29/2013  19:39:00        4.260       31.481       -0.094        9.417       30.538       10.908       88.689      932.579      118.993        0.107        0.057       31.768       11.600        0.133      334.464        4.455      860.342
10/29/2013  19:40:00       -0.071        5.110        7.500        8.326       13.247        7.959       69.316      175.493       63.340        0.020        0.015        5.111        3.045        0.355      334.500        4.513      860.341
10/29/2013  19:41:00       -5.251       32.603       -0.033       23.630       20.442       15.307      558.398      417.871      234.307        0.115        0.061       33.023       12.203        0.137      334.484        4.487      860.338
10/29/2013  19:42:00        9.037       43.216      -13.429       15.653       14.570        9.034      245.019      212.272       81.614        0.133        0.027       44.150        8.689        0.039      334.449        4.427      860.330
10/29/2013  19:43:00        9.076       69.387       -9.282       15.355       29.002       14.738      235.764      841.106      217.196        0.314        0.065       69.978       13.788        0.039      334.424        4.389      860.330
10/29/2013  19:44:00       -2.703       77.275       -9.234       21.439       16.179       13.871      459.623      261.744      192.402        0.349        0.046       77.322        8.946        0.013      334.419        4.379      860.328
10/29/2013  19:45:00        3.209       77.978       -8.980       15.434       24.808       18.596      238.205      615.428      345.828        0.369        0.060       78.044       15.900        0.042      334.446        4.424      860.340
10/29/2013  19:46:00      -19.557       67.796       -3.219       21.518       38.055       16.014      463.034     1448.204      256.438        0.358        0.108       70.561       21.414        0.092      334.445        4.423      860.347
10/29/2013  19:47:00       26.185       28.292       -5.602       17.970       16.230       19.078      322.932      263.412      363.956        0.123        0.048       38.549       14.332        0.138      334.494        4.502      860.350
10/29/2013  19:48:00       58.096       30.891       16.263       28.697       25.207       26.282      823.492      635.392      690.733        0.337        0.107       65.798       17.912        0.074      334.459        4.448      860.364
10/29/2013  19:49:00       96.855       37.827       -3.531       18.754       21.840       17.744      351.701      476.975      314.850        0.598        0.057      103.979       12.160        0.014      334.371        4.303      860.375
10/29/2013  19:50:00       62.245       36.555        7.832       16.877       17.857       15.758      284.824      318.876      248.312        0.306        0.043       72.186       10.663        0.022      334.390        4.334      860.391
10/29/2013  19:51:00       59.496       25.282       -0.727       23.375       23.714       17.042      546.374      562.354      290.435        0.279        0.070       64.645       16.418        0.065      334.414        4.373      860.403
10/29/2013  19:52:00       49.558       38.713       -0.591       18.296       16.520       13.417      334.760      272.899      180.010        0.237        0.039       62.886       10.932        0.030      334.424        4.388      860.412
10/29/2013  19:53:00       47.727       46.349        7.176       22.327       20.235       18.831      498.498      409.442      354.604        0.287        0.063       66.529       16.847        0.064      334.490        4.497      860.424
10/29/2013  19:54:00       55.713       38.369       16.516       17.849       16.929       18.649      318.604      286.589      347.790        0.290        0.048       67.647       10.098        0.022      334.468        4.460      860.432
10/29/2013  19:55:00       37.432       27.779       13.589       27.056       16.945       16.460      732.014      287.131      270.918        0.182        0.065       46.614        9.494        0.041      334.497        4.509      860.442
10/29/2013  19:56:00       32.102       28.206       20.642       22.137       25.962       13.848      490.067      674.004      191.755        0.180        0.068       42.733        5.057        0.014      334.511        4.532      860.452
10/29/2013  19:57:00       48.751       45.573       -1.824       18.484       20.104       16.592      341.649      404.172      275.290        0.274        0.051       66.735       10.539        0.025      334.462        4.452      860.462
10/29/2013  19:58:00       57.471       39.882       10.323       30.523       17.121       23.039      931.624      293.141      530.810        0.338        0.088       69.953        5.447        0.006      334.422        4.385      860.474
10/29/2013  19:59:00       90.957       52.068       24.617       33.274       23.437       28.366     1107.165      549.289      804.608        0.703        0.123      104.806       25.271        0.058      334.416        4.375      860.484
10/29/2013  20:00:00       86.950       60.614       24.333       34.654       29.693       25.025     1200.923      881.698      626.228        0.727        0.135      105.992       20.274        0.037      334.454        4.438      860.497
10/29/2013  20:01:00       57.072       33.328       30.398       60.031       48.431       43.671     3603.708     2345.536     1907.154        0.657        0.393       66.091       43.007        0.423      334.423        4.387      860.500
10/29/2013  20:02:00       84.496       58.982       31.580       41.999       44.343       30.203     1763.887     1966.313      912.214        0.813        0.232      103.046       20.233        0.039      334.390        4.331      860.497
10/29/2013  20:03:00       88.891       61.037       23.203       26.545       20.058       20.303      704.626      402.327      412.211        0.684        0.076      107.830        8.488        0.006      334.357        4.275      860.492
10/29/2013  20:04:00       51.754       50.068        5.395       16.395       18.759       15.101      268.809      351.900      228.042        0.303        0.042       72.009        4.471        0.004      334.363        4.287      860.493
10/29/2013  20:05:00       60.263       36.497       15.351       24.530       17.029       19.353      601.734      289.986      374.538        0.323        0.063       70.453       14.094        0.040      334.389        4.331      860.493
10/29/2013  20:06:00       96.293       58.525       17.257       26.412       23.701       25.012      697.601      561.726      625.619        0.744        0.094      112.683       12.804        0.013      334.332        4.234      860.493
10/29/2013  20:07:00       92.453       46.258        2.181       26.677       28.319       23.647      711.641      801.951      559.189        0.638        0.104      103.380       10.270        0.010      334.334        4.239      860.484
10/29/2013  20:08:00       48.126       28.465       21.828       32.693       18.890       20.020     1068.864      356.829      400.803        0.271        0.091       55.914       20.704        0.137      334.391        4.333      860.468
10/29/2013  20:09:00       76.342       45.275        8.645       16.467       14.659       17.156      271.174      214.898      294.316        0.437        0.039       88.758       10.199        0.013      334.341        4.252      860.448
10/29/2013  20:10:00       84.534       42.040        3.975       29.177       20.602       22.210      851.306      424.439      493.298        0.535        0.088       94.411       13.716        0.021      334.349        4.264      860.427
10/29/2013  20:11:00       62.102       36.533       11.962       36.612       21.846       29.110     1340.445      477.245      847.417        0.400        0.133       72.051       11.887        0.027      334.319        4.217      860.420
10/29/2013  20:12:00       74.660       34.001        7.477       31.072       16.533       21.600      965.496      273.340      466.570        0.425        0.085       82.038       12.881        0.025      334.320        4.214      860.418
10/29/2013  20:13:00       98.141       46.292        6.856       22.502       21.245       21.592      506.326      451.342      466.199        0.662        0.071      108.510       12.422        0.013      334.341        4.251      860.415
10/29/2013  20:14:00       84.739       53.233        2.463       15.507       13.244       12.183      240.468      175.414      148.429        0.529        0.028      100.072        4.038        0.002      334.309        4.199      860.419
10/29/2013  20:15:00       63.951       50.375        4.353       16.553       15.574       14.981      274.007      242.534      224.443        0.369        0.037       81.409        8.426        0.011      334.300        4.184      860.424
10/29/2013  20:16:00       72.996       62.736        4.519       15.347       15.382       12.352      235.523      236.617      152.584        0.495        0.031       96.251        9.098        0.009      334.304        4.191      860.429
10/29/2013  20:17:00       62.568       54.342        1.164       20.299       15.789       17.097      412.055      249.296      292.317        0.391        0.048       82.873        9.200        0.012      334.327        4.225      860.434
10/29/2013  20:18:00       46.202       43.109        4.792       24.616       16.357       17.844      605.936      267.550      318.397        0.260        0.060       63.190        9.122        0.021      334.335        4.239      860.442
10/29/2013  20:19:00       54.328       50.489       -2.395       19.397       14.672       11.492      376.241      215.270      132.061        0.311        0.036       74.167        8.464        0.013      334.333        4.235      860.445
10/29/2013  20:20:00       58.840       43.080       -3.546       22.866       16.823       18.706      522.852      283.015      349.900        0.324        0.058       72.925       14.026        0.037      334.384        4.324      860.449
10/29/2013  20:21:00       64.877       47.021       27.961       31.505       22.133       28.457      992.547      489.873      809.799        0.475        0.115       80.125       20.674        0.067      334.423        4.387      860.444
10/29/2013  20:22:00       63.314       59.001       48.986       31.652       22.954       22.265     1001.843      526.866      495.750        0.596        0.101       86.543       15.604        0.033      334.398        4.347      860.440
10/29/2013  20:23:00       76.007       67.221       40.514       37.537       17.949       34.106     1409.031      322.184     1163.241        0.742        0.145      101.468       24.658        0.059      334.382        4.318      860.434
10/29/2013  20:24:00        9.122       44.252       58.147       29.653       22.461       13.978      879.277      504.492      195.394        0.350        0.079       45.182       11.539        0.065      334.446        4.423      860.437
10/29/2013  20:25:00       93.805       61.829       32.335       23.952       19.485       24.343      573.714      379.679      592.565        0.761        0.077      112.348       13.034        0.013      334.400        4.348      860.451
10/29/2013  20:26:00       87.593       63.885       30.922       19.532       23.835       20.911      381.482      568.120      437.277        0.705        0.069      108.415       11.680        0.012      334.386        4.325      860.447
10/29/2013  20:27:00       72.653       53.029       35.408       32.810       25.560       24.630     1076.524      653.296      606.624        0.584        0.117       89.947       13.750        0.023      334.404        4.356      860.440
10/29/2013  20:28:00       49.271       44.984       31.956       33.873       28.448       25.036     1147.348      809.272      626.812        0.403        0.129       66.717       19.184        0.083      334.445        4.423      860.431
10/29/2013  20:29:00       14.331       40.995       51.586       33.586       29.433       20.533     1128.034      866.283      421.593        0.348        0.121       43.428       15.957        0.135      334.449        4.429      860.442
10/29/2013  20:30:00       87.637       58.858       21.305       23.853       25.362       32.255      568.943      643.231     1040.378        0.693        0.113      105.568       22.877        0.047      334.355        4.274      860.450
10/29/2013  20:31:00       54.448       35.581       19.375       27.161       21.505       17.906      737.693      462.457      320.639        0.306        0.076       65.043        8.984        0.019      334.380        4.316      860.456
10/29/2013  20:32:00       61.974       48.398       14.083       24.308       21.532       24.296      590.892      463.625      590.279        0.401        0.082       78.633        8.866        0.013      334.378        4.312      860.459
10/29/2013  20:33:00       66.583       48.358       31.801       30.032       16.536       23.793      901.903      273.440      566.122        0.476        0.087       82.291       20.031        0.059      334.363        4.288      860.473
10/29/2013  20:34:00       83.417       59.736       39.026       29.511       19.253       25.935      870.888      370.671      672.623        0.698        0.096      102.600       12.711        0.015      334.373        4.304      860.492
10/29/2013  20:35:00       67.783       52.685       31.288       28.525       21.519       27.004      813.653      463.080      729.193        0.518        0.100       85.850        6.021        0.005      334.391        4.335      860.520
10/29/2013  20:36:00       93.250       56.348       32.617       40.645       26.951       26.253     1651.982      726.370      689.210        0.800        0.153      108.953       15.430        0.020      334.395        4.339      860.542
10/29/2013  20:37:00       89.747       65.655       23.293       21.657       21.073       26.129      469.015      444.090      682.708        0.725        0.080      111.199        7.803        0.005      334.349        4.262      860.571
10/29/2013  20:38:00       93.868       55.432       27.306       30.198       18.577       26.337      911.899      345.109      693.654        0.729        0.098      109.013       21.458        0.039      334.374        4.306      860.598
10/29/2013  20:39:00      101.080       48.522       28.600       25.139       22.819       25.243      631.951      520.695      637.234        0.759        0.089      112.123       16.791        0.022      334.388        4.329      860.621
10/29/2013  20:40:00       79.633       45.893       29.717       28.380       31.201       27.482      805.450      973.497      755.270        0.593        0.127       91.910       17.375        0.036      334.415        4.373      860.626
10/29/2013  20:41:00       55.607       29.865       21.476       24.148       25.993       23.796      583.139      675.620      566.257        0.313        0.091       63.120       15.418        0.060      334.405        4.357      860.631
10/29/2013  20:42:00       77.029       42.406       16.000       20.324       15.741       17.796      413.050      247.785      316.691        0.448        0.049       87.930       10.798        0.015      334.406        4.360      860.633
10/29/2013  20:43:00       57.502       50.856       27.536       23.857       20.355       21.148      569.171      414.307      447.249        0.404        0.072       76.765       13.821        0.032      334.394        4.338      860.640
10/29/2013  20:44:00       73.874       41.020       19.720       30.247       25.315       25.471      914.880      640.840      648.785        0.487        0.110       84.499       15.558        0.034      334.390        4.333      860.654
10/29/2013  20:45:00       52.574       41.000       19.501       24.537       18.722       20.743      602.049      350.508      430.284        0.310        0.069       66.671       15.227        0.052      334.378        4.311      860.670
10/29/2013  20:46:00       62.373       42.286       18.636       19.234       17.069       16.154      369.947      291.351      260.963        0.347        0.046       75.356        6.202        0.007      334.402        4.354      860.682
10/29/2013  20:47:00       79.580       47.006       19.765       17.260       12.614       15.995      297.925      159.110      255.843        0.482        0.036       92.426       10.353        0.013      334.391        4.333      860.680
10/29/2013  20:48:00       56.949       44.907       11.759       23.658       15.130       16.636      559.687      228.921      276.762        0.323        0.053       72.524       10.162        0.020      334.418        4.378      860.683
10/29/2013  20:49:00       46.678       46.906       31.703       21.651       14.524       16.116      468.774      210.957      259.727        0.316        0.047       66.175       13.562        0.042      334.452        4.436      860.684
10/29/2013  20:50:00       89.515       43.268       13.319       24.599       22.916       19.840      605.127      525.155      393.615        0.579        0.076       99.423        9.558        0.009      334.428        4.396      860.681
10/29/2013  20:51:00       86.700       64.089       34.779       23.402       21.374       22.004      547.666      456.861      484.198        0.716        0.074      107.816       10.222        0.009      334.437        4.409      860.688
10/29/2013  20:52:00       82.567       65.753       21.581       19.869       18.217       20.669      394.794      331.860      427.187        0.638        0.058      105.550       12.937        0.015      334.457        4.442      860.715
10/29/2013  20:53:00       86.245       61.263        9.041       13.381       14.816       13.802      179.052      219.510      190.497        0.593        0.029      105.789        6.738        0.004      334.397        4.344      860.745
10/29/2013  20:54:00       75.952       55.285       22.825       25.519       16.919       19.453      651.210      286.263      378.437        0.533        0.066       93.942       17.576        0.035      334.406        4.356      860.765
10/29/2013  20:55:00       79.090       40.321       11.369       24.842       22.224       19.114      617.142      493.895      365.340        0.474        0.074       88.775        8.516        0.009      334.429        4.398      860.783
10/29/2013  20:56:00       78.213       52.870       25.960       27.437       17.444       25.220      752.763      304.309      636.024        0.564        0.085       94.406       14.374        0.023      334.431        4.402      860.800
10/29/2013  20:57:00       59.797       38.043       21.995       26.584       21.758       21.200      706.686      473.431      449.428        0.357        0.081       70.872       12.855        0.033      334.461        4.448      860.821
10/29/2013  20:58:00       31.108       31.951       27.564       43.448       21.591       27.271     1887.730      466.167      743.705        0.292        0.155       44.593       23.859        0.286      334.508        4.527      860.836
10/29/2013  20:59:00       51.959       37.103       29.486       27.159       17.674       20.557      737.628      312.371      422.608        0.321        0.074       63.847        9.733        0.023      334.499        4.512      860.846
10/29/2013  21:00:00       70.970      -10.037       -0.219       23.780       32.879       17.443      565.483     1081.006      304.252        0.354        0.098       71.676       17.751        0.061      334.477        4.475      860.860
10/29/2013  21:01:00       70.371      -10.127       24.884       23.693       15.385       21.184      561.382      236.695      448.765        0.346        0.062       71.096       16.244        0.052      334.495        4.505      860.878
10/29/2013  21:02:00       26.660       38.920       -5.533       20.694       17.448       21.312      428.231      304.431      454.217        0.172        0.059       47.175        4.258        0.008      334.466        4.456      860.893
10/29/2013  21:03:00       56.582       35.354       19.664       24.248       18.717       20.303      587.943      350.319      412.219        0.309        0.068       66.719       14.505        0.047      334.485        4.490      860.919
10/29/2013  21:04:00       70.518       57.702       14.573       13.964       18.184       19.335      194.998      330.664      373.852        0.471        0.045       91.117       10.184        0.012      334.464        4.455      860.937
10/29/2013  21:05:00       76.813       71.876       23.588       15.447       12.185       12.028      238.620      148.476      144.674        0.608        0.027      105.197        8.839        0.007      334.446        4.424      860.949
10/29/2013  21:06:00       59.149       59.884        9.226       17.855       14.242        9.865      318.808      202.821       97.325        0.389        0.031       84.171        5.791        0.005      334.453        4.437      860.958
10/29/2013  21:07:00       43.247       44.261       29.612       31.687       23.932       20.740     1004.043      572.754      430.131        0.336        0.100       61.881       19.435        0.099      334.529        4.561      860.966
10/29/2013  21:08:00       64.523       43.822       23.900       35.836       13.903       21.567     1284.223      193.298      465.124        0.430        0.097       77.998       18.920        0.059      334.494        4.503      860.982
10/29/2013  21:09:00       69.960       38.914        1.346       21.088       16.827       16.972      444.724      283.144      288.061        0.371        0.051       80.054        7.430        0.009      334.476        4.474      861.006
10/29/2013  21:10:00       67.276       38.516        6.514       13.845       17.583       14.958      191.696      309.146      223.730        0.339        0.036       77.521        8.572        0.012      334.474        4.471      861.030
10/29/2013  21:11:00       49.085       40.177       -1.758       22.177       15.044       14.942      491.813      226.324      223.275        0.248        0.047       63.431       13.318        0.044      334.459        4.446      861.049
10/29/2013  21:12:00       45.626       28.978        3.610       16.317       16.041       14.880      266.250      257.323      221.411        0.184        0.037       54.050       11.598        0.046      334.485        4.491      861.055
10/29/2013  21:13:00       45.651       33.232        7.181       20.916       14.455       14.289      437.499      208.936      204.184        0.205        0.043       56.466        8.907        0.025      334.463        4.452      861.061
10/29/2013  21:14:00       25.343       40.486        0.166       21.144       21.853       18.613      447.090      477.541      346.433        0.178        0.064       47.764       14.719        0.095      334.434        4.408      861.062
10/29/2013  21:15:00       16.375       36.724       -0.393       16.482       21.394       15.438      271.667      457.682      238.323        0.129        0.048       40.209       15.326        0.145      334.442        4.421      861.073
10/29/2013  21:16:00       21.518       58.414       -2.188       16.658       23.055       11.993      277.490      531.535      143.823        0.242        0.048       62.251       11.121        0.032      334.433        4.405      861.084
10/29/2013  21:17:00       21.190       48.010       -1.764       19.666       19.887       15.546      386.750      395.474      241.664        0.189        0.051       52.478       15.278        0.085      334.449        4.429      861.097
10/29/2013  21:18:00       15.181       48.762       -6.160       11.531       16.604        7.420      132.974      275.689       55.056        0.155        0.023       51.070        4.965        0.009      334.459        4.447      861.109
10/29/2013  21:19:00       12.634       29.059        0.358       12.576       23.911       12.384      158.146      571.727      153.356        0.094        0.044       31.686       14.294        0.204      334.476        4.473      861.121
10/29/2013  21:20:00       34.919       21.044        2.065       15.705       12.512       11.184      246.633      156.547      125.091        0.110        0.026       40.770        9.701        0.057      334.466        4.460      861.128
10/29/2013  21:21:00       29.632       30.956       -0.150       15.686       19.883       15.282      246.039      395.352      233.525        0.136        0.044       42.853       12.221        0.081      334.466        4.457      861.141
10/29/2013  21:22:00       16.412       21.603       -1.215       11.570       10.781       11.051      133.871      116.235      122.125        0.055        0.019       27.130        5.395        0.040      334.507        4.524      861.154
10/29/2013  21:23:00       37.256       24.567        0.938       14.555       10.768       13.821      211.860      115.956      191.029        0.126        0.026       44.626        8.950        0.040      334.503        4.517      861.162
10/29/2013  21:24:00       12.069       22.880        4.820       17.414       19.940       10.366      303.250      397.622      107.458        0.075        0.040       25.868       11.810        0.208      334.519        4.545      861.166
10/29/2013  21:25:00       16.003       17.000       -0.548       14.958        9.284        9.459      223.754       86.198       89.476        0.047        0.020       23.347        6.864        0.086      334.487        4.493      861.162
10/29/2013  21:26:00        8.563        6.396        1.653       10.527       13.110       10.832      110.825      171.873      117.333        0.026        0.020       10.688        6.653        0.387      334.514        4.539      861.170
10/29/2013  21:27:00       -0.889       -2.452        5.710       10.024        9.683        9.235      100.482       93.755       85.277        0.016        0.014        2.608        4.672        3.209      334.546        4.589      861.176
10/29/2013  21:28:00       -7.343       17.304       -3.276       14.584       17.687       10.596      212.695      312.842      112.284        0.050        0.032       18.797       11.661        0.385      334.473        4.468      861.190
10/29/2013  21:29:00        6.729       13.184       -4.254       11.495       15.739       11.151      132.138      247.709      124.345        0.037        0.025       14.802        9.719        0.431      334.476        4.478      861.212
10/29/2013  21:30:00       16.944       27.274       -2.846       11.970       13.301        8.806      143.275      176.908       77.542        0.072        0.020       32.108        7.339        0.052      334.448        4.428      861.224
10/29/2013  21:31:00       14.302       35.178       -3.546       12.668       14.246       10.550      160.473      202.957      111.309        0.096        0.024       37.974        8.082        0.045      334.444        4.422      861.231
10/29/2013  21:32:00       37.475       19.329        3.722       16.057       13.406       14.918      257.831      179.712      222.533        0.123        0.033       42.167       11.418        0.073      334.476        4.474      861.238
10/29/2013  21:33:00       48.505       31.770       14.852       20.058       15.750       19.530      402.317      248.070      381.419        0.231        0.052       57.983       16.780        0.084      334.471        4.465      861.242
10/29/2013  21:34:00        7.274       26.751       24.990       16.925       15.513       15.188      286.457      240.651      230.690        0.108        0.038       27.722       10.930        0.155      334.511        4.532      861.245
10/29/2013  21:35:00       -6.276       18.439       31.715        7.706       19.328        9.043       59.387      373.569       81.775        0.095        0.026       19.478        8.399        0.186      334.580        4.647      861.256
10/29/2013  21:36:00       17.310       15.469       26.341       29.116       24.644       20.783      847.738      607.351      431.938        0.156        0.094       23.215       19.855        0.732      334.501        4.516      861.279
10/29/2013  21:37:00       27.003        6.811       19.722       25.785       23.423       14.860      664.877      548.615      220.806        0.130        0.072       27.849       10.131        0.132      334.502        4.517      861.290
10/29/2013  21:38:00       67.013       51.214       35.132       19.433       22.472       19.589      377.625      504.973      383.732        0.481        0.063       84.343       12.630        0.022      334.468        4.460      861.302
10/29/2013  21:39:00       48.234       58.567       45.616       26.973       18.159       19.943      727.553      329.739      397.719        0.465        0.073       75.872       11.397        0.023      334.492        4.502      861.309
10/29/2013  21:40:00       58.881       57.463       38.307       18.603       18.326       15.413      346.076      335.827      237.546        0.458        0.046       82.274       11.123        0.018      334.454        4.439      861.322
10/29/2013  21:41:00       75.699       33.416       17.028       23.944       23.390       23.803      573.329      547.079      566.559        0.441        0.084       82.746       16.211        0.038      334.460        4.450      861.333
10/29/2013  21:42:00       83.691       38.199        5.043       24.734       21.194       21.148      611.752      449.167      447.235        0.500        0.075       91.996        9.159        0.010      334.456        4.441      861.336
10/29/2013  21:43:00       82.088       41.140        5.633       25.588       23.699       17.726      654.732      561.645      314.212        0.500        0.077       91.820       12.145        0.017      334.445        4.425      861.347
10/29/2013  21:44:00       68.143       41.634        6.783       18.510       20.843       18.737      342.630      434.426      351.065        0.378        0.056       79.855       12.313        0.024      334.464        4.453      861.351
10/29/2013  21:45:00       58.094       44.399       16.781       24.628       22.053       23.350      606.539      486.316      545.212        0.363        0.082       73.118       16.814        0.053      334.473        4.469      861.348
10/29/2013  21:46:00       77.281       55.399       15.972       19.194       21.049       21.691      368.412      443.068      470.508        0.529        0.064       95.086       11.207        0.014      334.468        4.461      861.344
10/29/2013  21:47:00       78.887       53.511        4.491       15.017       14.671       12.290      225.497      215.252      151.037        0.485        0.030       95.323        7.924        0.007      334.454        4.437      861.340
10/29/2013  21:48:00       69.088       26.364        4.515       23.660       23.111       22.630      559.806      534.103      512.123        0.355        0.080       73.947       10.468        0.020      334.460        4.448      861.346
10/29/2013  21:49:00       72.294       38.742       14.677       29.851       19.940       19.235      891.053      397.612      369.986        0.430        0.083       82.020       11.166        0.019      334.482        4.485      861.362
10/29/2013  21:50:00       92.614       56.086        0.361       19.789       21.059       17.729      391.586      443.492      314.306        0.644        0.057      108.272       13.690        0.016      334.434        4.408      861.391
10/29/2013  21:51:00       80.187       29.263       -6.425       29.803       25.772       25.784      888.189      664.210      664.824        0.477        0.111       85.360       13.585        0.025      334.457        4.442      861.418
10/29/2013  21:52:00       90.291       38.919        8.108       30.819       23.194       24.486      949.799      537.982      599.544        0.591        0.104       98.322        7.696        0.006      334.469        4.462      861.428
10/29/2013  21:53:00       90.799       51.673       18.270       34.216       20.527       22.139     1170.725      421.371      490.137        0.666        0.104      104.473       14.265        0.019      334.470        4.462      861.430
10/29/2013  21:54:00       93.341       44.888       15.361       19.531       21.192       21.452      381.452      449.118      460.179        0.613        0.065      103.573       11.277        0.012      334.426        4.393      861.416
10/29/2013  21:55:00       85.782       42.569       13.356       39.909       31.529       31.001     1592.711      994.104      961.086        0.645        0.177       95.764       20.049        0.044      334.451        4.434      861.396
10/29/2013  21:56:00       64.571       41.311       59.288       43.374       32.501       30.483     1881.315     1056.303      929.237        0.663        0.193       76.655       22.987        0.090      334.454        4.438      861.384
10/29/2013  21:57:00       70.391       44.822       67.145       54.530       40.702       37.957     2973.563     1656.652     1440.700        0.877        0.304       83.450       35.297        0.179      334.447        4.427      861.389
10/29/2013  21:58:00       75.465       56.053       79.738       48.881       38.690       32.305     2389.358     1496.882     1043.615        1.006        0.246       94.005       13.691        0.021      334.416        4.373      861.404
10/29/2013  21:59:00       59.037       25.849       59.685       53.133       39.486       34.622     2823.066     1559.115     1198.648        0.665        0.279       64.448       28.243        0.192      334.444        4.422      861.431
10/29/2013  22:00:00       43.514       44.003       41.492       31.471       27.551       26.589      990.445      759.062      706.953        0.400        0.123       61.885       22.928        0.137      334.463        4.454      861.455
10/29/2013  22:01:00       66.241       36.318        4.323       40.168       35.577       28.041     1613.491     1265.735      786.310        0.469        0.183       75.544       15.072        0.040      334.452        4.435      861.461
10/29/2013  22:02:00       91.095       41.047        7.741       40.716       34.225       29.283     1657.808     1171.334      857.477        0.686        0.184       99.915       19.179        0.037      334.394        4.338      861.467
10/29/2013  22:03:00       79.913       41.054        8.741       49.762       36.685       21.988     2476.268     1345.802      483.455        0.623        0.215       89.842       15.809        0.031      334.392        4.336      861.474
10/29/2013  22:04:00       85.309       55.758       -0.225       31.741       26.534       21.240     1007.521      704.064      451.154        0.627        0.108      101.915       15.360        0.023      334.381        4.316      861.492
10/29/2013  22:05:00      101.660       68.506       14.253       23.467       21.961       25.531      550.712      482.277      651.844        0.846        0.084      122.588       12.291        0.010      334.385        4.324      861.505
10/29/2013  22:06:00       90.268       65.441        6.454       26.226       18.216       19.802      687.815      331.823      392.133        0.694        0.071      111.494       16.607        0.022      334.395        4.341      861.500
10/29/2013  22:07:00       49.014       44.917       24.792       26.105       28.781       22.348      681.458      828.331      499.444        0.352        0.100       66.483       13.078        0.039      334.488        4.494      861.492
10/29/2013  22:08:00       86.649       47.583       15.708       24.733       17.999       17.162      611.702      323.977      294.527        0.562        0.062       98.855        7.534        0.006      334.414        4.372      861.484
10/29/2013  22:09:00      102.854       54.547        0.894       39.613       40.730       27.757     1569.169     1658.896      770.440        0.878        0.200      116.423       14.970        0.017      334.401        4.350      861.487
10/29/2013  22:10:00      107.164       69.909        9.304       32.807       23.058       29.633     1076.322      531.671      878.111        0.947        0.124      127.951       23.381        0.033      334.368        4.294      861.494
10/29/2013  22:11:00      116.866       53.239       13.923       22.165       14.389       19.807      491.285      207.055      392.329        0.889        0.055      128.421        8.631        0.005      334.392        4.336      861.488
10/29/2013  22:12:00       78.218       39.142       28.605       19.541       29.736       20.116      381.843      884.227      404.658        0.507        0.084       87.465       10.011        0.013      334.388        4.329      861.489
10/29/2013  22:13:00       41.117        6.143       18.874       33.168       27.005       22.975     1100.102      729.257      527.832        0.222        0.118       41.573       19.128        0.212      334.414        4.372      861.497
10/29/2013  22:14:00       41.872       19.784       13.711       32.008       22.507       20.509     1024.519      506.555      420.606        0.214        0.098       46.311       11.031        0.057      334.443        4.420      861.515
10/29/2013  22:15:00       56.628       43.796       11.365       13.047       14.221       13.403      170.226      202.237      179.645        0.290        0.028       71.588        5.120        0.005      334.465        4.457      861.540
10/29/2013  22:16:00       56.184       44.652        0.657       14.283       16.244       14.340      204.003      263.864      205.627        0.291        0.034       71.767       10.294        0.021      334.389        4.330      861.556
10/29/2013  22:17:00       69.321       33.409        5.566       20.121       28.153       19.826      404.835      792.575      393.083        0.377        0.080       76.952        4.447        0.003      334.417        4.375      861.563
10/29/2013  22:18:00       71.799       33.727       16.526       32.104       21.764       22.420     1030.640      473.651      502.639        0.429        0.100       79.326        9.569        0.015      334.408        4.363      861.560
10/29/2013  22:19:00       55.962       17.636       23.649       32.601       22.466       25.647     1062.845      504.708      657.786        0.311        0.111       58.675       15.730        0.072      334.413        4.372      861.557
10/29/2013  22:20:00       89.709       48.997       13.473       27.501       18.360       16.718      756.302      337.082      279.488        0.600        0.069      102.218       11.678        0.013      334.378        4.312      861.556
10/29/2013  22:21:00       77.957       33.967        6.070       25.601       22.122       16.419      655.391      489.363      269.592        0.434        0.071       85.036        7.316        0.007      334.408        4.364      861.562
10/29/2013  22:22:00       76.436       43.008        5.786       20.950       28.231       18.569      438.882      797.017      344.801        0.465        0.079       87.705       11.439        0.017      334.388        4.330      861.570
10/29/2013  22:23:00       99.115       47.253       11.679       21.539       22.116       22.029      463.926      489.129      485.285        0.682        0.072      109.802       12.639        0.013      334.390        4.332      861.570
10/29/2013  22:24:00       68.426       52.281        6.476       32.737       27.817       26.796     1071.733      773.787      718.030        0.501        0.128       86.113       23.249        0.073      334.397        4.344      861.570
10/29/2013  22:25:00       65.976       38.312       12.565       23.994       29.241       24.511      575.710      855.045      600.780        0.400        0.102       76.293       15.942        0.044      334.388        4.329      861.573
10/29/2013  22:26:00       81.797       35.902        5.753       29.686       27.621       24.642      881.247      762.946      607.242        0.513        0.113       89.329       15.906        0.032      334.386        4.325      861.585
10/29/2013  22:27:00       78.453       35.652       11.440       22.401       24.594       19.415      501.784      604.854      376.926        0.452        0.074       86.173       13.590        0.025      334.395        4.340      861.596
10/29/2013  22:28:00      101.426       54.041        8.519       31.322       23.827       17.813      981.061      567.721      317.314        0.757        0.093      114.925       12.479        0.012      334.365        4.291      861.592
10/29/2013  22:29:00       87.362       57.477       20.415       27.583       20.498       24.126      760.828      420.156      582.051        0.656        0.088      104.574       21.294        0.041      334.346        4.257      861.590
10/29/2013  22:30:00       95.736       50.509       -5.112       23.630       22.966       20.203      558.399      527.451      408.162        0.662        0.075      108.243        9.959        0.008      334.365        4.290      861.600
10/29/2013  22:31:00      103.304       85.005       -1.170       25.582       21.183       21.926      654.455      448.706      480.762        0.974        0.079      133.782       15.071        0.013      334.364        4.288      861.605
10/29/2013  22:32:00       73.506       59.740        8.065       36.715       25.493       20.816     1348.017      649.872      433.293        0.573        0.122       94.720       15.440        0.027      334.368        4.295      861.623
10/29/2013  22:33:00       74.054       42.216        1.179       32.981       27.475       20.918     1087.742      754.902      437.577        0.477        0.114       85.243       10.289        0.015      334.349        4.262      861.646
10/29/2013  22:34:00       73.030       54.212       13.642       29.203       21.948       22.848      852.822      481.715      522.037        0.516        0.093       90.952        9.294        0.010      334.353        4.267      861.662
10/29/2013  22:35:00       81.487       41.135       12.797       26.716       27.154       20.152      713.740      737.320      406.096        0.518        0.093       91.281       16.584        0.033      334.373        4.303      861.668
10/29/2013  22:36:00       65.556       32.697        8.786       31.514       26.897       20.330      993.144      723.463      413.300        0.379        0.106       73.258       10.354        0.020      334.389        4.332      861.672
10/29/2013  22:37:00       90.932       60.019       15.854       23.151       19.854       25.768      535.969      394.193      663.968        0.686        0.080      108.954       11.353        0.011      334.340        4.247      861.669
10/29/2013  22:38:00       73.872       56.301       10.211       33.663       20.569       22.983     1133.205      423.064      528.225        0.541        0.104       92.881       14.007        0.023      334.335        4.237      861.669
10/29/2013  22:39:00       84.656       33.623       14.310       17.694       16.139       18.541      313.064      260.478      343.785        0.471        0.046       91.089        5.208        0.003      334.337        4.240      861.664
10/29/2013  22:40:00       61.982       29.052        2.194       26.743       20.259       22.273      715.198      410.431      496.094        0.316        0.081       68.453       11.197        0.027      334.350        4.264      861.656
10/29/2013  22:41:00       78.242       34.970       10.807       24.426       24.115       22.273      596.617      581.529      496.101        0.457        0.084       85.702       13.946        0.026      334.351        4.266      861.645
10/29/2013  22:42:00       68.278       29.275       -0.112       33.893       20.459       16.324     1148.750      418.553      266.487        0.368        0.092       74.289       14.384        0.037      334.360        4.280      861.643
10/29/2013  22:43:00       22.932        1.302       13.305       23.346       15.794       15.263      545.035      249.452      232.965        0.087        0.051       22.968       11.066        0.232      334.467        4.459      861.632
10/29/2013  22:44:00       47.522       49.153        4.537       22.316       12.941       14.836      497.990      167.479      220.096        0.279        0.044       68.370        9.804        0.021      334.390        4.332      861.626
10/29/2013  22:45:00       57.009       52.108        0.327       17.072       15.949       17.149      291.437      254.376      294.078        0.340        0.042       77.235        7.429        0.009      334.383        4.320      861.619
10/29/2013  22:46:00       66.298       44.987        7.693       18.286       19.946       18.553      334.374      397.827      344.196        0.378        0.054       80.120        6.593        0.007      334.363        4.286      861.619
10/29/2013  22:47:00       84.165       45.257        7.798       17.481       12.714       18.650      305.602      161.656      347.806        0.500        0.041       95.562       13.982        0.021      334.365        4.291      861.626
10/29/2013  22:48:00       67.689       40.153       13.147       26.881       16.606       20.355      722.599      275.752      414.310        0.389        0.071       78.702       13.737        0.030      334.368        4.295      861.623
10/29/2013  22:49:00      110.653       50.330        6.449       20.647       18.585       20.782      426.306      345.420      431.903        0.801        0.060      121.561       14.907        0.015      334.342        4.248      861.616
10/29/2013  22:50:00       95.628       51.344        9.837       27.860       24.924       18.554      776.199      621.198      344.247        0.681        0.087      108.540       14.531        0.018      334.337        4.242      861.605
10/29/2013  22:51:00       69.889       28.843       14.567       35.814       26.989       21.916     1282.672      728.399      480.327        0.421        0.125       75.607       16.694        0.049      334.391        4.333      861.593
10/29/2013  22:52:00       72.296       38.824        7.535       12.852       12.957       10.789      165.172      167.885      116.393        0.362        0.022       82.062        2.338        0.001      334.351        4.265      861.590
10/29/2013  22:53:00       58.374       38.669       -9.900       19.810       16.364       13.117      392.446      267.794      172.057        0.292        0.042       70.020       10.970        0.025      334.356        4.276      861.585
10/29/2013  22:54:00       64.573       16.688        2.575       21.315       28.672       14.260      454.318      822.100      203.353        0.297        0.074       66.694       14.193        0.045      334.369        4.296      861.582
10/29/2013  22:55:00       36.497       16.276       15.872       30.439       25.269       21.674      926.562      638.534      469.779        0.194        0.102       39.962       18.542        0.215      334.415        4.374      861.583
10/29/2013  22:56:00       76.680       52.256       33.532       22.795       16.070       27.221      519.605      258.243      741.010        0.563        0.076       92.793       12.499        0.018      334.360        4.281      861.602
10/29/2013  22:57:00       53.354       47.365       11.501       21.027       16.177       19.525      442.131      261.684      381.225        0.315        0.054       71.345       11.616        0.027      334.395        4.339      861.623
10/29/2013  22:58:00       22.941       45.767       37.571       22.875       22.686       21.231      523.262      514.633      450.753        0.276        0.074       51.195       11.482        0.050      334.446        4.426      861.625
10/29/2013  22:59:00       50.867       44.157       34.023       29.291       24.716       27.906      857.938      610.893      778.721        0.397        0.112       67.359       20.910        0.096      334.410        4.366      861.623
10/29/2013  23:00:00       48.545       68.016       50.570       31.586       20.761       16.388      997.704      431.019      268.561        0.562        0.085       83.563       13.984        0.028      334.419        4.379      861.615
10/29/2013  23:01:00       85.441       29.919       24.048       22.069       28.323       19.105      487.029      802.166      365.019        0.521        0.083       90.528       14.304        0.025      334.350        4.265      861.605
10/29/2013  23:02:00       54.456       26.998       44.562       28.439       26.070       19.468      808.772      679.632      379.022        0.377        0.093       60.781       13.997        0.053      334.381        4.316      861.585
10/29/2013  23:03:00       47.314       56.490       52.341       25.807       29.757       22.119      666.023      885.454      489.258        0.510        0.102       73.687       19.050        0.067      334.395        4.340      861.575
10/29/2013  23:04:00       52.587       41.414       25.305       34.825       27.784       24.221     1212.775      771.952      586.647        0.385        0.129       66.936       20.535        0.094      334.389        4.328      861.573
10/29/2013  23:05:00      103.760       66.517       20.560       21.658       18.950       19.875      469.052      359.093      395.011        0.842        0.061      123.250       12.648        0.011      334.355        4.274      861.574
10/29/2013  23:06:00       96.733       60.568       17.510       33.101       20.401       21.134     1095.698      416.207      446.641        0.765        0.098      114.130       12.797        0.013      334.338        4.243      861.574
10/29/2013  23:07:00      117.768       72.590       18.723       34.153       23.110       27.770     1166.417      534.078      771.197        1.098        0.124      138.342       20.781        0.023      334.336        4.240      861.571
10/29/2013  23:08:00      102.939       41.188        0.202       44.245       31.278       27.644     1957.586      978.324      764.170        0.800        0.185      110.874       20.368        0.034      334.348        4.261      861.563
10/29/2013  23:09:00      101.543       61.791       14.984       16.342       22.250       17.544      267.045      495.080      307.796        0.771        0.053      118.866        9.804        0.007      334.328        4.228      861.554
10/29/2013  23:10:00       81.921       62.996       16.525       17.586       20.581       17.322      309.266      423.587      300.039        0.599        0.052      103.342        8.519        0.007      334.322        4.217      861.547
10/29/2013  23:11:00      110.416       44.544        8.134       37.564       28.717       23.772     1411.042      824.683      565.121        0.852        0.140      119.062       22.313        0.035      334.339        4.249      861.531
10/29/2013  23:12:00      113.314       54.788       12.208       34.863       33.834       30.118     1215.461     1144.749      907.091        0.963        0.163      125.864       23.063        0.034      334.322        4.219      861.521
10/29/2013  23:13:00       98.391       45.152       14.496       42.408       26.052       23.770     1798.458      678.683      565.013        0.749        0.152      108.257       19.355        0.032      334.333        4.237      861.513
10/29/2013  23:14:00       55.976       41.166       37.322       32.738       27.201       27.977     1071.753      739.877      782.723        0.441        0.130       69.483       12.708        0.033      334.363        4.287      861.505
10/29/2013  23:15:00       86.603       45.216       28.732       27.713       21.342       21.791      768.021      455.468      474.857        0.603        0.085       97.696       17.394        0.032      334.349        4.263      861.509
10/29/2013  23:16:00       92.023       61.594       12.539       23.785       18.063       19.036      565.707      326.261      362.354        0.684        0.063      110.734       14.757        0.018      334.352        4.269      861.507
10/29/2013  23:17:00       77.399       51.051       34.445       33.403       23.948       26.691     1115.762      573.497      712.384        0.609        0.120       92.719       16.321        0.031      334.368        4.295      861.503
10/29/2013  23:18:00       78.491       55.867       38.050       27.857       18.260       24.142      776.005      333.439      582.851        0.621        0.085       96.343       13.162        0.019      334.389        4.331      861.498
10/29/2013  23:19:00       77.007       51.482       25.480       23.290       18.736       23.692      542.421      351.054      561.299        0.534        0.073       92.631       14.131        0.023      334.422        4.384      861.484
10/29/2013  23:20:00       46.833       68.220       58.011       34.473       37.209       28.597     1188.395     1384.495      817.809        0.680        0.170       82.748       23.468        0.080      334.384        4.322      861.480
10/29/2013  23:21:00       95.519       75.965       27.687       56.975       40.162       50.244     3246.116     1612.955     2524.427        1.152        0.369      122.043       48.764        0.160      334.373        4.303      861.483
10/29/2013  23:22:00       82.249       32.624       26.464       53.611       44.526       37.467     2874.184     1982.537     1403.742        0.739        0.313       88.483       29.349        0.110      334.387        4.326      861.479
10/29/2013  23:23:00      116.388       68.382       32.768       36.013       27.819       30.168     1296.950      773.902      910.086        1.114        0.149      134.990       16.557        0.015      334.316        4.209      861.476
10/29/2013  23:24:00       72.791       24.297       14.738       27.392       23.317       20.746      750.335      543.675      430.397        0.391        0.086       76.739       13.710        0.032      334.329        4.231      861.467
10/29/2013  23:25:00       49.673       25.690       34.332       29.996       22.600       28.184      899.750      510.761      794.334        0.326        0.110       55.923       18.359        0.108      334.356        4.277      861.455
10/29/2013  23:26:00       45.738       45.381       32.031       37.090       23.908       26.498     1375.676      571.610      702.138        0.391        0.132       64.431       25.598        0.158      334.375        4.306      861.435
10/29/2013  23:27:00       89.470       57.288       14.442       30.741       28.436       21.650      944.992      808.594      468.704        0.686        0.111      106.239       11.421        0.012      334.303        4.186      861.431
10/29/2013  23:28:00       68.874       35.144        6.424       25.578       32.232       24.449      654.253     1038.891      597.749        0.416        0.115       77.322       13.238        0.029      334.295        4.176      861.427
10/29/2013  23:29:00       69.688       52.425       12.504       25.091       19.267       21.163      629.548      371.219      447.880        0.460        0.072       87.205        9.774        0.013      334.298        4.181      861.425
10/29/2013  23:30:00       71.149       54.330       11.362       22.528       18.227       21.004      507.522      332.206      441.172        0.471        0.064       89.521       13.206        0.022      334.300        4.182      861.427
10/29/2013  23:31:00       53.404       42.487       19.753       25.551       18.532       22.054      652.852      343.443      486.368        0.326        0.074       68.243        8.693        0.016      334.343        4.254      861.435
10/29/2013  23:32:00       48.419       32.944       15.537       33.472       24.083       25.592     1120.342      579.985      654.927        0.301        0.118       58.563       23.012        0.154      334.307        4.195      861.442
10/29/2013  23:33:00       74.949       55.613        5.762       29.383       23.709       22.477      863.344      562.133      505.201        0.534        0.097       93.329       13.481        0.021      334.296        4.176      861.447
10/29/2013  23:34:00       69.345       47.338        8.717       27.571       19.854       21.730      760.171      394.196      472.171        0.438        0.081       83.962       15.223        0.033      334.290        4.165      861.447
10/29/2013  23:35:00       77.752       52.706        6.626       37.937       23.838       21.520     1439.203      568.228      463.117        0.567        0.124       93.932       15.619        0.028      334.288        4.163      861.458
10/29/2013  23:36:00       74.538       54.124       11.817       28.024       18.711       19.024      785.336      350.084      361.909        0.506        0.075       92.116       13.232        0.021      334.274        4.138      861.476
10/29/2013  23:37:00       89.804       36.918       15.639       33.174       22.891       20.765     1100.524      524.019      431.189        0.586        0.103       97.096       20.897        0.046      334.299        4.180      861.488
10/29/2013  23:38:00       76.349       59.284       14.620       16.854       15.479       18.940      284.059      239.585      358.725        0.522        0.044       96.663       10.152        0.011      334.299        4.182      861.505
10/29/2013  23:39:00       61.069       34.423        7.070       13.448       15.557       16.224      180.835      242.006      263.203        0.283        0.034       70.103        8.620        0.015      334.327        4.228      861.522
10/29/2013  23:40:00       66.554       41.352        7.239       33.095       24.091       18.375     1095.288      580.361      337.659        0.410        0.101       78.355       13.019        0.028      334.311        4.201      861.530
10/29/2013  23:41:00       98.369       46.160        4.437       29.758       30.340       18.850      885.510      920.502      355.308        0.699        0.108      108.660       14.538        0.018      334.301        4.184      861.535
10/29/2013  23:42:00       82.177       52.001        2.727       30.211       28.759       25.930      912.722      827.076      672.375        0.594        0.121       97.248        8.861        0.008      334.278        4.146      861.535
10/29/2013  23:43:00      102.644       53.484       17.178       38.236       21.720       25.308     1462.028      471.768      640.470        0.813        0.129      115.742        9.289        0.006      334.273        4.137      861.524
10/29/2013  23:44:00       70.570       37.010       11.095       45.809       28.161       26.997     2098.439      793.033      728.859        0.505        0.181       79.686       27.343        0.118      334.278        4.148      861.513
10/29/2013  23:45:00       88.933       54.551       20.056       28.225       15.283       26.071      796.639      233.579      679.674        0.650        0.085      104.331       17.776        0.029      334.323        4.221      861.498
10/29/2013  23:46:00       70.553       58.573       22.811       19.323       15.793       27.182      373.376      249.417      738.873        0.515        0.068       91.698        7.517        0.007      334.281        4.152      861.490
10/29/2013  23:47:00       85.933       35.695       25.569       33.094       28.525       22.972     1095.226      813.677      527.696        0.587        0.122       93.052       13.633        0.021      334.335        4.240      861.485
10/29/2013  23:48:00       80.429       23.708       11.448       49.049       32.109       25.168     2405.759     1030.978      633.406        0.562        0.204       83.851       19.768        0.056      334.296        4.176      861.487
10/29/2013  23:49:00       83.400       21.331       11.962       38.311       28.515       22.954     1467.733      813.077      526.880        0.518        0.140       86.084        8.767        0.010      334.283        4.154      861.482
10/29/2013  23:50:00       65.166       12.965        6.907       32.309       27.708       20.988     1043.843      767.725      440.503        0.336        0.113       66.443       16.581        0.062      334.277        4.144      861.480
10/29/2013  23:51:00       62.060       22.496        4.907       24.242       22.330       20.075      587.659      498.635      402.995        0.294        0.074       66.011        9.465        0.021      334.285        4.157      861.476
10/29/2013  23:52:00       61.897       41.983        8.056       21.825       17.428       18.250      476.345      303.747      333.051        0.339        0.056       74.791        8.089        0.012      334.261        4.117      861.477
10/29/2013  23:53:00       76.723       33.650        8.237       28.931       28.714       18.784      837.026      824.481      352.848        0.455        0.101       83.778       16.646        0.039      334.263        4.121      861.479
10/29/2013  23:54:00       79.793       37.910       10.563       25.651       22.134       18.393      657.989      489.912      338.304        0.470        0.074       88.341        9.152        0.011      334.277        4.143      861.479
10/29/2013  23:55:00       81.649       47.809       10.093       16.658       31.734       20.490      277.478     1007.018      419.842        0.538        0.085       94.617       14.674        0.024      334.264        4.122      861.471
10/29/2013  23:56:00       76.327       46.991        6.612       27.865       22.104       19.706      776.439      488.582      388.322        0.487        0.083       89.632       11.899        0.018      334.267        4.127      861.465
10/29/2013  23:57:00       66.319       23.846       23.545       24.764       27.716       21.979      613.232      768.188      483.091        0.369        0.093       70.475       16.967        0.058      334.302        4.185      861.466
10/29/2013  23:58:00       60.708       37.891        3.756       20.329       23.305       18.800      413.249      543.142      353.431        0.322        0.065       71.562       11.658        0.027      334.279        4.147      861.483
10/29/2013  23:59:00       18.352       54.195       -5.315       28.978       27.539       16.965      839.696      758.374      287.796        0.259        0.094       57.218       18.442        0.104      334.270        4.130      861.498
